<?xml version="1.0" encoding="UTF-8" standalone="no" ?>
<gpx xmlns="http://www.topografix.com/GPX/1/1" xmlns:xsi="http://www.w3.org/2001/XMLSchema-instance" xsi:schemaLocation="http://www.topografix.com/GPX/1/1 http://www.topografix.com/GPX/1/1/gpx.xsd" version="1.1" creator="VisuGPX - https://www.visugpx.com">
  <metadata>
    <name>Saint Georges de Baroille </name>
    <desc><![CDATA[Balade sympa sans difficulté. Chemins et sentiers en sous bois agréables.]]></desc>
  </metadata>
  <trk>
    <name><![CDATA[20190325202552-BKYgL]]></name>
    <trkseg>
      <trkpt lat="45.85016" lon="4.12691">
        <ele>440.264</ele>
        <time>2019-03-25T13:08:22Z</time>
      </trkpt>
      <trkpt lat="45.85012" lon="4.12689">
        <ele>440.058</ele>
        <time>2019-03-25T13:08:27Z</time>
      </trkpt>
      <trkpt lat="45.85012" lon="4.12689">
        <ele>441.537</ele>
        <time>2019-03-25T13:08:32Z</time>
      </trkpt>
      <trkpt lat="45.85001" lon="4.12688">
        <ele>438.901</ele>
        <time>2019-03-25T13:08:38Z</time>
      </trkpt>
      <trkpt lat="45.85001" lon="4.12688">
        <ele>439.516</ele>
        <time>2019-03-25T13:08:43Z</time>
      </trkpt>
      <trkpt lat="45.84991" lon="4.1269">
        <ele>435.698</ele>
        <time>2019-03-25T13:08:49Z</time>
      </trkpt>
      <trkpt lat="45.84989" lon="4.12691">
        <ele>435.919</ele>
        <time>2019-03-25T13:08:54Z</time>
      </trkpt>
      <trkpt lat="45.84989" lon="4.12691">
        <ele>436.065</ele>
        <time>2019-03-25T13:09:00Z</time>
      </trkpt>
      <trkpt lat="45.8499" lon="4.12712">
        <ele>436.18</ele>
        <time>2019-03-25T13:09:06Z</time>
      </trkpt>
      <trkpt lat="45.8499" lon="4.12717">
        <ele>436.287</ele>
        <time>2019-03-25T13:09:11Z</time>
      </trkpt>
      <trkpt lat="45.84989" lon="4.12725">
        <ele>436.541</ele>
        <time>2019-03-25T13:09:16Z</time>
      </trkpt>
      <trkpt lat="45.84989" lon="4.12731">
        <ele>436.947</ele>
        <time>2019-03-25T13:09:21Z</time>
      </trkpt>
      <trkpt lat="45.84988" lon="4.12739">
        <ele>437.52</ele>
        <time>2019-03-25T13:09:27Z</time>
      </trkpt>
      <trkpt lat="45.84987" lon="4.12748">
        <ele>438.08</ele>
        <time>2019-03-25T13:09:32Z</time>
      </trkpt>
      <trkpt lat="45.84986" lon="4.12758">
        <ele>438.807</ele>
        <time>2019-03-25T13:09:38Z</time>
      </trkpt>
      <trkpt lat="45.84987" lon="4.12765">
        <ele>439.916</ele>
        <time>2019-03-25T13:09:44Z</time>
      </trkpt>
      <trkpt lat="45.84989" lon="4.12778">
        <ele>440.427</ele>
        <time>2019-03-25T13:09:50Z</time>
      </trkpt>
      <trkpt lat="45.84989" lon="4.12789">
        <ele>440.969</ele>
        <time>2019-03-25T13:09:55Z</time>
      </trkpt>
      <trkpt lat="45.84987" lon="4.12796">
        <ele>441.45</ele>
        <time>2019-03-25T13:10:01Z</time>
      </trkpt>
      <trkpt lat="45.84986" lon="4.12804">
        <ele>441.767</ele>
        <time>2019-03-25T13:10:06Z</time>
      </trkpt>
      <trkpt lat="45.84986" lon="4.12813">
        <ele>441.76</ele>
        <time>2019-03-25T13:10:12Z</time>
      </trkpt>
      <trkpt lat="45.84984" lon="4.12819">
        <ele>441.453</ele>
        <time>2019-03-25T13:10:17Z</time>
      </trkpt>
      <trkpt lat="45.84985" lon="4.1283">
        <ele>441.117</ele>
        <time>2019-03-25T13:10:23Z</time>
      </trkpt>
      <trkpt lat="45.84985" lon="4.12837">
        <ele>440.449</ele>
        <time>2019-03-25T13:10:28Z</time>
      </trkpt>
      <trkpt lat="45.84985" lon="4.12847">
        <ele>440.145</ele>
        <time>2019-03-25T13:10:34Z</time>
      </trkpt>
      <trkpt lat="45.84985" lon="4.12859">
        <ele>440.007</ele>
        <time>2019-03-25T13:10:40Z</time>
      </trkpt>
      <trkpt lat="45.84986" lon="4.12868">
        <ele>439.696</ele>
        <time>2019-03-25T13:10:45Z</time>
      </trkpt>
      <trkpt lat="45.84985" lon="4.12881">
        <ele>439.486</ele>
        <time>2019-03-25T13:10:51Z</time>
      </trkpt>
      <trkpt lat="45.84983" lon="4.1289">
        <ele>439.705</ele>
        <time>2019-03-25T13:10:56Z</time>
      </trkpt>
      <trkpt lat="45.84983" lon="4.12898">
        <ele>439.506</ele>
        <time>2019-03-25T13:11:02Z</time>
      </trkpt>
      <trkpt lat="45.84984" lon="4.12906">
        <ele>439.092</ele>
        <time>2019-03-25T13:11:08Z</time>
      </trkpt>
      <trkpt lat="45.84984" lon="4.12917">
        <ele>438.753</ele>
        <time>2019-03-25T13:11:14Z</time>
      </trkpt>
      <trkpt lat="45.84983" lon="4.12926">
        <ele>438.648</ele>
        <time>2019-03-25T13:11:20Z</time>
      </trkpt>
      <trkpt lat="45.84984" lon="4.12935">
        <ele>438.699</ele>
        <time>2019-03-25T13:11:26Z</time>
      </trkpt>
      <trkpt lat="45.84987" lon="4.12939">
        <ele>438.711</ele>
        <time>2019-03-25T13:11:32Z</time>
      </trkpt>
      <trkpt lat="45.84993" lon="4.12936">
        <ele>438.45</ele>
        <time>2019-03-25T13:11:38Z</time>
      </trkpt>
      <trkpt lat="45.85" lon="4.12928">
        <ele>438.25</ele>
        <time>2019-03-25T13:11:44Z</time>
      </trkpt>
      <trkpt lat="45.85006" lon="4.12923">
        <ele>438.186</ele>
        <time>2019-03-25T13:11:50Z</time>
      </trkpt>
      <trkpt lat="45.85011" lon="4.12919">
        <ele>438.493</ele>
        <time>2019-03-25T13:11:55Z</time>
      </trkpt>
      <trkpt lat="45.85017" lon="4.12913">
        <ele>438.799</ele>
        <time>2019-03-25T13:12:01Z</time>
      </trkpt>
      <trkpt lat="45.85021" lon="4.12907">
        <ele>439.4</ele>
        <time>2019-03-25T13:12:07Z</time>
      </trkpt>
      <trkpt lat="45.85027" lon="4.12899">
        <ele>440.373</ele>
        <time>2019-03-25T13:12:13Z</time>
      </trkpt>
      <trkpt lat="45.85032" lon="4.12892">
        <ele>440.988</ele>
        <time>2019-03-25T13:12:19Z</time>
      </trkpt>
      <trkpt lat="45.85035" lon="4.12886">
        <ele>441.204</ele>
        <time>2019-03-25T13:12:24Z</time>
      </trkpt>
      <trkpt lat="45.85039" lon="4.12879">
        <ele>441.381</ele>
        <time>2019-03-25T13:12:30Z</time>
      </trkpt>
      <trkpt lat="45.85045" lon="4.12872">
        <ele>441.725</ele>
        <time>2019-03-25T13:12:35Z</time>
      </trkpt>
      <trkpt lat="45.85049" lon="4.12867">
        <ele>441.97</ele>
        <time>2019-03-25T13:12:41Z</time>
      </trkpt>
      <trkpt lat="45.85053" lon="4.12859">
        <ele>442.322</ele>
        <time>2019-03-25T13:12:47Z</time>
      </trkpt>
      <trkpt lat="45.85058" lon="4.12852">
        <ele>442.173</ele>
        <time>2019-03-25T13:12:53Z</time>
      </trkpt>
      <trkpt lat="45.85061" lon="4.12847">
        <ele>442.202</ele>
        <time>2019-03-25T13:12:58Z</time>
      </trkpt>
      <trkpt lat="45.85066" lon="4.1284">
        <ele>442.566</ele>
        <time>2019-03-25T13:13:03Z</time>
      </trkpt>
      <trkpt lat="45.85071" lon="4.12832">
        <ele>443.022</ele>
        <time>2019-03-25T13:13:09Z</time>
      </trkpt>
      <trkpt lat="45.85074" lon="4.12826">
        <ele>442.99</ele>
        <time>2019-03-25T13:13:14Z</time>
      </trkpt>
      <trkpt lat="45.85079" lon="4.12819">
        <ele>442.687</ele>
        <time>2019-03-25T13:13:20Z</time>
      </trkpt>
      <trkpt lat="45.85084" lon="4.12812">
        <ele>442.671</ele>
        <time>2019-03-25T13:13:26Z</time>
      </trkpt>
      <trkpt lat="45.85089" lon="4.12808">
        <ele>442.596</ele>
        <time>2019-03-25T13:13:31Z</time>
      </trkpt>
      <trkpt lat="45.85095" lon="4.12803">
        <ele>442.787</ele>
        <time>2019-03-25T13:13:37Z</time>
      </trkpt>
      <trkpt lat="45.851" lon="4.12799">
        <ele>442.915</ele>
        <time>2019-03-25T13:13:42Z</time>
      </trkpt>
      <trkpt lat="45.85105" lon="4.12791">
        <ele>443.524</ele>
        <time>2019-03-25T13:13:48Z</time>
      </trkpt>
      <trkpt lat="45.85109" lon="4.12785">
        <ele>443.799</ele>
        <time>2019-03-25T13:13:54Z</time>
      </trkpt>
      <trkpt lat="45.85115" lon="4.12778">
        <ele>444.267</ele>
        <time>2019-03-25T13:13:59Z</time>
      </trkpt>
      <trkpt lat="45.85119" lon="4.1277">
        <ele>444.553</ele>
        <time>2019-03-25T13:14:05Z</time>
      </trkpt>
      <trkpt lat="45.85123" lon="4.12763">
        <ele>444.939</ele>
        <time>2019-03-25T13:14:10Z</time>
      </trkpt>
      <trkpt lat="45.85128" lon="4.12756">
        <ele>444.915</ele>
        <time>2019-03-25T13:14:16Z</time>
      </trkpt>
      <trkpt lat="45.85131" lon="4.12749">
        <ele>444.87</ele>
        <time>2019-03-25T13:14:21Z</time>
      </trkpt>
      <trkpt lat="45.85136" lon="4.12739">
        <ele>444.731</ele>
        <time>2019-03-25T13:14:27Z</time>
      </trkpt>
      <trkpt lat="45.85139" lon="4.12732">
        <ele>444.821</ele>
        <time>2019-03-25T13:14:33Z</time>
      </trkpt>
      <trkpt lat="45.85143" lon="4.12725">
        <ele>445.241</ele>
        <time>2019-03-25T13:14:39Z</time>
      </trkpt>
      <trkpt lat="45.85147" lon="4.12719">
        <ele>445.327</ele>
        <time>2019-03-25T13:14:44Z</time>
      </trkpt>
      <trkpt lat="45.85151" lon="4.1271">
        <ele>445.58</ele>
        <time>2019-03-25T13:14:50Z</time>
      </trkpt>
      <trkpt lat="45.85155" lon="4.12701">
        <ele>445.888</ele>
        <time>2019-03-25T13:14:56Z</time>
      </trkpt>
      <trkpt lat="45.85158" lon="4.12693">
        <ele>446.165</ele>
        <time>2019-03-25T13:15:01Z</time>
      </trkpt>
      <trkpt lat="45.85161" lon="4.12685">
        <ele>446.166</ele>
        <time>2019-03-25T13:15:07Z</time>
      </trkpt>
      <trkpt lat="45.85164" lon="4.12676">
        <ele>446.323</ele>
        <time>2019-03-25T13:15:13Z</time>
      </trkpt>
      <trkpt lat="45.85166" lon="4.12669">
        <ele>446.374</ele>
        <time>2019-03-25T13:15:19Z</time>
      </trkpt>
      <trkpt lat="45.8517" lon="4.12662">
        <ele>446.892</ele>
        <time>2019-03-25T13:15:24Z</time>
      </trkpt>
      <trkpt lat="45.85175" lon="4.12654">
        <ele>447.169</ele>
        <time>2019-03-25T13:15:30Z</time>
      </trkpt>
      <trkpt lat="45.85179" lon="4.12645">
        <ele>447.598</ele>
        <time>2019-03-25T13:15:36Z</time>
      </trkpt>
      <trkpt lat="45.85184" lon="4.12638">
        <ele>447.886</ele>
        <time>2019-03-25T13:15:42Z</time>
      </trkpt>
      <trkpt lat="45.85188" lon="4.1263">
        <ele>448.338</ele>
        <time>2019-03-25T13:15:48Z</time>
      </trkpt>
      <trkpt lat="45.8519" lon="4.12624">
        <ele>448.672</ele>
        <time>2019-03-25T13:15:53Z</time>
      </trkpt>
      <trkpt lat="45.85195" lon="4.12615">
        <ele>449.027</ele>
        <time>2019-03-25T13:15:59Z</time>
      </trkpt>
      <trkpt lat="45.852" lon="4.12605">
        <ele>449.179</ele>
        <time>2019-03-25T13:16:05Z</time>
      </trkpt>
      <trkpt lat="45.85204" lon="4.12596">
        <ele>449.533</ele>
        <time>2019-03-25T13:16:11Z</time>
      </trkpt>
      <trkpt lat="45.85206" lon="4.12589">
        <ele>449.536</ele>
        <time>2019-03-25T13:16:16Z</time>
      </trkpt>
      <trkpt lat="45.85207" lon="4.12582">
        <ele>449.614</ele>
        <time>2019-03-25T13:16:21Z</time>
      </trkpt>
      <trkpt lat="45.8521" lon="4.12574">
        <ele>449.629</ele>
        <time>2019-03-25T13:16:26Z</time>
      </trkpt>
      <trkpt lat="45.85212" lon="4.12565">
        <ele>449.43</ele>
        <time>2019-03-25T13:16:32Z</time>
      </trkpt>
      <trkpt lat="45.85215" lon="4.12557">
        <ele>449.63</ele>
        <time>2019-03-25T13:16:37Z</time>
      </trkpt>
      <trkpt lat="45.85216" lon="4.1255">
        <ele>449.661</ele>
        <time>2019-03-25T13:16:42Z</time>
      </trkpt>
      <trkpt lat="45.85219" lon="4.12541">
        <ele>449.715</ele>
        <time>2019-03-25T13:16:48Z</time>
      </trkpt>
      <trkpt lat="45.85223" lon="4.1253">
        <ele>449.982</ele>
        <time>2019-03-25T13:16:54Z</time>
      </trkpt>
      <trkpt lat="45.85224" lon="4.12521">
        <ele>450.48</ele>
        <time>2019-03-25T13:16:59Z</time>
      </trkpt>
      <trkpt lat="45.85227" lon="4.12511">
        <ele>450.712</ele>
        <time>2019-03-25T13:17:05Z</time>
      </trkpt>
      <trkpt lat="45.8523" lon="4.12502">
        <ele>450.579</ele>
        <time>2019-03-25T13:17:10Z</time>
      </trkpt>
      <trkpt lat="45.85232" lon="4.12495">
        <ele>450.565</ele>
        <time>2019-03-25T13:17:15Z</time>
      </trkpt>
      <trkpt lat="45.85235" lon="4.12488">
        <ele>450.647</ele>
        <time>2019-03-25T13:17:21Z</time>
      </trkpt>
      <trkpt lat="45.85236" lon="4.12479">
        <ele>450.774</ele>
        <time>2019-03-25T13:17:27Z</time>
      </trkpt>
      <trkpt lat="45.85238" lon="4.12472">
        <ele>451.173</ele>
        <time>2019-03-25T13:17:32Z</time>
      </trkpt>
      <trkpt lat="45.85242" lon="4.12463">
        <ele>451.623</ele>
        <time>2019-03-25T13:17:37Z</time>
      </trkpt>
      <trkpt lat="45.85243" lon="4.12454">
        <ele>452.011</ele>
        <time>2019-03-25T13:17:43Z</time>
      </trkpt>
      <trkpt lat="45.85245" lon="4.12446">
        <ele>451.953</ele>
        <time>2019-03-25T13:17:48Z</time>
      </trkpt>
      <trkpt lat="45.85247" lon="4.12439">
        <ele>452.26</ele>
        <time>2019-03-25T13:17:53Z</time>
      </trkpt>
      <trkpt lat="45.8525" lon="4.12428">
        <ele>453.087</ele>
        <time>2019-03-25T13:17:59Z</time>
      </trkpt>
      <trkpt lat="45.85252" lon="4.1242">
        <ele>453.503</ele>
        <time>2019-03-25T13:18:04Z</time>
      </trkpt>
      <trkpt lat="45.85254" lon="4.12411">
        <ele>453.964</ele>
        <time>2019-03-25T13:18:10Z</time>
      </trkpt>
      <trkpt lat="45.85257" lon="4.124">
        <ele>454.654</ele>
        <time>2019-03-25T13:18:16Z</time>
      </trkpt>
      <trkpt lat="45.85258" lon="4.12391">
        <ele>454.637</ele>
        <time>2019-03-25T13:18:21Z</time>
      </trkpt>
      <trkpt lat="45.85259" lon="4.12379">
        <ele>454.653</ele>
        <time>2019-03-25T13:18:27Z</time>
      </trkpt>
      <trkpt lat="45.8526" lon="4.12371">
        <ele>454.791</ele>
        <time>2019-03-25T13:18:32Z</time>
      </trkpt>
      <trkpt lat="45.85263" lon="4.12362">
        <ele>455.024</ele>
        <time>2019-03-25T13:18:38Z</time>
      </trkpt>
      <trkpt lat="45.85266" lon="4.12352">
        <ele>455.134</ele>
        <time>2019-03-25T13:18:44Z</time>
      </trkpt>
      <trkpt lat="45.85267" lon="4.12343">
        <ele>454.9</ele>
        <time>2019-03-25T13:18:49Z</time>
      </trkpt>
      <trkpt lat="45.85271" lon="4.12333">
        <ele>454.73</ele>
        <time>2019-03-25T13:18:55Z</time>
      </trkpt>
      <trkpt lat="45.85273" lon="4.12326">
        <ele>454.609</ele>
        <time>2019-03-25T13:19:00Z</time>
      </trkpt>
      <trkpt lat="45.85275" lon="4.12317">
        <ele>454.571</ele>
        <time>2019-03-25T13:19:06Z</time>
      </trkpt>
      <trkpt lat="45.85278" lon="4.12308">
        <ele>454.547</ele>
        <time>2019-03-25T13:19:12Z</time>
      </trkpt>
      <trkpt lat="45.85279" lon="4.12299">
        <ele>454.632</ele>
        <time>2019-03-25T13:19:17Z</time>
      </trkpt>
      <trkpt lat="45.85282" lon="4.12291">
        <ele>454.499</ele>
        <time>2019-03-25T13:19:23Z</time>
      </trkpt>
      <trkpt lat="45.85285" lon="4.1228">
        <ele>454.408</ele>
        <time>2019-03-25T13:19:29Z</time>
      </trkpt>
      <trkpt lat="45.85287" lon="4.12272">
        <ele>454.325</ele>
        <time>2019-03-25T13:19:34Z</time>
      </trkpt>
      <trkpt lat="45.85289" lon="4.12265">
        <ele>454.349</ele>
        <time>2019-03-25T13:19:40Z</time>
      </trkpt>
      <trkpt lat="45.85292" lon="4.12255">
        <ele>454.424</ele>
        <time>2019-03-25T13:19:46Z</time>
      </trkpt>
      <trkpt lat="45.85294" lon="4.12245">
        <ele>454.449</ele>
        <time>2019-03-25T13:19:52Z</time>
      </trkpt>
      <trkpt lat="45.85297" lon="4.12233">
        <ele>454.208</ele>
        <time>2019-03-25T13:19:58Z</time>
      </trkpt>
      <trkpt lat="45.853" lon="4.12224">
        <ele>454.369</ele>
        <time>2019-03-25T13:20:03Z</time>
      </trkpt>
      <trkpt lat="45.85302" lon="4.12216">
        <ele>454.332</ele>
        <time>2019-03-25T13:20:09Z</time>
      </trkpt>
      <trkpt lat="45.85303" lon="4.12207">
        <ele>454.336</ele>
        <time>2019-03-25T13:20:14Z</time>
      </trkpt>
      <trkpt lat="45.85306" lon="4.12198">
        <ele>454.221</ele>
        <time>2019-03-25T13:20:19Z</time>
      </trkpt>
      <trkpt lat="45.85307" lon="4.12187">
        <ele>454.1</ele>
        <time>2019-03-25T13:20:25Z</time>
      </trkpt>
      <trkpt lat="45.85309" lon="4.1218">
        <ele>453.786</ele>
        <time>2019-03-25T13:20:30Z</time>
      </trkpt>
      <trkpt lat="45.8531" lon="4.12174">
        <ele>453.359</ele>
        <time>2019-03-25T13:20:35Z</time>
      </trkpt>
      <trkpt lat="45.85313" lon="4.12162">
        <ele>453.201</ele>
        <time>2019-03-25T13:20:41Z</time>
      </trkpt>
      <trkpt lat="45.85314" lon="4.12154">
        <ele>452.967</ele>
        <time>2019-03-25T13:20:46Z</time>
      </trkpt>
      <trkpt lat="45.85316" lon="4.12147">
        <ele>452.777</ele>
        <time>2019-03-25T13:20:51Z</time>
      </trkpt>
      <trkpt lat="45.85319" lon="4.12138">
        <ele>452.806</ele>
        <time>2019-03-25T13:20:57Z</time>
      </trkpt>
      <trkpt lat="45.85322" lon="4.12135">
        <ele>453.132</ele>
        <time>2019-03-25T13:21:02Z</time>
      </trkpt>
      <trkpt lat="45.85328" lon="4.12133">
        <ele>453.395</ele>
        <time>2019-03-25T13:21:08Z</time>
      </trkpt>
      <trkpt lat="45.85333" lon="4.12131">
        <ele>453.592</ele>
        <time>2019-03-25T13:21:13Z</time>
      </trkpt>
      <trkpt lat="45.85341" lon="4.12128">
        <ele>453.648</ele>
        <time>2019-03-25T13:21:19Z</time>
      </trkpt>
      <trkpt lat="45.85347" lon="4.12122">
        <ele>453.481</ele>
        <time>2019-03-25T13:21:25Z</time>
      </trkpt>
      <trkpt lat="45.85351" lon="4.12117">
        <ele>453.345</ele>
        <time>2019-03-25T13:21:30Z</time>
      </trkpt>
      <trkpt lat="45.85356" lon="4.12113">
        <ele>453.464</ele>
        <time>2019-03-25T13:21:35Z</time>
      </trkpt>
      <trkpt lat="45.85361" lon="4.12107">
        <ele>453.293</ele>
        <time>2019-03-25T13:21:41Z</time>
      </trkpt>
      <trkpt lat="45.85368" lon="4.12101">
        <ele>453.216</ele>
        <time>2019-03-25T13:21:47Z</time>
      </trkpt>
      <trkpt lat="45.85371" lon="4.12093">
        <ele>452.979</ele>
        <time>2019-03-25T13:21:52Z</time>
      </trkpt>
      <trkpt lat="45.85374" lon="4.12086">
        <ele>453.308</ele>
        <time>2019-03-25T13:21:58Z</time>
      </trkpt>
      <trkpt lat="45.85378" lon="4.12079">
        <ele>453.127</ele>
        <time>2019-03-25T13:22:03Z</time>
      </trkpt>
      <trkpt lat="45.85378" lon="4.12068">
        <ele>453.041</ele>
        <time>2019-03-25T13:22:08Z</time>
      </trkpt>
      <trkpt lat="45.85379" lon="4.1206">
        <ele>452.985</ele>
        <time>2019-03-25T13:22:14Z</time>
      </trkpt>
      <trkpt lat="45.85384" lon="4.1205">
        <ele>452.788</ele>
        <time>2019-03-25T13:22:20Z</time>
      </trkpt>
      <trkpt lat="45.85384" lon="4.12041">
        <ele>452.781</ele>
        <time>2019-03-25T13:22:26Z</time>
      </trkpt>
      <trkpt lat="45.85387" lon="4.12034">
        <ele>452.886</ele>
        <time>2019-03-25T13:22:31Z</time>
      </trkpt>
      <trkpt lat="45.8539" lon="4.12025">
        <ele>452.936</ele>
        <time>2019-03-25T13:22:37Z</time>
      </trkpt>
      <trkpt lat="45.85393" lon="4.12016">
        <ele>452.844</ele>
        <time>2019-03-25T13:22:42Z</time>
      </trkpt>
      <trkpt lat="45.85396" lon="4.12008">
        <ele>452.64</ele>
        <time>2019-03-25T13:22:48Z</time>
      </trkpt>
      <trkpt lat="45.854" lon="4.11999">
        <ele>452.142</ele>
        <time>2019-03-25T13:22:54Z</time>
      </trkpt>
      <trkpt lat="45.85404" lon="4.11993">
        <ele>451.86</ele>
        <time>2019-03-25T13:22:59Z</time>
      </trkpt>
      <trkpt lat="45.85407" lon="4.11987">
        <ele>451.702</ele>
        <time>2019-03-25T13:23:04Z</time>
      </trkpt>
      <trkpt lat="45.85411" lon="4.11978">
        <ele>451.552</ele>
        <time>2019-03-25T13:23:10Z</time>
      </trkpt>
      <trkpt lat="45.85415" lon="4.11971">
        <ele>451.32</ele>
        <time>2019-03-25T13:23:16Z</time>
      </trkpt>
      <trkpt lat="45.85419" lon="4.11965">
        <ele>451.086</ele>
        <time>2019-03-25T13:23:21Z</time>
      </trkpt>
      <trkpt lat="45.85423" lon="4.11959">
        <ele>451.113</ele>
        <time>2019-03-25T13:23:26Z</time>
      </trkpt>
      <trkpt lat="45.85428" lon="4.11952">
        <ele>450.825</ele>
        <time>2019-03-25T13:23:32Z</time>
      </trkpt>
      <trkpt lat="45.85432" lon="4.11947">
        <ele>450.72</ele>
        <time>2019-03-25T13:23:37Z</time>
      </trkpt>
      <trkpt lat="45.85437" lon="4.11942">
        <ele>450.368</ele>
        <time>2019-03-25T13:23:43Z</time>
      </trkpt>
      <trkpt lat="45.85444" lon="4.11934">
        <ele>449.797</ele>
        <time>2019-03-25T13:23:49Z</time>
      </trkpt>
      <trkpt lat="45.85449" lon="4.1193">
        <ele>449.314</ele>
        <time>2019-03-25T13:23:54Z</time>
      </trkpt>
      <trkpt lat="45.85455" lon="4.11923">
        <ele>448.777</ele>
        <time>2019-03-25T13:24:00Z</time>
      </trkpt>
      <trkpt lat="45.8546" lon="4.11917">
        <ele>448.518</ele>
        <time>2019-03-25T13:24:05Z</time>
      </trkpt>
      <trkpt lat="45.85466" lon="4.11912">
        <ele>448.601</ele>
        <time>2019-03-25T13:24:11Z</time>
      </trkpt>
      <trkpt lat="45.85472" lon="4.11905">
        <ele>448.45</ele>
        <time>2019-03-25T13:24:17Z</time>
      </trkpt>
      <trkpt lat="45.85478" lon="4.11901">
        <ele>448.237</ele>
        <time>2019-03-25T13:24:23Z</time>
      </trkpt>
      <trkpt lat="45.85484" lon="4.11897">
        <ele>447.904</ele>
        <time>2019-03-25T13:24:29Z</time>
      </trkpt>
      <trkpt lat="45.8549" lon="4.1189">
        <ele>447.788</ele>
        <time>2019-03-25T13:24:35Z</time>
      </trkpt>
      <trkpt lat="45.85496" lon="4.11884">
        <ele>447.817</ele>
        <time>2019-03-25T13:24:40Z</time>
      </trkpt>
      <trkpt lat="45.85502" lon="4.11878">
        <ele>447.944</ele>
        <time>2019-03-25T13:24:46Z</time>
      </trkpt>
      <trkpt lat="45.85506" lon="4.11873">
        <ele>447.918</ele>
        <time>2019-03-25T13:24:52Z</time>
      </trkpt>
      <trkpt lat="45.85512" lon="4.11867">
        <ele>447.523</ele>
        <time>2019-03-25T13:24:57Z</time>
      </trkpt>
      <trkpt lat="45.85518" lon="4.11863">
        <ele>447.33</ele>
        <time>2019-03-25T13:25:03Z</time>
      </trkpt>
      <trkpt lat="45.85525" lon="4.11859">
        <ele>447.425</ele>
        <time>2019-03-25T13:25:09Z</time>
      </trkpt>
      <trkpt lat="45.85531" lon="4.11852">
        <ele>447.386</ele>
        <time>2019-03-25T13:25:15Z</time>
      </trkpt>
      <trkpt lat="45.85535" lon="4.11847">
        <ele>446.994</ele>
        <time>2019-03-25T13:25:20Z</time>
      </trkpt>
      <trkpt lat="45.85541" lon="4.11841">
        <ele>446.696</ele>
        <time>2019-03-25T13:25:26Z</time>
      </trkpt>
      <trkpt lat="45.85548" lon="4.11833">
        <ele>446.476</ele>
        <time>2019-03-25T13:25:32Z</time>
      </trkpt>
      <trkpt lat="45.85554" lon="4.11827">
        <ele>446.468</ele>
        <time>2019-03-25T13:25:38Z</time>
      </trkpt>
      <trkpt lat="45.85561" lon="4.11821">
        <ele>446.221</ele>
        <time>2019-03-25T13:25:44Z</time>
      </trkpt>
      <trkpt lat="45.85566" lon="4.11817">
        <ele>445.689</ele>
        <time>2019-03-25T13:25:49Z</time>
      </trkpt>
      <trkpt lat="45.8557" lon="4.11813">
        <ele>445.127</ele>
        <time>2019-03-25T13:25:54Z</time>
      </trkpt>
      <trkpt lat="45.85575" lon="4.11806">
        <ele>444.962</ele>
        <time>2019-03-25T13:26:00Z</time>
      </trkpt>
      <trkpt lat="45.8558" lon="4.11804">
        <ele>444.925</ele>
        <time>2019-03-25T13:26:06Z</time>
      </trkpt>
      <trkpt lat="45.85589" lon="4.11799">
        <ele>444.441</ele>
        <time>2019-03-25T13:26:12Z</time>
      </trkpt>
      <trkpt lat="45.85596" lon="4.11795">
        <ele>443.945</ele>
        <time>2019-03-25T13:26:18Z</time>
      </trkpt>
      <trkpt lat="45.85602" lon="4.11794">
        <ele>443.714</ele>
        <time>2019-03-25T13:26:23Z</time>
      </trkpt>
      <trkpt lat="45.85608" lon="4.11793">
        <ele>443.417</ele>
        <time>2019-03-25T13:26:29Z</time>
      </trkpt>
      <trkpt lat="45.85614" lon="4.1179">
        <ele>443.594</ele>
        <time>2019-03-25T13:26:35Z</time>
      </trkpt>
      <trkpt lat="45.85622" lon="4.11788">
        <ele>443.535</ele>
        <time>2019-03-25T13:26:41Z</time>
      </trkpt>
      <trkpt lat="45.85629" lon="4.11786">
        <ele>443.446</ele>
        <time>2019-03-25T13:26:46Z</time>
      </trkpt>
      <trkpt lat="45.85637" lon="4.11782">
        <ele>443.027</ele>
        <time>2019-03-25T13:26:52Z</time>
      </trkpt>
      <trkpt lat="45.85644" lon="4.11778">
        <ele>442.654</ele>
        <time>2019-03-25T13:26:58Z</time>
      </trkpt>
      <trkpt lat="45.85653" lon="4.11774">
        <ele>442.158</ele>
        <time>2019-03-25T13:27:04Z</time>
      </trkpt>
      <trkpt lat="45.85658" lon="4.11768">
        <ele>441.914</ele>
        <time>2019-03-25T13:27:10Z</time>
      </trkpt>
      <trkpt lat="45.85663" lon="4.11765">
        <ele>441.706</ele>
        <time>2019-03-25T13:27:15Z</time>
      </trkpt>
      <trkpt lat="45.85667" lon="4.1176">
        <ele>441.631</ele>
        <time>2019-03-25T13:27:20Z</time>
      </trkpt>
      <trkpt lat="45.85674" lon="4.11754">
        <ele>441.292</ele>
        <time>2019-03-25T13:27:26Z</time>
      </trkpt>
      <trkpt lat="45.85678" lon="4.11748">
        <ele>440.688</ele>
        <time>2019-03-25T13:27:31Z</time>
      </trkpt>
      <trkpt lat="45.85679" lon="4.11738">
        <ele>440.636</ele>
        <time>2019-03-25T13:27:36Z</time>
      </trkpt>
      <trkpt lat="45.85677" lon="4.11729">
        <ele>440.159</ele>
        <time>2019-03-25T13:27:42Z</time>
      </trkpt>
      <trkpt lat="45.85675" lon="4.11719">
        <ele>439.473</ele>
        <time>2019-03-25T13:27:48Z</time>
      </trkpt>
      <trkpt lat="45.85674" lon="4.1171">
        <ele>439.084</ele>
        <time>2019-03-25T13:27:54Z</time>
      </trkpt>
      <trkpt lat="45.85673" lon="4.11703">
        <ele>438.732</ele>
        <time>2019-03-25T13:27:59Z</time>
      </trkpt>
      <trkpt lat="45.85672" lon="4.11696">
        <ele>438.417</ele>
        <time>2019-03-25T13:28:04Z</time>
      </trkpt>
      <trkpt lat="45.85672" lon="4.11685">
        <ele>438.126</ele>
        <time>2019-03-25T13:28:10Z</time>
      </trkpt>
      <trkpt lat="45.85671" lon="4.11676">
        <ele>437.794</ele>
        <time>2019-03-25T13:28:16Z</time>
      </trkpt>
      <trkpt lat="45.8567" lon="4.11666">
        <ele>437.489</ele>
        <time>2019-03-25T13:28:21Z</time>
      </trkpt>
      <trkpt lat="45.85669" lon="4.11658">
        <ele>436.958</ele>
        <time>2019-03-25T13:28:27Z</time>
      </trkpt>
      <trkpt lat="45.85668" lon="4.1165">
        <ele>436.718</ele>
        <time>2019-03-25T13:28:33Z</time>
      </trkpt>
      <trkpt lat="45.85667" lon="4.11641">
        <ele>436.659</ele>
        <time>2019-03-25T13:28:38Z</time>
      </trkpt>
      <trkpt lat="45.85666" lon="4.11629">
        <ele>436.256</ele>
        <time>2019-03-25T13:28:44Z</time>
      </trkpt>
      <trkpt lat="45.85664" lon="4.11622">
        <ele>435.735</ele>
        <time>2019-03-25T13:28:49Z</time>
      </trkpt>
      <trkpt lat="45.85663" lon="4.11612">
        <ele>435.512</ele>
        <time>2019-03-25T13:28:55Z</time>
      </trkpt>
      <trkpt lat="45.85663" lon="4.11602">
        <ele>435.218</ele>
        <time>2019-03-25T13:29:01Z</time>
      </trkpt>
      <trkpt lat="45.85663" lon="4.1159">
        <ele>434.961</ele>
        <time>2019-03-25T13:29:07Z</time>
      </trkpt>
      <trkpt lat="45.85664" lon="4.11582">
        <ele>434.695</ele>
        <time>2019-03-25T13:29:12Z</time>
      </trkpt>
      <trkpt lat="45.85664" lon="4.11574">
        <ele>434.221</ele>
        <time>2019-03-25T13:29:18Z</time>
      </trkpt>
      <trkpt lat="45.85661" lon="4.11563">
        <ele>434.236</ele>
        <time>2019-03-25T13:29:24Z</time>
      </trkpt>
      <trkpt lat="45.85658" lon="4.11554">
        <ele>434.282</ele>
        <time>2019-03-25T13:29:29Z</time>
      </trkpt>
      <trkpt lat="45.85656" lon="4.11545">
        <ele>434.148</ele>
        <time>2019-03-25T13:29:35Z</time>
      </trkpt>
      <trkpt lat="45.85653" lon="4.11536">
        <ele>434.19</ele>
        <time>2019-03-25T13:29:40Z</time>
      </trkpt>
      <trkpt lat="45.8565" lon="4.11526">
        <ele>434.124</ele>
        <time>2019-03-25T13:29:46Z</time>
      </trkpt>
      <trkpt lat="45.85647" lon="4.1152">
        <ele>433.881</ele>
        <time>2019-03-25T13:29:52Z</time>
      </trkpt>
      <trkpt lat="45.85642" lon="4.11509">
        <ele>433.441</ele>
        <time>2019-03-25T13:29:58Z</time>
      </trkpt>
      <trkpt lat="45.85638" lon="4.11505">
        <ele>433.367</ele>
        <time>2019-03-25T13:30:03Z</time>
      </trkpt>
      <trkpt lat="45.85632" lon="4.115">
        <ele>433.137</ele>
        <time>2019-03-25T13:30:09Z</time>
      </trkpt>
      <trkpt lat="45.85628" lon="4.11497">
        <ele>433.37</ele>
        <time>2019-03-25T13:30:14Z</time>
      </trkpt>
      <trkpt lat="45.85624" lon="4.11492">
        <ele>434.345</ele>
        <time>2019-03-25T13:30:20Z</time>
      </trkpt>
      <trkpt lat="45.85616" lon="4.11487">
        <ele>434.825</ele>
        <time>2019-03-25T13:30:26Z</time>
      </trkpt>
      <trkpt lat="45.8561" lon="4.11486">
        <ele>434.979</ele>
        <time>2019-03-25T13:30:32Z</time>
      </trkpt>
      <trkpt lat="45.85603" lon="4.11483">
        <ele>435.141</ele>
        <time>2019-03-25T13:30:38Z</time>
      </trkpt>
      <trkpt lat="45.85596" lon="4.1148">
        <ele>435.633</ele>
        <time>2019-03-25T13:30:44Z</time>
      </trkpt>
      <trkpt lat="45.8559" lon="4.11478">
        <ele>436.193</ele>
        <time>2019-03-25T13:30:49Z</time>
      </trkpt>
      <trkpt lat="45.85583" lon="4.11477">
        <ele>436.683</ele>
        <time>2019-03-25T13:30:55Z</time>
      </trkpt>
      <trkpt lat="45.85578" lon="4.11475">
        <ele>436.618</ele>
        <time>2019-03-25T13:31:00Z</time>
      </trkpt>
      <trkpt lat="45.85571" lon="4.11471">
        <ele>436.782</ele>
        <time>2019-03-25T13:31:06Z</time>
      </trkpt>
      <trkpt lat="45.85564" lon="4.11469">
        <ele>437.166</ele>
        <time>2019-03-25T13:31:11Z</time>
      </trkpt>
      <trkpt lat="45.8556" lon="4.11468">
        <ele>437.337</ele>
        <time>2019-03-25T13:31:17Z</time>
      </trkpt>
      <trkpt lat="45.85554" lon="4.11466">
        <ele>437.841</ele>
        <time>2019-03-25T13:31:23Z</time>
      </trkpt>
      <trkpt lat="45.85546" lon="4.11463">
        <ele>438.297</ele>
        <time>2019-03-25T13:31:29Z</time>
      </trkpt>
      <trkpt lat="45.85538" lon="4.11461">
        <ele>438.309</ele>
        <time>2019-03-25T13:31:34Z</time>
      </trkpt>
      <trkpt lat="45.85534" lon="4.11459">
        <ele>438.493</ele>
        <time>2019-03-25T13:31:39Z</time>
      </trkpt>
      <trkpt lat="45.85528" lon="4.11458">
        <ele>438.56</ele>
        <time>2019-03-25T13:31:45Z</time>
      </trkpt>
      <trkpt lat="45.85519" lon="4.11456">
        <ele>438.812</ele>
        <time>2019-03-25T13:31:51Z</time>
      </trkpt>
      <trkpt lat="45.85516" lon="4.11451">
        <ele>438.887</ele>
        <time>2019-03-25T13:31:56Z</time>
      </trkpt>
      <trkpt lat="45.85513" lon="4.11447">
        <ele>438.936</ele>
        <time>2019-03-25T13:32:01Z</time>
      </trkpt>
      <trkpt lat="45.85508" lon="4.11442">
        <ele>438.904</ele>
        <time>2019-03-25T13:32:07Z</time>
      </trkpt>
      <trkpt lat="45.85504" lon="4.11437">
        <ele>439.505</ele>
        <time>2019-03-25T13:32:13Z</time>
      </trkpt>
      <trkpt lat="45.85498" lon="4.11428">
        <ele>439.982</ele>
        <time>2019-03-25T13:32:19Z</time>
      </trkpt>
      <trkpt lat="45.85494" lon="4.11424">
        <ele>440.296</ele>
        <time>2019-03-25T13:32:24Z</time>
      </trkpt>
      <trkpt lat="45.85488" lon="4.11419">
        <ele>440.572</ele>
        <time>2019-03-25T13:32:30Z</time>
      </trkpt>
      <trkpt lat="45.8548" lon="4.11412">
        <ele>441.35</ele>
        <time>2019-03-25T13:32:36Z</time>
      </trkpt>
      <trkpt lat="45.85475" lon="4.11407">
        <ele>441.673</ele>
        <time>2019-03-25T13:32:41Z</time>
      </trkpt>
      <trkpt lat="45.85469" lon="4.114">
        <ele>441.688</ele>
        <time>2019-03-25T13:32:46Z</time>
      </trkpt>
      <trkpt lat="45.85463" lon="4.11392">
        <ele>441.399</ele>
        <time>2019-03-25T13:32:51Z</time>
      </trkpt>
      <trkpt lat="45.85458" lon="4.11385">
        <ele>441.089</ele>
        <time>2019-03-25T13:32:57Z</time>
      </trkpt>
      <trkpt lat="45.85452" lon="4.11378">
        <ele>440.877</ele>
        <time>2019-03-25T13:33:02Z</time>
      </trkpt>
      <trkpt lat="45.85446" lon="4.11373">
        <ele>441.465</ele>
        <time>2019-03-25T13:33:08Z</time>
      </trkpt>
      <trkpt lat="45.85441" lon="4.11366">
        <ele>441.222</ele>
        <time>2019-03-25T13:33:13Z</time>
      </trkpt>
      <trkpt lat="45.85436" lon="4.1136">
        <ele>441.226</ele>
        <time>2019-03-25T13:33:18Z</time>
      </trkpt>
      <trkpt lat="45.85431" lon="4.11355">
        <ele>441.657</ele>
        <time>2019-03-25T13:33:24Z</time>
      </trkpt>
      <trkpt lat="45.85425" lon="4.11347">
        <ele>441.825</ele>
        <time>2019-03-25T13:33:30Z</time>
      </trkpt>
      <trkpt lat="45.8542" lon="4.1134">
        <ele>441.62</ele>
        <time>2019-03-25T13:33:36Z</time>
      </trkpt>
      <trkpt lat="45.85415" lon="4.11333">
        <ele>441.533</ele>
        <time>2019-03-25T13:33:41Z</time>
      </trkpt>
      <trkpt lat="45.85412" lon="4.11328">
        <ele>441.877</ele>
        <time>2019-03-25T13:33:46Z</time>
      </trkpt>
      <trkpt lat="45.85404" lon="4.11322">
        <ele>442.021</ele>
        <time>2019-03-25T13:33:51Z</time>
      </trkpt>
      <trkpt lat="45.85396" lon="4.11315">
        <ele>441.714</ele>
        <time>2019-03-25T13:33:57Z</time>
      </trkpt>
      <trkpt lat="45.85391" lon="4.1131">
        <ele>441.702</ele>
        <time>2019-03-25T13:34:03Z</time>
      </trkpt>
      <trkpt lat="45.85385" lon="4.11305">
        <ele>441.635</ele>
        <time>2019-03-25T13:34:09Z</time>
      </trkpt>
      <trkpt lat="45.85381" lon="4.11299">
        <ele>441.858</ele>
        <time>2019-03-25T13:34:15Z</time>
      </trkpt>
      <trkpt lat="45.85376" lon="4.11295">
        <ele>442.042</ele>
        <time>2019-03-25T13:34:21Z</time>
      </trkpt>
      <trkpt lat="45.8537" lon="4.1129">
        <ele>442.345</ele>
        <time>2019-03-25T13:34:26Z</time>
      </trkpt>
      <trkpt lat="45.85368" lon="4.11288">
        <ele>442.784</ele>
        <time>2019-03-25T13:34:31Z</time>
      </trkpt>
      <trkpt lat="45.85368" lon="4.11283">
        <ele>443.334</ele>
        <time>2019-03-25T13:34:37Z</time>
      </trkpt>
      <trkpt lat="45.8537" lon="4.11277">
        <ele>443.739</ele>
        <time>2019-03-25T13:34:42Z</time>
      </trkpt>
      <trkpt lat="45.85371" lon="4.11275">
        <ele>443.612</ele>
        <time>2019-03-25T13:34:48Z</time>
      </trkpt>
      <trkpt lat="45.8537" lon="4.11273">
        <ele>443.653</ele>
        <time>2019-03-25T13:34:54Z</time>
      </trkpt>
      <trkpt lat="45.85369" lon="4.1127">
        <ele>443.912</ele>
        <time>2019-03-25T13:34:59Z</time>
      </trkpt>
      <trkpt lat="45.85368" lon="4.11269">
        <ele>444.034</ele>
        <time>2019-03-25T13:35:04Z</time>
      </trkpt>
      <trkpt lat="45.85367" lon="4.11271">
        <ele>443.678</ele>
        <time>2019-03-25T13:35:10Z</time>
      </trkpt>
      <trkpt lat="45.85363" lon="4.1127">
        <ele>443.415</ele>
        <time>2019-03-25T13:35:16Z</time>
      </trkpt>
      <trkpt lat="45.8536" lon="4.1127">
        <ele>443.478</ele>
        <time>2019-03-25T13:35:21Z</time>
      </trkpt>
      <trkpt lat="45.85359" lon="4.11269">
        <ele>443.926</ele>
        <time>2019-03-25T13:35:26Z</time>
      </trkpt>
      <trkpt lat="45.85358" lon="4.11264">
        <ele>444.16</ele>
        <time>2019-03-25T13:35:32Z</time>
      </trkpt>
      <trkpt lat="45.85357" lon="4.11263">
        <ele>444.159</ele>
        <time>2019-03-25T13:35:37Z</time>
      </trkpt>
      <trkpt lat="45.85357" lon="4.1126">
        <ele>443.962</ele>
        <time>2019-03-25T13:35:43Z</time>
      </trkpt>
      <trkpt lat="45.85357" lon="4.1126">
        <ele>444.092</ele>
        <time>2019-03-25T13:35:48Z</time>
      </trkpt>
      <trkpt lat="45.85359" lon="4.11265">
        <ele>444.621</ele>
        <time>2019-03-25T13:35:54Z</time>
      </trkpt>
      <trkpt lat="45.85359" lon="4.11267">
        <ele>444.658</ele>
        <time>2019-03-25T13:35:59Z</time>
      </trkpt>
      <trkpt lat="45.85359" lon="4.11266">
        <ele>444.897</ele>
        <time>2019-03-25T13:36:05Z</time>
      </trkpt>
      <trkpt lat="45.85358" lon="4.11266">
        <ele>444.915</ele>
        <time>2019-03-25T13:36:10Z</time>
      </trkpt>
      <trkpt lat="45.85358" lon="4.11266">
        <ele>445.107</ele>
        <time>2019-03-25T13:36:15Z</time>
      </trkpt>
      <trkpt lat="45.85357" lon="4.11266">
        <ele>444.894</ele>
        <time>2019-03-25T13:36:21Z</time>
      </trkpt>
      <trkpt lat="45.85356" lon="4.11265">
        <ele>444.86</ele>
        <time>2019-03-25T13:36:26Z</time>
      </trkpt>
      <trkpt lat="45.85355" lon="4.11266">
        <ele>444.688</ele>
        <time>2019-03-25T13:36:32Z</time>
      </trkpt>
      <trkpt lat="45.85356" lon="4.11266">
        <ele>444.652</ele>
        <time>2019-03-25T13:36:38Z</time>
      </trkpt>
      <trkpt lat="45.85356" lon="4.11266">
        <ele>444.905</ele>
        <time>2019-03-25T13:36:43Z</time>
      </trkpt>
      <trkpt lat="45.85356" lon="4.11266">
        <ele>445.443</ele>
        <time>2019-03-25T13:36:48Z</time>
      </trkpt>
      <trkpt lat="45.85357" lon="4.11268">
        <ele>445.697</ele>
        <time>2019-03-25T13:36:54Z</time>
      </trkpt>
      <trkpt lat="45.85358" lon="4.11269">
        <ele>445.799</ele>
        <time>2019-03-25T13:36:59Z</time>
      </trkpt>
      <trkpt lat="45.85358" lon="4.11271">
        <ele>445.939</ele>
        <time>2019-03-25T13:37:04Z</time>
      </trkpt>
      <trkpt lat="45.85359" lon="4.11271">
        <ele>445.935</ele>
        <time>2019-03-25T13:37:10Z</time>
      </trkpt>
      <trkpt lat="45.85359" lon="4.1127">
        <ele>445.643</ele>
        <time>2019-03-25T13:37:16Z</time>
      </trkpt>
      <trkpt lat="45.8536" lon="4.11269">
        <ele>445.349</ele>
        <time>2019-03-25T13:37:21Z</time>
      </trkpt>
      <trkpt lat="45.85361" lon="4.11267">
        <ele>445.027</ele>
        <time>2019-03-25T13:37:26Z</time>
      </trkpt>
      <trkpt lat="45.8536" lon="4.11267">
        <ele>444.557</ele>
        <time>2019-03-25T13:37:32Z</time>
      </trkpt>
      <trkpt lat="45.8536" lon="4.11266">
        <ele>444.409</ele>
        <time>2019-03-25T13:37:38Z</time>
      </trkpt>
      <trkpt lat="45.85356" lon="4.11266">
        <ele>443.887</ele>
        <time>2019-03-25T13:37:44Z</time>
      </trkpt>
      <trkpt lat="45.85351" lon="4.11268">
        <ele>443.683</ele>
        <time>2019-03-25T13:37:49Z</time>
      </trkpt>
      <trkpt lat="45.85346" lon="4.11269">
        <ele>443.904</ele>
        <time>2019-03-25T13:37:55Z</time>
      </trkpt>
      <trkpt lat="45.85339" lon="4.11271">
        <ele>444.157</ele>
        <time>2019-03-25T13:38:00Z</time>
      </trkpt>
      <trkpt lat="45.85331" lon="4.11272">
        <ele>444.265</ele>
        <time>2019-03-25T13:38:06Z</time>
      </trkpt>
      <trkpt lat="45.85325" lon="4.11274">
        <ele>444.503</ele>
        <time>2019-03-25T13:38:12Z</time>
      </trkpt>
      <trkpt lat="45.8532" lon="4.11275">
        <ele>444.76</ele>
        <time>2019-03-25T13:38:17Z</time>
      </trkpt>
      <trkpt lat="45.85311" lon="4.11278">
        <ele>444.817</ele>
        <time>2019-03-25T13:38:23Z</time>
      </trkpt>
      <trkpt lat="45.85305" lon="4.11279">
        <ele>444.817</ele>
        <time>2019-03-25T13:38:29Z</time>
      </trkpt>
      <trkpt lat="45.853" lon="4.11279">
        <ele>445.014</ele>
        <time>2019-03-25T13:38:34Z</time>
      </trkpt>
      <trkpt lat="45.85294" lon="4.1128">
        <ele>444.812</ele>
        <time>2019-03-25T13:38:40Z</time>
      </trkpt>
      <trkpt lat="45.85288" lon="4.11283">
        <ele>444.679</ele>
        <time>2019-03-25T13:38:46Z</time>
      </trkpt>
      <trkpt lat="45.8528" lon="4.11284">
        <ele>445.22</ele>
        <time>2019-03-25T13:38:52Z</time>
      </trkpt>
      <trkpt lat="45.85276" lon="4.11285">
        <ele>445.568</ele>
        <time>2019-03-25T13:38:57Z</time>
      </trkpt>
      <trkpt lat="45.8527" lon="4.11287">
        <ele>445.802</ele>
        <time>2019-03-25T13:39:03Z</time>
      </trkpt>
      <trkpt lat="45.85262" lon="4.11284">
        <ele>445.051</ele>
        <time>2019-03-25T13:39:09Z</time>
      </trkpt>
      <trkpt lat="45.85256" lon="4.1128">
        <ele>444.421</ele>
        <time>2019-03-25T13:39:15Z</time>
      </trkpt>
      <trkpt lat="45.8525" lon="4.11277">
        <ele>443.899</ele>
        <time>2019-03-25T13:39:20Z</time>
      </trkpt>
      <trkpt lat="45.85244" lon="4.11274">
        <ele>443.032</ele>
        <time>2019-03-25T13:39:26Z</time>
      </trkpt>
      <trkpt lat="45.85239" lon="4.1127">
        <ele>442.691</ele>
        <time>2019-03-25T13:39:31Z</time>
      </trkpt>
      <trkpt lat="45.85234" lon="4.1127">
        <ele>442.646</ele>
        <time>2019-03-25T13:39:37Z</time>
      </trkpt>
      <trkpt lat="45.85226" lon="4.11269">
        <ele>442.6</ele>
        <time>2019-03-25T13:39:42Z</time>
      </trkpt>
      <trkpt lat="45.85221" lon="4.11269">
        <ele>442.456</ele>
        <time>2019-03-25T13:39:47Z</time>
      </trkpt>
      <trkpt lat="45.85215" lon="4.1127">
        <ele>442.225</ele>
        <time>2019-03-25T13:39:53Z</time>
      </trkpt>
      <trkpt lat="45.85208" lon="4.11271">
        <ele>441.807</ele>
        <time>2019-03-25T13:39:58Z</time>
      </trkpt>
      <trkpt lat="45.85202" lon="4.11274">
        <ele>442.02</ele>
        <time>2019-03-25T13:40:04Z</time>
      </trkpt>
      <trkpt lat="45.85196" lon="4.11277">
        <ele>442.277</ele>
        <time>2019-03-25T13:40:10Z</time>
      </trkpt>
      <trkpt lat="45.85189" lon="4.11278">
        <ele>442.728</ele>
        <time>2019-03-25T13:40:15Z</time>
      </trkpt>
      <trkpt lat="45.85184" lon="4.11279">
        <ele>443.13</ele>
        <time>2019-03-25T13:40:20Z</time>
      </trkpt>
      <trkpt lat="45.85175" lon="4.11275">
        <ele>443.237</ele>
        <time>2019-03-25T13:40:26Z</time>
      </trkpt>
      <trkpt lat="45.85172" lon="4.1127">
        <ele>443.383</ele>
        <time>2019-03-25T13:40:31Z</time>
      </trkpt>
      <trkpt lat="45.85172" lon="4.1126">
        <ele>443.171</ele>
        <time>2019-03-25T13:40:37Z</time>
      </trkpt>
      <trkpt lat="45.85171" lon="4.11252">
        <ele>442.701</ele>
        <time>2019-03-25T13:40:42Z</time>
      </trkpt>
      <trkpt lat="45.85168" lon="4.11239">
        <ele>442.385</ele>
        <time>2019-03-25T13:40:48Z</time>
      </trkpt>
      <trkpt lat="45.85168" lon="4.11232">
        <ele>441.718</ele>
        <time>2019-03-25T13:40:53Z</time>
      </trkpt>
      <trkpt lat="45.85164" lon="4.11222">
        <ele>441.033</ele>
        <time>2019-03-25T13:40:59Z</time>
      </trkpt>
      <trkpt lat="45.85163" lon="4.11214">
        <ele>440.782</ele>
        <time>2019-03-25T13:41:05Z</time>
      </trkpt>
      <trkpt lat="45.85159" lon="4.11205">
        <ele>441.207</ele>
        <time>2019-03-25T13:41:11Z</time>
      </trkpt>
      <trkpt lat="45.85157" lon="4.11197">
        <ele>441.385</ele>
        <time>2019-03-25T13:41:17Z</time>
      </trkpt>
      <trkpt lat="45.85154" lon="4.11185">
        <ele>441.21</ele>
        <time>2019-03-25T13:41:23Z</time>
      </trkpt>
      <trkpt lat="45.85151" lon="4.11177">
        <ele>440.691</ele>
        <time>2019-03-25T13:41:29Z</time>
      </trkpt>
      <trkpt lat="45.8515" lon="4.11167">
        <ele>440.479</ele>
        <time>2019-03-25T13:41:35Z</time>
      </trkpt>
      <trkpt lat="45.85147" lon="4.11159">
        <ele>440.192</ele>
        <time>2019-03-25T13:41:41Z</time>
      </trkpt>
      <trkpt lat="45.85144" lon="4.1115">
        <ele>439.964</ele>
        <time>2019-03-25T13:41:46Z</time>
      </trkpt>
      <trkpt lat="45.85141" lon="4.11143">
        <ele>439.785</ele>
        <time>2019-03-25T13:41:51Z</time>
      </trkpt>
      <trkpt lat="45.85139" lon="4.11133">
        <ele>439.764</ele>
        <time>2019-03-25T13:41:57Z</time>
      </trkpt>
      <trkpt lat="45.85137" lon="4.11126">
        <ele>439.962</ele>
        <time>2019-03-25T13:42:02Z</time>
      </trkpt>
      <trkpt lat="45.85134" lon="4.11116">
        <ele>440.15</ele>
        <time>2019-03-25T13:42:08Z</time>
      </trkpt>
      <trkpt lat="45.85132" lon="4.11108">
        <ele>440.375</ele>
        <time>2019-03-25T13:42:13Z</time>
      </trkpt>
      <trkpt lat="45.85129" lon="4.11098">
        <ele>440.29</ele>
        <time>2019-03-25T13:42:19Z</time>
      </trkpt>
      <trkpt lat="45.85127" lon="4.11092">
        <ele>440.108</ele>
        <time>2019-03-25T13:42:24Z</time>
      </trkpt>
      <trkpt lat="45.85124" lon="4.11083">
        <ele>440.005</ele>
        <time>2019-03-25T13:42:30Z</time>
      </trkpt>
      <trkpt lat="45.85123" lon="4.11073">
        <ele>439.749</ele>
        <time>2019-03-25T13:42:35Z</time>
      </trkpt>
      <trkpt lat="45.85121" lon="4.11066">
        <ele>439.775</ele>
        <time>2019-03-25T13:42:41Z</time>
      </trkpt>
      <trkpt lat="45.85118" lon="4.11057">
        <ele>439.856</ele>
        <time>2019-03-25T13:42:46Z</time>
      </trkpt>
      <trkpt lat="45.85117" lon="4.11048">
        <ele>439.975</ele>
        <time>2019-03-25T13:42:52Z</time>
      </trkpt>
      <trkpt lat="45.85115" lon="4.11039">
        <ele>440.138</ele>
        <time>2019-03-25T13:42:57Z</time>
      </trkpt>
      <trkpt lat="45.85113" lon="4.11029">
        <ele>439.775</ele>
        <time>2019-03-25T13:43:03Z</time>
      </trkpt>
      <trkpt lat="45.8511" lon="4.1102">
        <ele>439.494</ele>
        <time>2019-03-25T13:43:09Z</time>
      </trkpt>
      <trkpt lat="45.85109" lon="4.11014">
        <ele>439.448</ele>
        <time>2019-03-25T13:43:14Z</time>
      </trkpt>
      <trkpt lat="45.85108" lon="4.11007">
        <ele>439.736</ele>
        <time>2019-03-25T13:43:19Z</time>
      </trkpt>
      <trkpt lat="45.85108" lon="4.10998">
        <ele>440.191</ele>
        <time>2019-03-25T13:43:25Z</time>
      </trkpt>
      <trkpt lat="45.85108" lon="4.10989">
        <ele>440.677</ele>
        <time>2019-03-25T13:43:30Z</time>
      </trkpt>
      <trkpt lat="45.85108" lon="4.10978">
        <ele>441.135</ele>
        <time>2019-03-25T13:43:36Z</time>
      </trkpt>
      <trkpt lat="45.85107" lon="4.1097">
        <ele>441.212</ele>
        <time>2019-03-25T13:43:41Z</time>
      </trkpt>
      <trkpt lat="45.85105" lon="4.10961">
        <ele>441.684</ele>
        <time>2019-03-25T13:43:47Z</time>
      </trkpt>
      <trkpt lat="45.85106" lon="4.10948">
        <ele>441.823</ele>
        <time>2019-03-25T13:43:52Z</time>
      </trkpt>
      <trkpt lat="45.85108" lon="4.10941">
        <ele>441.568</ele>
        <time>2019-03-25T13:43:58Z</time>
      </trkpt>
      <trkpt lat="45.85109" lon="4.10934">
        <ele>441.354</ele>
        <time>2019-03-25T13:44:03Z</time>
      </trkpt>
      <trkpt lat="45.8511" lon="4.10925">
        <ele>440.874</ele>
        <time>2019-03-25T13:44:09Z</time>
      </trkpt>
      <trkpt lat="45.85112" lon="4.10916">
        <ele>440.51</ele>
        <time>2019-03-25T13:44:14Z</time>
      </trkpt>
      <trkpt lat="45.85113" lon="4.10908">
        <ele>439.897</ele>
        <time>2019-03-25T13:44:20Z</time>
      </trkpt>
      <trkpt lat="45.85114" lon="4.10898">
        <ele>439.57</ele>
        <time>2019-03-25T13:44:25Z</time>
      </trkpt>
      <trkpt lat="45.85116" lon="4.1089">
        <ele>439.349</ele>
        <time>2019-03-25T13:44:31Z</time>
      </trkpt>
      <trkpt lat="45.85118" lon="4.10879">
        <ele>439.645</ele>
        <time>2019-03-25T13:44:37Z</time>
      </trkpt>
      <trkpt lat="45.85119" lon="4.10869">
        <ele>439.733</ele>
        <time>2019-03-25T13:44:42Z</time>
      </trkpt>
      <trkpt lat="45.85122" lon="4.10861">
        <ele>439.584</ele>
        <time>2019-03-25T13:44:48Z</time>
      </trkpt>
      <trkpt lat="45.85124" lon="4.10854">
        <ele>439.44</ele>
        <time>2019-03-25T13:44:53Z</time>
      </trkpt>
      <trkpt lat="45.85127" lon="4.10849">
        <ele>439.409</ele>
        <time>2019-03-25T13:44:59Z</time>
      </trkpt>
      <trkpt lat="45.85131" lon="4.10842">
        <ele>439.101</ele>
        <time>2019-03-25T13:45:04Z</time>
      </trkpt>
      <trkpt lat="45.85133" lon="4.10834">
        <ele>438.752</ele>
        <time>2019-03-25T13:45:09Z</time>
      </trkpt>
      <trkpt lat="45.85135" lon="4.10822">
        <ele>438.487</ele>
        <time>2019-03-25T13:45:15Z</time>
      </trkpt>
      <trkpt lat="45.85139" lon="4.10813">
        <ele>438.169</ele>
        <time>2019-03-25T13:45:21Z</time>
      </trkpt>
      <trkpt lat="45.8514" lon="4.10805">
        <ele>437.737</ele>
        <time>2019-03-25T13:45:27Z</time>
      </trkpt>
      <trkpt lat="45.85143" lon="4.10795">
        <ele>437.24</ele>
        <time>2019-03-25T13:45:33Z</time>
      </trkpt>
      <trkpt lat="45.85145" lon="4.10787">
        <ele>436.717</ele>
        <time>2019-03-25T13:45:39Z</time>
      </trkpt>
      <trkpt lat="45.85148" lon="4.10778">
        <ele>436.711</ele>
        <time>2019-03-25T13:45:44Z</time>
      </trkpt>
      <trkpt lat="45.85149" lon="4.10769">
        <ele>436.821</ele>
        <time>2019-03-25T13:45:50Z</time>
      </trkpt>
      <trkpt lat="45.85149" lon="4.10758">
        <ele>436.845</ele>
        <time>2019-03-25T13:45:56Z</time>
      </trkpt>
      <trkpt lat="45.85149" lon="4.10751">
        <ele>436.807</ele>
        <time>2019-03-25T13:46:01Z</time>
      </trkpt>
      <trkpt lat="45.85149" lon="4.1074">
        <ele>436.243</ele>
        <time>2019-03-25T13:46:07Z</time>
      </trkpt>
      <trkpt lat="45.85149" lon="4.1073">
        <ele>435.664</ele>
        <time>2019-03-25T13:46:12Z</time>
      </trkpt>
      <trkpt lat="45.85149" lon="4.10722">
        <ele>435.126</ele>
        <time>2019-03-25T13:46:17Z</time>
      </trkpt>
      <trkpt lat="45.85151" lon="4.10712">
        <ele>435.021</ele>
        <time>2019-03-25T13:46:23Z</time>
      </trkpt>
      <trkpt lat="45.85152" lon="4.10704">
        <ele>434.994</ele>
        <time>2019-03-25T13:46:29Z</time>
      </trkpt>
      <trkpt lat="45.85153" lon="4.10697">
        <ele>435.255</ele>
        <time>2019-03-25T13:46:34Z</time>
      </trkpt>
      <trkpt lat="45.85155" lon="4.10688">
        <ele>434.87</ele>
        <time>2019-03-25T13:46:39Z</time>
      </trkpt>
      <trkpt lat="45.85158" lon="4.1068">
        <ele>434.435</ele>
        <time>2019-03-25T13:46:46Z</time>
      </trkpt>
      <trkpt lat="45.85159" lon="4.10674">
        <ele>434.071</ele>
        <time>2019-03-25T13:46:51Z</time>
      </trkpt>
      <trkpt lat="45.85164" lon="4.10669">
        <ele>434.015</ele>
        <time>2019-03-25T13:46:58Z</time>
      </trkpt>
      <trkpt lat="45.8517" lon="4.1066">
        <ele>433.848</ele>
        <time>2019-03-25T13:47:03Z</time>
      </trkpt>
      <trkpt lat="45.85174" lon="4.10656">
        <ele>433.252</ele>
        <time>2019-03-25T13:47:09Z</time>
      </trkpt>
      <trkpt lat="45.85178" lon="4.10652">
        <ele>432.985</ele>
        <time>2019-03-25T13:47:14Z</time>
      </trkpt>
      <trkpt lat="45.85182" lon="4.10648">
        <ele>433.231</ele>
        <time>2019-03-25T13:47:20Z</time>
      </trkpt>
      <trkpt lat="45.85187" lon="4.10648">
        <ele>433.588</ele>
        <time>2019-03-25T13:47:26Z</time>
      </trkpt>
      <trkpt lat="45.85192" lon="4.10647">
        <ele>434.439</ele>
        <time>2019-03-25T13:47:32Z</time>
      </trkpt>
      <trkpt lat="45.85193" lon="4.10645">
        <ele>434.863</ele>
        <time>2019-03-25T13:47:37Z</time>
      </trkpt>
      <trkpt lat="45.85196" lon="4.10643">
        <ele>435.481</ele>
        <time>2019-03-25T13:47:43Z</time>
      </trkpt>
      <trkpt lat="45.85199" lon="4.10642">
        <ele>435.277</ele>
        <time>2019-03-25T13:47:48Z</time>
      </trkpt>
      <trkpt lat="45.85203" lon="4.10638">
        <ele>434.71</ele>
        <time>2019-03-25T13:47:55Z</time>
      </trkpt>
      <trkpt lat="45.85208" lon="4.10635">
        <ele>434.779</ele>
        <time>2019-03-25T13:48:01Z</time>
      </trkpt>
      <trkpt lat="45.85212" lon="4.10634">
        <ele>435.009</ele>
        <time>2019-03-25T13:48:07Z</time>
      </trkpt>
      <trkpt lat="45.85217" lon="4.10629">
        <ele>435.362</ele>
        <time>2019-03-25T13:48:13Z</time>
      </trkpt>
      <trkpt lat="45.85228" lon="4.1062">
        <ele>435.796</ele>
        <time>2019-03-25T13:48:18Z</time>
      </trkpt>
      <trkpt lat="45.85229" lon="4.10619">
        <ele>435.859</ele>
        <time>2019-03-25T13:48:24Z</time>
      </trkpt>
      <trkpt lat="45.85232" lon="4.10616">
        <ele>436.01</ele>
        <time>2019-03-25T13:48:29Z</time>
      </trkpt>
      <trkpt lat="45.85235" lon="4.10614">
        <ele>436.825</ele>
        <time>2019-03-25T13:48:35Z</time>
      </trkpt>
      <trkpt lat="45.8524" lon="4.10612">
        <ele>437.075</ele>
        <time>2019-03-25T13:48:40Z</time>
      </trkpt>
      <trkpt lat="45.85244" lon="4.10608">
        <ele>436.904</ele>
        <time>2019-03-25T13:48:45Z</time>
      </trkpt>
      <trkpt lat="45.8525" lon="4.10606">
        <ele>437.898</ele>
        <time>2019-03-25T13:48:50Z</time>
      </trkpt>
      <trkpt lat="45.85255" lon="4.10602">
        <ele>438.76</ele>
        <time>2019-03-25T13:48:56Z</time>
      </trkpt>
      <trkpt lat="45.85262" lon="4.10599">
        <ele>439.229</ele>
        <time>2019-03-25T13:49:02Z</time>
      </trkpt>
      <trkpt lat="45.85264" lon="4.10594">
        <ele>439.681</ele>
        <time>2019-03-25T13:49:07Z</time>
      </trkpt>
      <trkpt lat="45.8527" lon="4.10588">
        <ele>440.31</ele>
        <time>2019-03-25T13:49:13Z</time>
      </trkpt>
      <trkpt lat="45.85275" lon="4.10586">
        <ele>441.18</ele>
        <time>2019-03-25T13:49:18Z</time>
      </trkpt>
      <trkpt lat="45.8528" lon="4.10585">
        <ele>442.675</ele>
        <time>2019-03-25T13:49:24Z</time>
      </trkpt>
      <trkpt lat="45.85284" lon="4.10582">
        <ele>443.709</ele>
        <time>2019-03-25T13:49:30Z</time>
      </trkpt>
      <trkpt lat="45.85287" lon="4.10581">
        <ele>444.689</ele>
        <time>2019-03-25T13:49:35Z</time>
      </trkpt>
      <trkpt lat="45.85295" lon="4.10577">
        <ele>445.722</ele>
        <time>2019-03-25T13:49:41Z</time>
      </trkpt>
      <trkpt lat="45.85301" lon="4.10574">
        <ele>446.293</ele>
        <time>2019-03-25T13:49:46Z</time>
      </trkpt>
      <trkpt lat="45.85306" lon="4.10571">
        <ele>446.399</ele>
        <time>2019-03-25T13:49:52Z</time>
      </trkpt>
      <trkpt lat="45.85311" lon="4.10565">
        <ele>446.285</ele>
        <time>2019-03-25T13:49:58Z</time>
      </trkpt>
      <trkpt lat="45.8532" lon="4.1055">
        <ele>445.849</ele>
        <time>2019-03-25T13:50:04Z</time>
      </trkpt>
      <trkpt lat="45.85325" lon="4.10541">
        <ele>444.259</ele>
        <time>2019-03-25T13:50:10Z</time>
      </trkpt>
      <trkpt lat="45.85331" lon="4.10537">
        <ele>443.765</ele>
        <time>2019-03-25T13:50:16Z</time>
      </trkpt>
      <trkpt lat="45.85337" lon="4.10531">
        <ele>444.638</ele>
        <time>2019-03-25T13:50:22Z</time>
      </trkpt>
      <trkpt lat="45.85343" lon="4.10529">
        <ele>445.139</ele>
        <time>2019-03-25T13:50:27Z</time>
      </trkpt>
      <trkpt lat="45.85346" lon="4.10525">
        <ele>445.3</ele>
        <time>2019-03-25T13:50:32Z</time>
      </trkpt>
      <trkpt lat="45.8535" lon="4.10521">
        <ele>444.954</ele>
        <time>2019-03-25T13:50:38Z</time>
      </trkpt>
      <trkpt lat="45.85357" lon="4.10514">
        <ele>444.975</ele>
        <time>2019-03-25T13:50:44Z</time>
      </trkpt>
      <trkpt lat="45.85361" lon="4.10507">
        <ele>444.658</ele>
        <time>2019-03-25T13:50:50Z</time>
      </trkpt>
      <trkpt lat="45.85366" lon="4.10504">
        <ele>444.205</ele>
        <time>2019-03-25T13:50:56Z</time>
      </trkpt>
      <trkpt lat="45.85373" lon="4.10498">
        <ele>443.494</ele>
        <time>2019-03-25T13:51:02Z</time>
      </trkpt>
      <trkpt lat="45.85379" lon="4.10491">
        <ele>442.029</ele>
        <time>2019-03-25T13:51:07Z</time>
      </trkpt>
      <trkpt lat="45.85382" lon="4.10483">
        <ele>441.036</ele>
        <time>2019-03-25T13:51:12Z</time>
      </trkpt>
      <trkpt lat="45.8539" lon="4.10468">
        <ele>439.718</ele>
        <time>2019-03-25T13:51:18Z</time>
      </trkpt>
      <trkpt lat="45.85394" lon="4.10458">
        <ele>438.578</ele>
        <time>2019-03-25T13:51:24Z</time>
      </trkpt>
      <trkpt lat="45.85397" lon="4.10447">
        <ele>436.845</ele>
        <time>2019-03-25T13:51:30Z</time>
      </trkpt>
      <trkpt lat="45.854" lon="4.10441">
        <ele>434.979</ele>
        <time>2019-03-25T13:51:35Z</time>
      </trkpt>
      <trkpt lat="45.85404" lon="4.10431">
        <ele>433.668</ele>
        <time>2019-03-25T13:51:41Z</time>
      </trkpt>
      <trkpt lat="45.85403" lon="4.10423">
        <ele>432.221</ele>
        <time>2019-03-25T13:51:47Z</time>
      </trkpt>
      <trkpt lat="45.85405" lon="4.10417">
        <ele>430.645</ele>
        <time>2019-03-25T13:51:52Z</time>
      </trkpt>
      <trkpt lat="45.85406" lon="4.10408">
        <ele>429.938</ele>
        <time>2019-03-25T13:51:58Z</time>
      </trkpt>
      <trkpt lat="45.85406" lon="4.10403">
        <ele>429.979</ele>
        <time>2019-03-25T13:52:03Z</time>
      </trkpt>
      <trkpt lat="45.85407" lon="4.10388">
        <ele>430.15</ele>
        <time>2019-03-25T13:52:09Z</time>
      </trkpt>
      <trkpt lat="45.85409" lon="4.1038">
        <ele>430.423</ele>
        <time>2019-03-25T13:52:14Z</time>
      </trkpt>
      <trkpt lat="45.85416" lon="4.10372">
        <ele>429.608</ele>
        <time>2019-03-25T13:52:20Z</time>
      </trkpt>
      <trkpt lat="45.85422" lon="4.10366">
        <ele>428.945</ele>
        <time>2019-03-25T13:52:26Z</time>
      </trkpt>
      <trkpt lat="45.85426" lon="4.1036">
        <ele>428.984</ele>
        <time>2019-03-25T13:52:32Z</time>
      </trkpt>
      <trkpt lat="45.85432" lon="4.10352">
        <ele>429.375</ele>
        <time>2019-03-25T13:52:38Z</time>
      </trkpt>
      <trkpt lat="45.85436" lon="4.10347">
        <ele>429.35</ele>
        <time>2019-03-25T13:52:44Z</time>
      </trkpt>
      <trkpt lat="45.85436" lon="4.10341">
        <ele>428.938</ele>
        <time>2019-03-25T13:52:50Z</time>
      </trkpt>
      <trkpt lat="45.85441" lon="4.10327">
        <ele>428.38</ele>
        <time>2019-03-25T13:52:56Z</time>
      </trkpt>
      <trkpt lat="45.85446" lon="4.10319">
        <ele>427.903</ele>
        <time>2019-03-25T13:53:01Z</time>
      </trkpt>
      <trkpt lat="45.85451" lon="4.10311">
        <ele>426.828</ele>
        <time>2019-03-25T13:53:07Z</time>
      </trkpt>
      <trkpt lat="45.85455" lon="4.10303">
        <ele>425.997</ele>
        <time>2019-03-25T13:53:13Z</time>
      </trkpt>
      <trkpt lat="45.85461" lon="4.103">
        <ele>425.447</ele>
        <time>2019-03-25T13:53:18Z</time>
      </trkpt>
      <trkpt lat="45.8547" lon="4.10302">
        <ele>425.91</ele>
        <time>2019-03-25T13:53:24Z</time>
      </trkpt>
      <trkpt lat="45.85472" lon="4.10302">
        <ele>426.615</ele>
        <time>2019-03-25T13:53:30Z</time>
      </trkpt>
      <trkpt lat="45.8548" lon="4.10302">
        <ele>427.07</ele>
        <time>2019-03-25T13:53:36Z</time>
      </trkpt>
      <trkpt lat="45.85489" lon="4.10295">
        <ele>427.014</ele>
        <time>2019-03-25T13:53:42Z</time>
      </trkpt>
      <trkpt lat="45.85494" lon="4.10291">
        <ele>427.339</ele>
        <time>2019-03-25T13:53:47Z</time>
      </trkpt>
      <trkpt lat="45.85496" lon="4.10283">
        <ele>427.95</ele>
        <time>2019-03-25T13:53:53Z</time>
      </trkpt>
      <trkpt lat="45.85497" lon="4.10279">
        <ele>427.825</ele>
        <time>2019-03-25T13:53:58Z</time>
      </trkpt>
      <trkpt lat="45.85502" lon="4.10273">
        <ele>428.069</ele>
        <time>2019-03-25T13:54:04Z</time>
      </trkpt>
      <trkpt lat="45.85507" lon="4.10267">
        <ele>427.6</ele>
        <time>2019-03-25T13:54:09Z</time>
      </trkpt>
      <trkpt lat="45.8551" lon="4.10261">
        <ele>427.767</ele>
        <time>2019-03-25T13:54:15Z</time>
      </trkpt>
      <trkpt lat="45.85513" lon="4.10254">
        <ele>427.735</ele>
        <time>2019-03-25T13:54:20Z</time>
      </trkpt>
      <trkpt lat="45.85519" lon="4.10248">
        <ele>427.972</ele>
        <time>2019-03-25T13:54:25Z</time>
      </trkpt>
      <trkpt lat="45.85527" lon="4.10241">
        <ele>428.332</ele>
        <time>2019-03-25T13:54:31Z</time>
      </trkpt>
      <trkpt lat="45.85534" lon="4.10232">
        <ele>428.484</ele>
        <time>2019-03-25T13:54:37Z</time>
      </trkpt>
      <trkpt lat="45.85538" lon="4.10228">
        <ele>428.916</ele>
        <time>2019-03-25T13:54:42Z</time>
      </trkpt>
      <trkpt lat="45.85547" lon="4.1022">
        <ele>429.364</ele>
        <time>2019-03-25T13:54:48Z</time>
      </trkpt>
      <trkpt lat="45.85554" lon="4.10213">
        <ele>429.099</ele>
        <time>2019-03-25T13:54:54Z</time>
      </trkpt>
      <trkpt lat="45.85557" lon="4.1021">
        <ele>428.795</ele>
        <time>2019-03-25T13:54:59Z</time>
      </trkpt>
      <trkpt lat="45.8556" lon="4.10208">
        <ele>428.91</ele>
        <time>2019-03-25T13:55:05Z</time>
      </trkpt>
      <trkpt lat="45.85565" lon="4.10205">
        <ele>429.38</ele>
        <time>2019-03-25T13:55:10Z</time>
      </trkpt>
      <trkpt lat="45.8557" lon="4.10204">
        <ele>429.955</ele>
        <time>2019-03-25T13:55:16Z</time>
      </trkpt>
      <trkpt lat="45.85576" lon="4.10202">
        <ele>430.632</ele>
        <time>2019-03-25T13:55:21Z</time>
      </trkpt>
      <trkpt lat="45.85581" lon="4.10199">
        <ele>431.11</ele>
        <time>2019-03-25T13:55:27Z</time>
      </trkpt>
      <trkpt lat="45.8559" lon="4.10195">
        <ele>431.513</ele>
        <time>2019-03-25T13:55:33Z</time>
      </trkpt>
      <trkpt lat="45.85598" lon="4.10194">
        <ele>431.84</ele>
        <time>2019-03-25T13:55:38Z</time>
      </trkpt>
      <trkpt lat="45.85605" lon="4.10193">
        <ele>432.184</ele>
        <time>2019-03-25T13:55:43Z</time>
      </trkpt>
      <trkpt lat="45.85608" lon="4.10186">
        <ele>432.642</ele>
        <time>2019-03-25T13:55:49Z</time>
      </trkpt>
      <trkpt lat="45.85618" lon="4.10185">
        <ele>433.131</ele>
        <time>2019-03-25T13:55:54Z</time>
      </trkpt>
      <trkpt lat="45.85623" lon="4.10182">
        <ele>433.516</ele>
        <time>2019-03-25T13:56:00Z</time>
      </trkpt>
      <trkpt lat="45.85629" lon="4.10181">
        <ele>433.933</ele>
        <time>2019-03-25T13:56:06Z</time>
      </trkpt>
      <trkpt lat="45.85637" lon="4.1018">
        <ele>434.104</ele>
        <time>2019-03-25T13:56:11Z</time>
      </trkpt>
      <trkpt lat="45.85643" lon="4.10177">
        <ele>434.098</ele>
        <time>2019-03-25T13:56:17Z</time>
      </trkpt>
      <trkpt lat="45.85646" lon="4.10176">
        <ele>433.721</ele>
        <time>2019-03-25T13:56:22Z</time>
      </trkpt>
      <trkpt lat="45.85651" lon="4.10174">
        <ele>433.68</ele>
        <time>2019-03-25T13:56:27Z</time>
      </trkpt>
      <trkpt lat="45.85655" lon="4.10173">
        <ele>433.822</ele>
        <time>2019-03-25T13:56:33Z</time>
      </trkpt>
      <trkpt lat="45.85663" lon="4.10173">
        <ele>433.838</ele>
        <time>2019-03-25T13:56:39Z</time>
      </trkpt>
      <trkpt lat="45.85669" lon="4.10171">
        <ele>432.654</ele>
        <time>2019-03-25T13:56:45Z</time>
      </trkpt>
      <trkpt lat="45.85676" lon="4.10171">
        <ele>431.318</ele>
        <time>2019-03-25T13:56:50Z</time>
      </trkpt>
      <trkpt lat="45.85683" lon="4.10168">
        <ele>429.984</ele>
        <time>2019-03-25T13:56:56Z</time>
      </trkpt>
      <trkpt lat="45.85689" lon="4.10168">
        <ele>429.023</ele>
        <time>2019-03-25T13:57:01Z</time>
      </trkpt>
      <trkpt lat="45.85693" lon="4.10168">
        <ele>427.512</ele>
        <time>2019-03-25T13:57:07Z</time>
      </trkpt>
      <trkpt lat="45.85697" lon="4.10167">
        <ele>426.413</ele>
        <time>2019-03-25T13:57:13Z</time>
      </trkpt>
      <trkpt lat="45.85703" lon="4.10165">
        <ele>425.979</ele>
        <time>2019-03-25T13:57:18Z</time>
      </trkpt>
      <trkpt lat="45.85712" lon="4.10166">
        <ele>425.428</ele>
        <time>2019-03-25T13:57:23Z</time>
      </trkpt>
      <trkpt lat="45.85716" lon="4.10163">
        <ele>425.788</ele>
        <time>2019-03-25T13:57:29Z</time>
      </trkpt>
      <trkpt lat="45.85719" lon="4.1016">
        <ele>425.774</ele>
        <time>2019-03-25T13:57:35Z</time>
      </trkpt>
      <trkpt lat="45.85722" lon="4.10158">
        <ele>426.268</ele>
        <time>2019-03-25T13:57:40Z</time>
      </trkpt>
      <trkpt lat="45.85732" lon="4.10157">
        <ele>427.226</ele>
        <time>2019-03-25T13:57:46Z</time>
      </trkpt>
      <trkpt lat="45.8574" lon="4.10154">
        <ele>427.955</ele>
        <time>2019-03-25T13:57:52Z</time>
      </trkpt>
      <trkpt lat="45.85748" lon="4.10151">
        <ele>428.15</ele>
        <time>2019-03-25T13:57:57Z</time>
      </trkpt>
      <trkpt lat="45.85754" lon="4.1015">
        <ele>428.472</ele>
        <time>2019-03-25T13:58:03Z</time>
      </trkpt>
      <trkpt lat="45.85757" lon="4.10149">
        <ele>428.583</ele>
        <time>2019-03-25T13:58:09Z</time>
      </trkpt>
      <trkpt lat="45.85765" lon="4.10149">
        <ele>428.772</ele>
        <time>2019-03-25T13:58:15Z</time>
      </trkpt>
      <trkpt lat="45.85773" lon="4.10149">
        <ele>429.166</ele>
        <time>2019-03-25T13:58:21Z</time>
      </trkpt>
      <trkpt lat="45.85777" lon="4.10149">
        <ele>429.795</ele>
        <time>2019-03-25T13:58:26Z</time>
      </trkpt>
      <trkpt lat="45.85784" lon="4.10146">
        <ele>429.815</ele>
        <time>2019-03-25T13:58:32Z</time>
      </trkpt>
      <trkpt lat="45.85788" lon="4.10144">
        <ele>429.595</ele>
        <time>2019-03-25T13:58:37Z</time>
      </trkpt>
      <trkpt lat="45.85792" lon="4.10141">
        <ele>429.487</ele>
        <time>2019-03-25T13:58:43Z</time>
      </trkpt>
      <trkpt lat="45.85801" lon="4.10137">
        <ele>429.599</ele>
        <time>2019-03-25T13:58:49Z</time>
      </trkpt>
      <trkpt lat="45.85807" lon="4.10135">
        <ele>429.525</ele>
        <time>2019-03-25T13:58:54Z</time>
      </trkpt>
      <trkpt lat="45.85812" lon="4.10135">
        <ele>430.123</ele>
        <time>2019-03-25T13:58:59Z</time>
      </trkpt>
      <trkpt lat="45.85818" lon="4.10134">
        <ele>431.366</ele>
        <time>2019-03-25T13:59:05Z</time>
      </trkpt>
      <trkpt lat="45.85828" lon="4.10134">
        <ele>431.58</ele>
        <time>2019-03-25T13:59:10Z</time>
      </trkpt>
      <trkpt lat="45.85833" lon="4.10135">
        <ele>432.111</ele>
        <time>2019-03-25T13:59:16Z</time>
      </trkpt>
      <trkpt lat="45.85837" lon="4.10138">
        <ele>432.113</ele>
        <time>2019-03-25T13:59:21Z</time>
      </trkpt>
      <trkpt lat="45.85845" lon="4.1014">
        <ele>431.834</ele>
        <time>2019-03-25T13:59:27Z</time>
      </trkpt>
      <trkpt lat="45.85852" lon="4.10137">
        <ele>431.794</ele>
        <time>2019-03-25T13:59:33Z</time>
      </trkpt>
      <trkpt lat="45.85856" lon="4.10136">
        <ele>431.362</ele>
        <time>2019-03-25T13:59:38Z</time>
      </trkpt>
      <trkpt lat="45.85862" lon="4.10134">
        <ele>431.341</ele>
        <time>2019-03-25T13:59:44Z</time>
      </trkpt>
      <trkpt lat="45.85869" lon="4.10135">
        <ele>431.32</ele>
        <time>2019-03-25T13:59:49Z</time>
      </trkpt>
      <trkpt lat="45.85872" lon="4.10135">
        <ele>431.033</ele>
        <time>2019-03-25T13:59:55Z</time>
      </trkpt>
      <trkpt lat="45.8588" lon="4.10135">
        <ele>430.858</ele>
        <time>2019-03-25T14:00:00Z</time>
      </trkpt>
      <trkpt lat="45.85887" lon="4.10138">
        <ele>430.784</ele>
        <time>2019-03-25T14:00:06Z</time>
      </trkpt>
      <trkpt lat="45.85893" lon="4.10141">
        <ele>430.64</ele>
        <time>2019-03-25T14:00:11Z</time>
      </trkpt>
      <trkpt lat="45.859" lon="4.1014">
        <ele>430.29</ele>
        <time>2019-03-25T14:00:17Z</time>
      </trkpt>
      <trkpt lat="45.85904" lon="4.1014">
        <ele>430.309</ele>
        <time>2019-03-25T14:00:22Z</time>
      </trkpt>
      <trkpt lat="45.85912" lon="4.1014">
        <ele>430.633</ele>
        <time>2019-03-25T14:00:28Z</time>
      </trkpt>
      <trkpt lat="45.85917" lon="4.1014">
        <ele>431.175</ele>
        <time>2019-03-25T14:00:34Z</time>
      </trkpt>
      <trkpt lat="45.85925" lon="4.10141">
        <ele>430.966</ele>
        <time>2019-03-25T14:00:39Z</time>
      </trkpt>
      <trkpt lat="45.8593" lon="4.10139">
        <ele>430.274</ele>
        <time>2019-03-25T14:00:45Z</time>
      </trkpt>
      <trkpt lat="45.85934" lon="4.10138">
        <ele>429.977</ele>
        <time>2019-03-25T14:00:50Z</time>
      </trkpt>
      <trkpt lat="45.85941" lon="4.10136">
        <ele>430.37</ele>
        <time>2019-03-25T14:00:56Z</time>
      </trkpt>
      <trkpt lat="45.85946" lon="4.10134">
        <ele>429.938</ele>
        <time>2019-03-25T14:01:01Z</time>
      </trkpt>
      <trkpt lat="45.85954" lon="4.10131">
        <ele>430.159</ele>
        <time>2019-03-25T14:01:07Z</time>
      </trkpt>
      <trkpt lat="45.85957" lon="4.10129">
        <ele>430.387</ele>
        <time>2019-03-25T14:01:13Z</time>
      </trkpt>
      <trkpt lat="45.85962" lon="4.10125">
        <ele>430.918</ele>
        <time>2019-03-25T14:01:18Z</time>
      </trkpt>
      <trkpt lat="45.85967" lon="4.10122">
        <ele>431.417</ele>
        <time>2019-03-25T14:01:24Z</time>
      </trkpt>
      <trkpt lat="45.85973" lon="4.10121">
        <ele>431.332</ele>
        <time>2019-03-25T14:01:29Z</time>
      </trkpt>
      <trkpt lat="45.85979" lon="4.10119">
        <ele>431.051</ele>
        <time>2019-03-25T14:01:34Z</time>
      </trkpt>
      <trkpt lat="45.85984" lon="4.10119">
        <ele>431.156</ele>
        <time>2019-03-25T14:01:39Z</time>
      </trkpt>
      <trkpt lat="45.8599" lon="4.10116">
        <ele>431.301</ele>
        <time>2019-03-25T14:01:45Z</time>
      </trkpt>
      <trkpt lat="45.85994" lon="4.10113">
        <ele>431.394</ele>
        <time>2019-03-25T14:01:51Z</time>
      </trkpt>
      <trkpt lat="45.85999" lon="4.1011">
        <ele>431.391</ele>
        <time>2019-03-25T14:01:57Z</time>
      </trkpt>
      <trkpt lat="45.86003" lon="4.10107">
        <ele>431.318</ele>
        <time>2019-03-25T14:02:03Z</time>
      </trkpt>
      <trkpt lat="45.86006" lon="4.10103">
        <ele>431.263</ele>
        <time>2019-03-25T14:02:08Z</time>
      </trkpt>
      <trkpt lat="45.86012" lon="4.10098">
        <ele>431.859</ele>
        <time>2019-03-25T14:02:14Z</time>
      </trkpt>
      <trkpt lat="45.86017" lon="4.10092">
        <ele>431.465</ele>
        <time>2019-03-25T14:02:19Z</time>
      </trkpt>
      <trkpt lat="45.86019" lon="4.10089">
        <ele>431.426</ele>
        <time>2019-03-25T14:02:24Z</time>
      </trkpt>
      <trkpt lat="45.86026" lon="4.10085">
        <ele>431.777</ele>
        <time>2019-03-25T14:02:30Z</time>
      </trkpt>
      <trkpt lat="45.8603" lon="4.10083">
        <ele>432.069</ele>
        <time>2019-03-25T14:02:35Z</time>
      </trkpt>
      <trkpt lat="45.86035" lon="4.10075">
        <ele>432.136</ele>
        <time>2019-03-25T14:02:40Z</time>
      </trkpt>
      <trkpt lat="45.86039" lon="4.10065">
        <ele>431.916</ele>
        <time>2019-03-25T14:02:46Z</time>
      </trkpt>
      <trkpt lat="45.86045" lon="4.1006">
        <ele>431.976</ele>
        <time>2019-03-25T14:02:52Z</time>
      </trkpt>
      <trkpt lat="45.8605" lon="4.10054">
        <ele>431.973</ele>
        <time>2019-03-25T14:02:58Z</time>
      </trkpt>
      <trkpt lat="45.86055" lon="4.1005">
        <ele>431.637</ele>
        <time>2019-03-25T14:03:03Z</time>
      </trkpt>
      <trkpt lat="45.86056" lon="4.10042">
        <ele>430.909</ele>
        <time>2019-03-25T14:03:08Z</time>
      </trkpt>
      <trkpt lat="45.86061" lon="4.10037">
        <ele>431.003</ele>
        <time>2019-03-25T14:03:14Z</time>
      </trkpt>
      <trkpt lat="45.86067" lon="4.10033">
        <ele>431.039</ele>
        <time>2019-03-25T14:03:20Z</time>
      </trkpt>
      <trkpt lat="45.86071" lon="4.10031">
        <ele>431.186</ele>
        <time>2019-03-25T14:03:25Z</time>
      </trkpt>
      <trkpt lat="45.86076" lon="4.10026">
        <ele>431.797</ele>
        <time>2019-03-25T14:03:31Z</time>
      </trkpt>
      <trkpt lat="45.86079" lon="4.10018">
        <ele>432.104</ele>
        <time>2019-03-25T14:03:37Z</time>
      </trkpt>
      <trkpt lat="45.86084" lon="4.1001">
        <ele>433.025</ele>
        <time>2019-03-25T14:03:43Z</time>
      </trkpt>
      <trkpt lat="45.86087" lon="4.10005">
        <ele>433.231</ele>
        <time>2019-03-25T14:03:48Z</time>
      </trkpt>
      <trkpt lat="45.86092" lon="4.1">
        <ele>433.622</ele>
        <time>2019-03-25T14:03:53Z</time>
      </trkpt>
      <trkpt lat="45.86097" lon="4.09994">
        <ele>433.582</ele>
        <time>2019-03-25T14:03:59Z</time>
      </trkpt>
      <trkpt lat="45.86099" lon="4.09987">
        <ele>433.297</ele>
        <time>2019-03-25T14:04:04Z</time>
      </trkpt>
      <trkpt lat="45.86104" lon="4.09974">
        <ele>432.807</ele>
        <time>2019-03-25T14:04:10Z</time>
      </trkpt>
      <trkpt lat="45.86104" lon="4.0997">
        <ele>432.8</ele>
        <time>2019-03-25T14:04:15Z</time>
      </trkpt>
      <trkpt lat="45.86105" lon="4.09965">
        <ele>433.282</ele>
        <time>2019-03-25T14:04:21Z</time>
      </trkpt>
      <trkpt lat="45.86106" lon="4.09958">
        <ele>433.546</ele>
        <time>2019-03-25T14:04:27Z</time>
      </trkpt>
      <trkpt lat="45.86107" lon="4.09954">
        <ele>433.783</ele>
        <time>2019-03-25T14:04:32Z</time>
      </trkpt>
      <trkpt lat="45.86107" lon="4.09953">
        <ele>433.573</ele>
        <time>2019-03-25T14:04:37Z</time>
      </trkpt>
      <trkpt lat="45.8611" lon="4.09951">
        <ele>432.571</ele>
        <time>2019-03-25T14:04:43Z</time>
      </trkpt>
      <trkpt lat="45.86114" lon="4.09954">
        <ele>432.247</ele>
        <time>2019-03-25T14:04:49Z</time>
      </trkpt>
      <trkpt lat="45.86114" lon="4.09956">
        <ele>431.609</ele>
        <time>2019-03-25T14:04:55Z</time>
      </trkpt>
      <trkpt lat="45.86114" lon="4.09955">
        <ele>431.374</ele>
        <time>2019-03-25T14:05:00Z</time>
      </trkpt>
      <trkpt lat="45.86113" lon="4.09953">
        <ele>431.278</ele>
        <time>2019-03-25T14:05:06Z</time>
      </trkpt>
      <trkpt lat="45.86112" lon="4.09952">
        <ele>431.241</ele>
        <time>2019-03-25T14:05:12Z</time>
      </trkpt>
      <trkpt lat="45.8611" lon="4.09953">
        <ele>431.484</ele>
        <time>2019-03-25T14:05:17Z</time>
      </trkpt>
      <trkpt lat="45.86111" lon="4.09953">
        <ele>431.569</ele>
        <time>2019-03-25T14:05:22Z</time>
      </trkpt>
      <trkpt lat="45.86115" lon="4.09952">
        <ele>431.452</ele>
        <time>2019-03-25T14:05:28Z</time>
      </trkpt>
      <trkpt lat="45.86118" lon="4.09953">
        <ele>431.515</ele>
        <time>2019-03-25T14:05:33Z</time>
      </trkpt>
      <trkpt lat="45.86116" lon="4.09956">
        <ele>431.892</ele>
        <time>2019-03-25T14:05:38Z</time>
      </trkpt>
      <trkpt lat="45.86115" lon="4.09959">
        <ele>432.876</ele>
        <time>2019-03-25T14:05:43Z</time>
      </trkpt>
      <trkpt lat="45.86116" lon="4.09959">
        <ele>434.538</ele>
        <time>2019-03-25T14:05:49Z</time>
      </trkpt>
      <trkpt lat="45.86115" lon="4.09956">
        <ele>435.471</ele>
        <time>2019-03-25T14:05:54Z</time>
      </trkpt>
      <trkpt lat="45.86115" lon="4.09953">
        <ele>435.612</ele>
        <time>2019-03-25T14:05:59Z</time>
      </trkpt>
      <trkpt lat="45.86115" lon="4.09952">
        <ele>434.888</ele>
        <time>2019-03-25T14:06:05Z</time>
      </trkpt>
      <trkpt lat="45.86117" lon="4.09951">
        <ele>434.558</ele>
        <time>2019-03-25T14:06:10Z</time>
      </trkpt>
      <trkpt lat="45.86118" lon="4.09945">
        <ele>433.787</ele>
        <time>2019-03-25T14:06:16Z</time>
      </trkpt>
      <trkpt lat="45.8612" lon="4.09936">
        <ele>433.62</ele>
        <time>2019-03-25T14:06:22Z</time>
      </trkpt>
      <trkpt lat="45.86121" lon="4.09927">
        <ele>433.899</ele>
        <time>2019-03-25T14:06:28Z</time>
      </trkpt>
      <trkpt lat="45.86123" lon="4.09919">
        <ele>434.194</ele>
        <time>2019-03-25T14:06:33Z</time>
      </trkpt>
      <trkpt lat="45.86124" lon="4.09915">
        <ele>434.808</ele>
        <time>2019-03-25T14:06:39Z</time>
      </trkpt>
      <trkpt lat="45.86125" lon="4.09912">
        <ele>436.079</ele>
        <time>2019-03-25T14:06:44Z</time>
      </trkpt>
      <trkpt lat="45.86127" lon="4.09908">
        <ele>437.128</ele>
        <time>2019-03-25T14:06:49Z</time>
      </trkpt>
      <trkpt lat="45.86129" lon="4.09909">
        <ele>438.316</ele>
        <time>2019-03-25T14:06:54Z</time>
      </trkpt>
      <trkpt lat="45.86136" lon="4.09907">
        <ele>439.701</ele>
        <time>2019-03-25T14:07:00Z</time>
      </trkpt>
      <trkpt lat="45.86142" lon="4.09899">
        <ele>440.259</ele>
        <time>2019-03-25T14:07:06Z</time>
      </trkpt>
      <trkpt lat="45.86147" lon="4.09894">
        <ele>440.147</ele>
        <time>2019-03-25T14:07:11Z</time>
      </trkpt>
      <trkpt lat="45.86151" lon="4.09893">
        <ele>440.435</ele>
        <time>2019-03-25T14:07:17Z</time>
      </trkpt>
      <trkpt lat="45.86152" lon="4.09889">
        <ele>440.59</ele>
        <time>2019-03-25T14:07:23Z</time>
      </trkpt>
      <trkpt lat="45.86151" lon="4.09884">
        <ele>440.345</ele>
        <time>2019-03-25T14:07:28Z</time>
      </trkpt>
      <trkpt lat="45.86153" lon="4.09881">
        <ele>440.237</ele>
        <time>2019-03-25T14:07:33Z</time>
      </trkpt>
      <trkpt lat="45.86155" lon="4.0988">
        <ele>440.136</ele>
        <time>2019-03-25T14:07:38Z</time>
      </trkpt>
      <trkpt lat="45.86157" lon="4.09878">
        <ele>439.992</ele>
        <time>2019-03-25T14:07:44Z</time>
      </trkpt>
      <trkpt lat="45.86157" lon="4.09878">
        <ele>439.603</ele>
        <time>2019-03-25T14:07:49Z</time>
      </trkpt>
      <trkpt lat="45.86157" lon="4.0988">
        <ele>439.464</ele>
        <time>2019-03-25T14:07:55Z</time>
      </trkpt>
      <trkpt lat="45.86156" lon="4.09882">
        <ele>439.369</ele>
        <time>2019-03-25T14:08:00Z</time>
      </trkpt>
      <trkpt lat="45.86156" lon="4.09884">
        <ele>439.27</ele>
        <time>2019-03-25T14:08:06Z</time>
      </trkpt>
      <trkpt lat="45.86156" lon="4.09885">
        <ele>439.204</ele>
        <time>2019-03-25T14:08:11Z</time>
      </trkpt>
      <trkpt lat="45.86156" lon="4.09885">
        <ele>439.133</ele>
        <time>2019-03-25T14:08:17Z</time>
      </trkpt>
      <trkpt lat="45.86156" lon="4.09885">
        <ele>439.051</ele>
        <time>2019-03-25T14:08:22Z</time>
      </trkpt>
      <trkpt lat="45.86156" lon="4.09885">
        <ele>438.941</ele>
        <time>2019-03-25T14:08:28Z</time>
      </trkpt>
      <trkpt lat="45.86156" lon="4.09885">
        <ele>438.866</ele>
        <time>2019-03-25T14:08:34Z</time>
      </trkpt>
      <trkpt lat="45.86156" lon="4.09885">
        <ele>438.818</ele>
        <time>2019-03-25T14:08:39Z</time>
      </trkpt>
      <trkpt lat="45.86156" lon="4.09885">
        <ele>438.754</ele>
        <time>2019-03-25T14:08:45Z</time>
      </trkpt>
      <trkpt lat="45.86156" lon="4.09885">
        <ele>438.708</ele>
        <time>2019-03-25T14:08:50Z</time>
      </trkpt>
      <trkpt lat="45.86156" lon="4.09885">
        <ele>438.698</ele>
        <time>2019-03-25T14:08:55Z</time>
      </trkpt>
      <trkpt lat="45.86154" lon="4.09885">
        <ele>438.82</ele>
        <time>2019-03-25T14:09:00Z</time>
      </trkpt>
      <trkpt lat="45.8615" lon="4.09885">
        <ele>439.306</ele>
        <time>2019-03-25T14:09:06Z</time>
      </trkpt>
      <trkpt lat="45.8615" lon="4.09885">
        <ele>439.329</ele>
        <time>2019-03-25T14:09:11Z</time>
      </trkpt>
      <trkpt lat="45.86149" lon="4.09882">
        <ele>439.93</ele>
        <time>2019-03-25T14:09:17Z</time>
      </trkpt>
      <trkpt lat="45.86149" lon="4.0988">
        <ele>440.742</ele>
        <time>2019-03-25T14:09:23Z</time>
      </trkpt>
      <trkpt lat="45.86148" lon="4.09876">
        <ele>441.266</ele>
        <time>2019-03-25T14:09:28Z</time>
      </trkpt>
      <trkpt lat="45.86149" lon="4.09869">
        <ele>441.193</ele>
        <time>2019-03-25T14:09:34Z</time>
      </trkpt>
      <trkpt lat="45.8615" lon="4.0986">
        <ele>441.068</ele>
        <time>2019-03-25T14:09:39Z</time>
      </trkpt>
      <trkpt lat="45.86151" lon="4.0985">
        <ele>440.941</ele>
        <time>2019-03-25T14:09:45Z</time>
      </trkpt>
      <trkpt lat="45.86155" lon="4.09844">
        <ele>440.456</ele>
        <time>2019-03-25T14:09:50Z</time>
      </trkpt>
      <trkpt lat="45.86159" lon="4.09834">
        <ele>440.032</ele>
        <time>2019-03-25T14:09:56Z</time>
      </trkpt>
      <trkpt lat="45.86163" lon="4.09827">
        <ele>439.774</ele>
        <time>2019-03-25T14:10:01Z</time>
      </trkpt>
      <trkpt lat="45.86166" lon="4.0982">
        <ele>438.982</ele>
        <time>2019-03-25T14:10:07Z</time>
      </trkpt>
      <trkpt lat="45.8617" lon="4.09814">
        <ele>438.755</ele>
        <time>2019-03-25T14:10:13Z</time>
      </trkpt>
      <trkpt lat="45.86175" lon="4.09807">
        <ele>438.534</ele>
        <time>2019-03-25T14:10:18Z</time>
      </trkpt>
      <trkpt lat="45.8618" lon="4.09799">
        <ele>438.16</ele>
        <time>2019-03-25T14:10:24Z</time>
      </trkpt>
      <trkpt lat="45.86185" lon="4.09791">
        <ele>438.005</ele>
        <time>2019-03-25T14:10:30Z</time>
      </trkpt>
      <trkpt lat="45.86189" lon="4.09785">
        <ele>437.658</ele>
        <time>2019-03-25T14:10:35Z</time>
      </trkpt>
      <trkpt lat="45.86193" lon="4.09777">
        <ele>437.399</ele>
        <time>2019-03-25T14:10:40Z</time>
      </trkpt>
      <trkpt lat="45.86196" lon="4.0977">
        <ele>437.176</ele>
        <time>2019-03-25T14:10:45Z</time>
      </trkpt>
      <trkpt lat="45.862" lon="4.09763">
        <ele>436.885</ele>
        <time>2019-03-25T14:10:51Z</time>
      </trkpt>
      <trkpt lat="45.86205" lon="4.09753">
        <ele>436.313</ele>
        <time>2019-03-25T14:10:57Z</time>
      </trkpt>
      <trkpt lat="45.86209" lon="4.09743">
        <ele>435.855</ele>
        <time>2019-03-25T14:11:03Z</time>
      </trkpt>
      <trkpt lat="45.86214" lon="4.09738">
        <ele>435.613</ele>
        <time>2019-03-25T14:11:08Z</time>
      </trkpt>
      <trkpt lat="45.86219" lon="4.09731">
        <ele>435.686</ele>
        <time>2019-03-25T14:11:14Z</time>
      </trkpt>
      <trkpt lat="45.86222" lon="4.09725">
        <ele>435.484</ele>
        <time>2019-03-25T14:11:20Z</time>
      </trkpt>
      <trkpt lat="45.86226" lon="4.09717">
        <ele>434.948</ele>
        <time>2019-03-25T14:11:25Z</time>
      </trkpt>
      <trkpt lat="45.86228" lon="4.09712">
        <ele>434.244</ele>
        <time>2019-03-25T14:11:30Z</time>
      </trkpt>
      <trkpt lat="45.86233" lon="4.09701">
        <ele>434.017</ele>
        <time>2019-03-25T14:11:36Z</time>
      </trkpt>
      <trkpt lat="45.86236" lon="4.09695">
        <ele>433.953</ele>
        <time>2019-03-25T14:11:41Z</time>
      </trkpt>
      <trkpt lat="45.8624" lon="4.09689">
        <ele>433.569</ele>
        <time>2019-03-25T14:11:46Z</time>
      </trkpt>
      <trkpt lat="45.86243" lon="4.09681">
        <ele>433.641</ele>
        <time>2019-03-25T14:11:52Z</time>
      </trkpt>
      <trkpt lat="45.86247" lon="4.09675">
        <ele>433.53</ele>
        <time>2019-03-25T14:11:57Z</time>
      </trkpt>
      <trkpt lat="45.86253" lon="4.09665">
        <ele>433.265</ele>
        <time>2019-03-25T14:12:03Z</time>
      </trkpt>
      <trkpt lat="45.86256" lon="4.09659">
        <ele>433.048</ele>
        <time>2019-03-25T14:12:08Z</time>
      </trkpt>
      <trkpt lat="45.86263" lon="4.09654">
        <ele>432.656</ele>
        <time>2019-03-25T14:12:14Z</time>
      </trkpt>
      <trkpt lat="45.86267" lon="4.09647">
        <ele>432.294</ele>
        <time>2019-03-25T14:12:19Z</time>
      </trkpt>
      <trkpt lat="45.8627" lon="4.09637">
        <ele>431.575</ele>
        <time>2019-03-25T14:12:25Z</time>
      </trkpt>
      <trkpt lat="45.86275" lon="4.09632">
        <ele>431.338</ele>
        <time>2019-03-25T14:12:30Z</time>
      </trkpt>
      <trkpt lat="45.86281" lon="4.09624">
        <ele>431.295</ele>
        <time>2019-03-25T14:12:36Z</time>
      </trkpt>
      <trkpt lat="45.86284" lon="4.09618">
        <ele>431.126</ele>
        <time>2019-03-25T14:12:41Z</time>
      </trkpt>
      <trkpt lat="45.86288" lon="4.09611">
        <ele>430.83</ele>
        <time>2019-03-25T14:12:47Z</time>
      </trkpt>
      <trkpt lat="45.86292" lon="4.09605">
        <ele>429.782</ele>
        <time>2019-03-25T14:12:53Z</time>
      </trkpt>
      <trkpt lat="45.86295" lon="4.09598">
        <ele>429.214</ele>
        <time>2019-03-25T14:12:58Z</time>
      </trkpt>
      <trkpt lat="45.86302" lon="4.09592">
        <ele>428.936</ele>
        <time>2019-03-25T14:13:04Z</time>
      </trkpt>
      <trkpt lat="45.86309" lon="4.09587">
        <ele>428.273</ele>
        <time>2019-03-25T14:13:09Z</time>
      </trkpt>
      <trkpt lat="45.86314" lon="4.09577">
        <ele>427.512</ele>
        <time>2019-03-25T14:13:15Z</time>
      </trkpt>
      <trkpt lat="45.86314" lon="4.09565">
        <ele>426.959</ele>
        <time>2019-03-25T14:13:21Z</time>
      </trkpt>
      <trkpt lat="45.86314" lon="4.09558">
        <ele>427.03</ele>
        <time>2019-03-25T14:13:26Z</time>
      </trkpt>
      <trkpt lat="45.86316" lon="4.09551">
        <ele>426.717</ele>
        <time>2019-03-25T14:13:31Z</time>
      </trkpt>
      <trkpt lat="45.86314" lon="4.0954">
        <ele>425.752</ele>
        <time>2019-03-25T14:13:37Z</time>
      </trkpt>
      <trkpt lat="45.86312" lon="4.09529">
        <ele>424.762</ele>
        <time>2019-03-25T14:13:43Z</time>
      </trkpt>
      <trkpt lat="45.86312" lon="4.09519">
        <ele>423.79</ele>
        <time>2019-03-25T14:13:48Z</time>
      </trkpt>
      <trkpt lat="45.86311" lon="4.09511">
        <ele>422.498</ele>
        <time>2019-03-25T14:13:54Z</time>
      </trkpt>
      <trkpt lat="45.86309" lon="4.09501">
        <ele>421.692</ele>
        <time>2019-03-25T14:13:59Z</time>
      </trkpt>
      <trkpt lat="45.86306" lon="4.0949">
        <ele>420.906</ele>
        <time>2019-03-25T14:14:05Z</time>
      </trkpt>
      <trkpt lat="45.86308" lon="4.09482">
        <ele>420.171</ele>
        <time>2019-03-25T14:14:10Z</time>
      </trkpt>
      <trkpt lat="45.86308" lon="4.09473">
        <ele>419.045</ele>
        <time>2019-03-25T14:14:16Z</time>
      </trkpt>
      <trkpt lat="45.86306" lon="4.09466">
        <ele>418.316</ele>
        <time>2019-03-25T14:14:21Z</time>
      </trkpt>
      <trkpt lat="45.86306" lon="4.09456">
        <ele>418.137</ele>
        <time>2019-03-25T14:14:26Z</time>
      </trkpt>
      <trkpt lat="45.86306" lon="4.09448">
        <ele>417.442</ele>
        <time>2019-03-25T14:14:31Z</time>
      </trkpt>
      <trkpt lat="45.86307" lon="4.09441">
        <ele>416.932</ele>
        <time>2019-03-25T14:14:36Z</time>
      </trkpt>
      <trkpt lat="45.86306" lon="4.09429">
        <ele>416.138</ele>
        <time>2019-03-25T14:14:42Z</time>
      </trkpt>
      <trkpt lat="45.86305" lon="4.09421">
        <ele>415.183</ele>
        <time>2019-03-25T14:14:47Z</time>
      </trkpt>
      <trkpt lat="45.86305" lon="4.0941">
        <ele>414.637</ele>
        <time>2019-03-25T14:14:53Z</time>
      </trkpt>
      <trkpt lat="45.86304" lon="4.09402">
        <ele>414.544</ele>
        <time>2019-03-25T14:14:59Z</time>
      </trkpt>
      <trkpt lat="45.86303" lon="4.09392">
        <ele>414.118</ele>
        <time>2019-03-25T14:15:04Z</time>
      </trkpt>
      <trkpt lat="45.86302" lon="4.09384">
        <ele>413.487</ele>
        <time>2019-03-25T14:15:09Z</time>
      </trkpt>
      <trkpt lat="45.86302" lon="4.09373">
        <ele>412.861</ele>
        <time>2019-03-25T14:15:15Z</time>
      </trkpt>
      <trkpt lat="45.86301" lon="4.09366">
        <ele>412.275</ele>
        <time>2019-03-25T14:15:20Z</time>
      </trkpt>
      <trkpt lat="45.863" lon="4.09358">
        <ele>411.885</ele>
        <time>2019-03-25T14:15:25Z</time>
      </trkpt>
      <trkpt lat="45.863" lon="4.09348">
        <ele>410.647</ele>
        <time>2019-03-25T14:15:31Z</time>
      </trkpt>
      <trkpt lat="45.86298" lon="4.09341">
        <ele>409.393</ele>
        <time>2019-03-25T14:15:37Z</time>
      </trkpt>
      <trkpt lat="45.86296" lon="4.09333">
        <ele>409.047</ele>
        <time>2019-03-25T14:15:43Z</time>
      </trkpt>
      <trkpt lat="45.86294" lon="4.09324">
        <ele>408.568</ele>
        <time>2019-03-25T14:15:49Z</time>
      </trkpt>
      <trkpt lat="45.86291" lon="4.09312">
        <ele>408.2</ele>
        <time>2019-03-25T14:15:55Z</time>
      </trkpt>
      <trkpt lat="45.86289" lon="4.09302">
        <ele>407.641</ele>
        <time>2019-03-25T14:16:00Z</time>
      </trkpt>
      <trkpt lat="45.86287" lon="4.09292">
        <ele>407.235</ele>
        <time>2019-03-25T14:16:06Z</time>
      </trkpt>
      <trkpt lat="45.86285" lon="4.09282">
        <ele>407.205</ele>
        <time>2019-03-25T14:16:12Z</time>
      </trkpt>
      <trkpt lat="45.86283" lon="4.09275">
        <ele>407.38</ele>
        <time>2019-03-25T14:16:17Z</time>
      </trkpt>
      <trkpt lat="45.8628" lon="4.09266">
        <ele>406.358</ele>
        <time>2019-03-25T14:16:23Z</time>
      </trkpt>
      <trkpt lat="45.86277" lon="4.0926">
        <ele>405.713</ele>
        <time>2019-03-25T14:16:28Z</time>
      </trkpt>
      <trkpt lat="45.86276" lon="4.09252">
        <ele>405.178</ele>
        <time>2019-03-25T14:16:34Z</time>
      </trkpt>
      <trkpt lat="45.86276" lon="4.09246">
        <ele>404.641</ele>
        <time>2019-03-25T14:16:39Z</time>
      </trkpt>
      <trkpt lat="45.86277" lon="4.09244">
        <ele>404.952</ele>
        <time>2019-03-25T14:16:45Z</time>
      </trkpt>
      <trkpt lat="45.86278" lon="4.09243">
        <ele>405.57</ele>
        <time>2019-03-25T14:16:51Z</time>
      </trkpt>
      <trkpt lat="45.86277" lon="4.09242">
        <ele>405.642</ele>
        <time>2019-03-25T14:16:56Z</time>
      </trkpt>
      <trkpt lat="45.86278" lon="4.09244">
        <ele>405.718</ele>
        <time>2019-03-25T14:17:02Z</time>
      </trkpt>
      <trkpt lat="45.86278" lon="4.09247">
        <ele>406.046</ele>
        <time>2019-03-25T14:17:08Z</time>
      </trkpt>
      <trkpt lat="45.86279" lon="4.09246">
        <ele>405.891</ele>
        <time>2019-03-25T14:17:13Z</time>
      </trkpt>
      <trkpt lat="45.86279" lon="4.09248">
        <ele>405.959</ele>
        <time>2019-03-25T14:17:19Z</time>
      </trkpt>
      <trkpt lat="45.86279" lon="4.09247">
        <ele>405.896</ele>
        <time>2019-03-25T14:17:25Z</time>
      </trkpt>
      <trkpt lat="45.86277" lon="4.09246">
        <ele>405.881</ele>
        <time>2019-03-25T14:17:31Z</time>
      </trkpt>
      <trkpt lat="45.86277" lon="4.09247">
        <ele>405.915</ele>
        <time>2019-03-25T14:17:36Z</time>
      </trkpt>
      <trkpt lat="45.86277" lon="4.09244">
        <ele>405.989</ele>
        <time>2019-03-25T14:17:42Z</time>
      </trkpt>
      <trkpt lat="45.86277" lon="4.09244">
        <ele>405.42</ele>
        <time>2019-03-25T14:17:48Z</time>
      </trkpt>
      <trkpt lat="45.86276" lon="4.09243">
        <ele>405.492</ele>
        <time>2019-03-25T14:17:54Z</time>
      </trkpt>
      <trkpt lat="45.86274" lon="4.09238">
        <ele>406.441</ele>
        <time>2019-03-25T14:18:00Z</time>
      </trkpt>
      <trkpt lat="45.86274" lon="4.09238">
        <ele>406.774</ele>
        <time>2019-03-25T14:18:06Z</time>
      </trkpt>
      <trkpt lat="45.86274" lon="4.09244">
        <ele>406.706</ele>
        <time>2019-03-25T14:18:12Z</time>
      </trkpt>
      <trkpt lat="45.86275" lon="4.09244">
        <ele>406.856</ele>
        <time>2019-03-25T14:18:17Z</time>
      </trkpt>
      <trkpt lat="45.86275" lon="4.09245">
        <ele>407.125</ele>
        <time>2019-03-25T14:18:23Z</time>
      </trkpt>
      <trkpt lat="45.86274" lon="4.09244">
        <ele>407.543</ele>
        <time>2019-03-25T14:18:28Z</time>
      </trkpt>
      <trkpt lat="45.86274" lon="4.09245">
        <ele>408.33</ele>
        <time>2019-03-25T14:18:34Z</time>
      </trkpt>
      <trkpt lat="45.86276" lon="4.09243">
        <ele>409.026</ele>
        <time>2019-03-25T14:18:40Z</time>
      </trkpt>
      <trkpt lat="45.86277" lon="4.09243">
        <ele>409.333</ele>
        <time>2019-03-25T14:18:45Z</time>
      </trkpt>
      <trkpt lat="45.86277" lon="4.09242">
        <ele>409.434</ele>
        <time>2019-03-25T14:18:50Z</time>
      </trkpt>
      <trkpt lat="45.86276" lon="4.09243">
        <ele>409.534</ele>
        <time>2019-03-25T14:18:56Z</time>
      </trkpt>
      <trkpt lat="45.86277" lon="4.09247">
        <ele>409.887</ele>
        <time>2019-03-25T14:19:02Z</time>
      </trkpt>
      <trkpt lat="45.86278" lon="4.09248">
        <ele>409.933</ele>
        <time>2019-03-25T14:19:08Z</time>
      </trkpt>
      <trkpt lat="45.86279" lon="4.09248">
        <ele>409.966</ele>
        <time>2019-03-25T14:19:13Z</time>
      </trkpt>
      <trkpt lat="45.86279" lon="4.09248">
        <ele>409.97</ele>
        <time>2019-03-25T14:19:19Z</time>
      </trkpt>
      <trkpt lat="45.86278" lon="4.09248">
        <ele>409.892</ele>
        <time>2019-03-25T14:19:24Z</time>
      </trkpt>
      <trkpt lat="45.86277" lon="4.09249">
        <ele>410.228</ele>
        <time>2019-03-25T14:19:30Z</time>
      </trkpt>
      <trkpt lat="45.86278" lon="4.09249">
        <ele>410.3</ele>
        <time>2019-03-25T14:19:35Z</time>
      </trkpt>
      <trkpt lat="45.86278" lon="4.09249">
        <ele>410.328</ele>
        <time>2019-03-25T14:19:40Z</time>
      </trkpt>
      <trkpt lat="45.86277" lon="4.09247">
        <ele>410.565</ele>
        <time>2019-03-25T14:19:47Z</time>
      </trkpt>
      <trkpt lat="45.86277" lon="4.09244">
        <ele>410.185</ele>
        <time>2019-03-25T14:19:52Z</time>
      </trkpt>
      <trkpt lat="45.86276" lon="4.09243">
        <ele>409.507</ele>
        <time>2019-03-25T14:19:58Z</time>
      </trkpt>
      <trkpt lat="45.86276" lon="4.09243">
        <ele>409.502</ele>
        <time>2019-03-25T14:20:04Z</time>
      </trkpt>
      <trkpt lat="45.86276" lon="4.09244">
        <ele>409.743</ele>
        <time>2019-03-25T14:20:09Z</time>
      </trkpt>
      <trkpt lat="45.86274" lon="4.09243">
        <ele>409.85</ele>
        <time>2019-03-25T14:20:15Z</time>
      </trkpt>
      <trkpt lat="45.86273" lon="4.09243">
        <ele>409.893</ele>
        <time>2019-03-25T14:20:20Z</time>
      </trkpt>
      <trkpt lat="45.86272" lon="4.09236">
        <ele>409.085</ele>
        <time>2019-03-25T14:20:26Z</time>
      </trkpt>
      <trkpt lat="45.8627" lon="4.09229">
        <ele>408.535</ele>
        <time>2019-03-25T14:20:31Z</time>
      </trkpt>
      <trkpt lat="45.86268" lon="4.09222">
        <ele>408.153</ele>
        <time>2019-03-25T14:20:37Z</time>
      </trkpt>
      <trkpt lat="45.86267" lon="4.09214">
        <ele>407.256</ele>
        <time>2019-03-25T14:20:43Z</time>
      </trkpt>
      <trkpt lat="45.86265" lon="4.09205">
        <ele>406.76</ele>
        <time>2019-03-25T14:20:49Z</time>
      </trkpt>
      <trkpt lat="45.86263" lon="4.09197">
        <ele>406.352</ele>
        <time>2019-03-25T14:20:55Z</time>
      </trkpt>
      <trkpt lat="45.86263" lon="4.09187">
        <ele>405.505</ele>
        <time>2019-03-25T14:21:00Z</time>
      </trkpt>
      <trkpt lat="45.86261" lon="4.09177">
        <ele>405.283</ele>
        <time>2019-03-25T14:21:06Z</time>
      </trkpt>
      <trkpt lat="45.86261" lon="4.09169">
        <ele>404.658</ele>
        <time>2019-03-25T14:21:11Z</time>
      </trkpt>
      <trkpt lat="45.86261" lon="4.0916">
        <ele>404.347</ele>
        <time>2019-03-25T14:21:17Z</time>
      </trkpt>
      <trkpt lat="45.86262" lon="4.09152">
        <ele>404.372</ele>
        <time>2019-03-25T14:21:23Z</time>
      </trkpt>
      <trkpt lat="45.86262" lon="4.09142">
        <ele>404.447</ele>
        <time>2019-03-25T14:21:28Z</time>
      </trkpt>
      <trkpt lat="45.86262" lon="4.0913">
        <ele>404.915</ele>
        <time>2019-03-25T14:21:34Z</time>
      </trkpt>
      <trkpt lat="45.86262" lon="4.09119">
        <ele>404.975</ele>
        <time>2019-03-25T14:21:40Z</time>
      </trkpt>
      <trkpt lat="45.86259" lon="4.09114">
        <ele>404.788</ele>
        <time>2019-03-25T14:21:45Z</time>
      </trkpt>
      <trkpt lat="45.86254" lon="4.09103">
        <ele>404.309</ele>
        <time>2019-03-25T14:21:51Z</time>
      </trkpt>
      <trkpt lat="45.8625" lon="4.09096">
        <ele>404.051</ele>
        <time>2019-03-25T14:21:56Z</time>
      </trkpt>
      <trkpt lat="45.86245" lon="4.0909">
        <ele>404.146</ele>
        <time>2019-03-25T14:22:01Z</time>
      </trkpt>
      <trkpt lat="45.86239" lon="4.09083">
        <ele>404.101</ele>
        <time>2019-03-25T14:22:07Z</time>
      </trkpt>
      <trkpt lat="45.86233" lon="4.09077">
        <ele>403.974</ele>
        <time>2019-03-25T14:22:13Z</time>
      </trkpt>
      <trkpt lat="45.86227" lon="4.0907">
        <ele>404.014</ele>
        <time>2019-03-25T14:22:18Z</time>
      </trkpt>
      <trkpt lat="45.86222" lon="4.09064">
        <ele>403.836</ele>
        <time>2019-03-25T14:22:24Z</time>
      </trkpt>
      <trkpt lat="45.86217" lon="4.09056">
        <ele>403.525</ele>
        <time>2019-03-25T14:22:29Z</time>
      </trkpt>
      <trkpt lat="45.86212" lon="4.09049">
        <ele>403.197</ele>
        <time>2019-03-25T14:22:35Z</time>
      </trkpt>
      <trkpt lat="45.86209" lon="4.09043">
        <ele>403.28</ele>
        <time>2019-03-25T14:22:40Z</time>
      </trkpt>
      <trkpt lat="45.86205" lon="4.09035">
        <ele>403.401</ele>
        <time>2019-03-25T14:22:46Z</time>
      </trkpt>
      <trkpt lat="45.86201" lon="4.09026">
        <ele>403.566</ele>
        <time>2019-03-25T14:22:51Z</time>
      </trkpt>
      <trkpt lat="45.86197" lon="4.0902">
        <ele>403.537</ele>
        <time>2019-03-25T14:22:57Z</time>
      </trkpt>
      <trkpt lat="45.86192" lon="4.09012">
        <ele>403.734</ele>
        <time>2019-03-25T14:23:03Z</time>
      </trkpt>
      <trkpt lat="45.86186" lon="4.09003">
        <ele>403.631</ele>
        <time>2019-03-25T14:23:09Z</time>
      </trkpt>
      <trkpt lat="45.86181" lon="4.08994">
        <ele>403.664</ele>
        <time>2019-03-25T14:23:15Z</time>
      </trkpt>
      <trkpt lat="45.86178" lon="4.08985">
        <ele>403.623</ele>
        <time>2019-03-25T14:23:20Z</time>
      </trkpt>
      <trkpt lat="45.86175" lon="4.08977">
        <ele>403.248</ele>
        <time>2019-03-25T14:23:25Z</time>
      </trkpt>
      <trkpt lat="45.86169" lon="4.08968">
        <ele>403.079</ele>
        <time>2019-03-25T14:23:31Z</time>
      </trkpt>
      <trkpt lat="45.86164" lon="4.08961">
        <ele>403.301</ele>
        <time>2019-03-25T14:23:37Z</time>
      </trkpt>
      <trkpt lat="45.8616" lon="4.08955">
        <ele>403.125</ele>
        <time>2019-03-25T14:23:43Z</time>
      </trkpt>
      <trkpt lat="45.86158" lon="4.08946">
        <ele>403.227</ele>
        <time>2019-03-25T14:23:48Z</time>
      </trkpt>
      <trkpt lat="45.86152" lon="4.08935">
        <ele>402.891</ele>
        <time>2019-03-25T14:23:54Z</time>
      </trkpt>
      <trkpt lat="45.86146" lon="4.08927">
        <ele>402.92</ele>
        <time>2019-03-25T14:24:00Z</time>
      </trkpt>
      <trkpt lat="45.8614" lon="4.08918">
        <ele>402.655</ele>
        <time>2019-03-25T14:24:06Z</time>
      </trkpt>
      <trkpt lat="45.86137" lon="4.08912">
        <ele>402.879</ele>
        <time>2019-03-25T14:24:11Z</time>
      </trkpt>
      <trkpt lat="45.86132" lon="4.08904">
        <ele>403.515</ele>
        <time>2019-03-25T14:24:17Z</time>
      </trkpt>
      <trkpt lat="45.86129" lon="4.08897">
        <ele>403.805</ele>
        <time>2019-03-25T14:24:23Z</time>
      </trkpt>
      <trkpt lat="45.86125" lon="4.08889">
        <ele>403.718</ele>
        <time>2019-03-25T14:24:29Z</time>
      </trkpt>
      <trkpt lat="45.86118" lon="4.08883">
        <ele>404.09</ele>
        <time>2019-03-25T14:24:35Z</time>
      </trkpt>
      <trkpt lat="45.86113" lon="4.08877">
        <ele>404.376</ele>
        <time>2019-03-25T14:24:41Z</time>
      </trkpt>
      <trkpt lat="45.86108" lon="4.08874">
        <ele>404.248</ele>
        <time>2019-03-25T14:24:46Z</time>
      </trkpt>
      <trkpt lat="45.86105" lon="4.08871">
        <ele>404.284</ele>
        <time>2019-03-25T14:24:51Z</time>
      </trkpt>
      <trkpt lat="45.86099" lon="4.08868">
        <ele>404.349</ele>
        <time>2019-03-25T14:24:57Z</time>
      </trkpt>
      <trkpt lat="45.86094" lon="4.08864">
        <ele>404.513</ele>
        <time>2019-03-25T14:25:02Z</time>
      </trkpt>
      <trkpt lat="45.86088" lon="4.08859">
        <ele>404.503</ele>
        <time>2019-03-25T14:25:07Z</time>
      </trkpt>
      <trkpt lat="45.86083" lon="4.08854">
        <ele>404.412</ele>
        <time>2019-03-25T14:25:13Z</time>
      </trkpt>
      <trkpt lat="45.86077" lon="4.08851">
        <ele>404.357</ele>
        <time>2019-03-25T14:25:18Z</time>
      </trkpt>
      <trkpt lat="45.8607" lon="4.08848">
        <ele>404.204</ele>
        <time>2019-03-25T14:25:24Z</time>
      </trkpt>
      <trkpt lat="45.86064" lon="4.08839">
        <ele>404.238</ele>
        <time>2019-03-25T14:25:30Z</time>
      </trkpt>
      <trkpt lat="45.86059" lon="4.08834">
        <ele>404.344</ele>
        <time>2019-03-25T14:25:35Z</time>
      </trkpt>
      <trkpt lat="45.86053" lon="4.08828">
        <ele>404.326</ele>
        <time>2019-03-25T14:25:41Z</time>
      </trkpt>
      <trkpt lat="45.86046" lon="4.08824">
        <ele>404.388</ele>
        <time>2019-03-25T14:25:46Z</time>
      </trkpt>
      <trkpt lat="45.86041" lon="4.08816">
        <ele>404.563</ele>
        <time>2019-03-25T14:25:52Z</time>
      </trkpt>
      <trkpt lat="45.86036" lon="4.08813">
        <ele>404.647</ele>
        <time>2019-03-25T14:25:57Z</time>
      </trkpt>
      <trkpt lat="45.86028" lon="4.08808">
        <ele>404.655</ele>
        <time>2019-03-25T14:26:03Z</time>
      </trkpt>
      <trkpt lat="45.86023" lon="4.08806">
        <ele>404.684</ele>
        <time>2019-03-25T14:26:08Z</time>
      </trkpt>
      <trkpt lat="45.86018" lon="4.088">
        <ele>404.966</ele>
        <time>2019-03-25T14:26:14Z</time>
      </trkpt>
      <trkpt lat="45.86011" lon="4.08795">
        <ele>404.899</ele>
        <time>2019-03-25T14:26:20Z</time>
      </trkpt>
      <trkpt lat="45.86005" lon="4.0879">
        <ele>404.919</ele>
        <time>2019-03-25T14:26:26Z</time>
      </trkpt>
      <trkpt lat="45.86" lon="4.08783">
        <ele>405.283</ele>
        <time>2019-03-25T14:26:32Z</time>
      </trkpt>
      <trkpt lat="45.85997" lon="4.08777">
        <ele>405.609</ele>
        <time>2019-03-25T14:26:37Z</time>
      </trkpt>
      <trkpt lat="45.8599" lon="4.08771">
        <ele>405.767</ele>
        <time>2019-03-25T14:26:43Z</time>
      </trkpt>
      <trkpt lat="45.85985" lon="4.08764">
        <ele>405.918</ele>
        <time>2019-03-25T14:26:48Z</time>
      </trkpt>
      <trkpt lat="45.85981" lon="4.08754">
        <ele>406.034</ele>
        <time>2019-03-25T14:26:54Z</time>
      </trkpt>
      <trkpt lat="45.85977" lon="4.08748">
        <ele>405.983</ele>
        <time>2019-03-25T14:26:59Z</time>
      </trkpt>
      <trkpt lat="45.85972" lon="4.08735">
        <ele>405.515</ele>
        <time>2019-03-25T14:27:05Z</time>
      </trkpt>
      <trkpt lat="45.8597" lon="4.08727">
        <ele>405.565</ele>
        <time>2019-03-25T14:27:11Z</time>
      </trkpt>
      <trkpt lat="45.85968" lon="4.08717">
        <ele>405.871</ele>
        <time>2019-03-25T14:27:17Z</time>
      </trkpt>
      <trkpt lat="45.85967" lon="4.08706">
        <ele>406.366</ele>
        <time>2019-03-25T14:27:23Z</time>
      </trkpt>
      <trkpt lat="45.85966" lon="4.08697">
        <ele>406.872</ele>
        <time>2019-03-25T14:27:28Z</time>
      </trkpt>
      <trkpt lat="45.85966" lon="4.08687">
        <ele>407.12</ele>
        <time>2019-03-25T14:27:33Z</time>
      </trkpt>
      <trkpt lat="45.85962" lon="4.08675">
        <ele>407.305</ele>
        <time>2019-03-25T14:27:39Z</time>
      </trkpt>
      <trkpt lat="45.85959" lon="4.08665">
        <ele>407.349</ele>
        <time>2019-03-25T14:27:45Z</time>
      </trkpt>
      <trkpt lat="45.85959" lon="4.08657">
        <ele>407.571</ele>
        <time>2019-03-25T14:27:50Z</time>
      </trkpt>
      <trkpt lat="45.85958" lon="4.08647">
        <ele>407.877</ele>
        <time>2019-03-25T14:27:56Z</time>
      </trkpt>
      <trkpt lat="45.85955" lon="4.08635">
        <ele>407.519</ele>
        <time>2019-03-25T14:28:01Z</time>
      </trkpt>
      <trkpt lat="45.85953" lon="4.08625">
        <ele>406.908</ele>
        <time>2019-03-25T14:28:06Z</time>
      </trkpt>
      <trkpt lat="45.85952" lon="4.08616">
        <ele>406.722</ele>
        <time>2019-03-25T14:28:12Z</time>
      </trkpt>
      <trkpt lat="45.8595" lon="4.08605">
        <ele>406.587</ele>
        <time>2019-03-25T14:28:18Z</time>
      </trkpt>
      <trkpt lat="45.85949" lon="4.08597">
        <ele>406.386</ele>
        <time>2019-03-25T14:28:23Z</time>
      </trkpt>
      <trkpt lat="45.85947" lon="4.08587">
        <ele>406.345</ele>
        <time>2019-03-25T14:28:28Z</time>
      </trkpt>
      <trkpt lat="45.85947" lon="4.08577">
        <ele>406.721</ele>
        <time>2019-03-25T14:28:34Z</time>
      </trkpt>
      <trkpt lat="45.85945" lon="4.08564">
        <ele>407.012</ele>
        <time>2019-03-25T14:28:40Z</time>
      </trkpt>
      <trkpt lat="45.85942" lon="4.08554">
        <ele>406.515</ele>
        <time>2019-03-25T14:28:45Z</time>
      </trkpt>
      <trkpt lat="45.8594" lon="4.08546">
        <ele>406.251</ele>
        <time>2019-03-25T14:28:50Z</time>
      </trkpt>
      <trkpt lat="45.85939" lon="4.08538">
        <ele>405.838</ele>
        <time>2019-03-25T14:28:55Z</time>
      </trkpt>
      <trkpt lat="45.85937" lon="4.08527">
        <ele>405.437</ele>
        <time>2019-03-25T14:29:00Z</time>
      </trkpt>
      <trkpt lat="45.85935" lon="4.08516">
        <ele>404.971</ele>
        <time>2019-03-25T14:29:06Z</time>
      </trkpt>
      <trkpt lat="45.85935" lon="4.08509">
        <ele>404.782</ele>
        <time>2019-03-25T14:29:11Z</time>
      </trkpt>
      <trkpt lat="45.85935" lon="4.08496">
        <ele>404.963</ele>
        <time>2019-03-25T14:29:17Z</time>
      </trkpt>
      <trkpt lat="45.85937" lon="4.08485">
        <ele>404.885</ele>
        <time>2019-03-25T14:29:23Z</time>
      </trkpt>
      <trkpt lat="45.85938" lon="4.08479">
        <ele>405.268</ele>
        <time>2019-03-25T14:29:29Z</time>
      </trkpt>
      <trkpt lat="45.85939" lon="4.08472">
        <ele>405.788</ele>
        <time>2019-03-25T14:29:34Z</time>
      </trkpt>
      <trkpt lat="45.85939" lon="4.08461">
        <ele>406.372</ele>
        <time>2019-03-25T14:29:40Z</time>
      </trkpt>
      <trkpt lat="45.8594" lon="4.08452">
        <ele>406.691</ele>
        <time>2019-03-25T14:29:46Z</time>
      </trkpt>
      <trkpt lat="45.85941" lon="4.08442">
        <ele>406.725</ele>
        <time>2019-03-25T14:29:52Z</time>
      </trkpt>
      <trkpt lat="45.8594" lon="4.0843">
        <ele>406.634</ele>
        <time>2019-03-25T14:29:58Z</time>
      </trkpt>
      <trkpt lat="45.85941" lon="4.08419">
        <ele>406.57</ele>
        <time>2019-03-25T14:30:04Z</time>
      </trkpt>
      <trkpt lat="45.85941" lon="4.08414">
        <ele>406.499</ele>
        <time>2019-03-25T14:30:09Z</time>
      </trkpt>
      <trkpt lat="45.85943" lon="4.08401">
        <ele>406.688</ele>
        <time>2019-03-25T14:30:15Z</time>
      </trkpt>
      <trkpt lat="45.85944" lon="4.08393">
        <ele>406.793</ele>
        <time>2019-03-25T14:30:20Z</time>
      </trkpt>
      <trkpt lat="45.85946" lon="4.08381">
        <ele>406.497</ele>
        <time>2019-03-25T14:30:26Z</time>
      </trkpt>
      <trkpt lat="45.85947" lon="4.08372">
        <ele>406.395</ele>
        <time>2019-03-25T14:30:31Z</time>
      </trkpt>
      <trkpt lat="45.85949" lon="4.0836">
        <ele>406.199</ele>
        <time>2019-03-25T14:30:37Z</time>
      </trkpt>
      <trkpt lat="45.85952" lon="4.08349">
        <ele>405.911</ele>
        <time>2019-03-25T14:30:43Z</time>
      </trkpt>
      <trkpt lat="45.85954" lon="4.08342">
        <ele>405.936</ele>
        <time>2019-03-25T14:30:48Z</time>
      </trkpt>
      <trkpt lat="45.85954" lon="4.08333">
        <ele>405.756</ele>
        <time>2019-03-25T14:30:54Z</time>
      </trkpt>
      <trkpt lat="45.85956" lon="4.08325">
        <ele>405.437</ele>
        <time>2019-03-25T14:30:59Z</time>
      </trkpt>
      <trkpt lat="45.8596" lon="4.08316">
        <ele>405.894</ele>
        <time>2019-03-25T14:31:05Z</time>
      </trkpt>
      <trkpt lat="45.85962" lon="4.0831">
        <ele>405.996</ele>
        <time>2019-03-25T14:31:10Z</time>
      </trkpt>
      <trkpt lat="45.85966" lon="4.083">
        <ele>406.07</ele>
        <time>2019-03-25T14:31:15Z</time>
      </trkpt>
      <trkpt lat="45.85969" lon="4.08289">
        <ele>405.859</ele>
        <time>2019-03-25T14:31:21Z</time>
      </trkpt>
      <trkpt lat="45.8597" lon="4.08281">
        <ele>405.62</ele>
        <time>2019-03-25T14:31:26Z</time>
      </trkpt>
      <trkpt lat="45.85972" lon="4.08272">
        <ele>405.621</ele>
        <time>2019-03-25T14:31:31Z</time>
      </trkpt>
      <trkpt lat="45.85976" lon="4.08258">
        <ele>405.225</ele>
        <time>2019-03-25T14:31:37Z</time>
      </trkpt>
      <trkpt lat="45.85978" lon="4.0825">
        <ele>404.636</ele>
        <time>2019-03-25T14:31:42Z</time>
      </trkpt>
      <trkpt lat="45.85977" lon="4.08238">
        <ele>403.751</ele>
        <time>2019-03-25T14:31:48Z</time>
      </trkpt>
      <trkpt lat="45.85976" lon="4.08229">
        <ele>403.515</ele>
        <time>2019-03-25T14:31:53Z</time>
      </trkpt>
      <trkpt lat="45.85975" lon="4.08218">
        <ele>403.221</ele>
        <time>2019-03-25T14:31:58Z</time>
      </trkpt>
      <trkpt lat="45.85977" lon="4.0821">
        <ele>402.839</ele>
        <time>2019-03-25T14:32:03Z</time>
      </trkpt>
      <trkpt lat="45.85982" lon="4.08201">
        <ele>402.663</ele>
        <time>2019-03-25T14:32:09Z</time>
      </trkpt>
      <trkpt lat="45.85987" lon="4.08196">
        <ele>402.762</ele>
        <time>2019-03-25T14:32:14Z</time>
      </trkpt>
      <trkpt lat="45.85991" lon="4.0819">
        <ele>402.922</ele>
        <time>2019-03-25T14:32:20Z</time>
      </trkpt>
      <trkpt lat="45.85997" lon="4.08187">
        <ele>403.13</ele>
        <time>2019-03-25T14:32:25Z</time>
      </trkpt>
      <trkpt lat="45.86002" lon="4.08183">
        <ele>403.268</ele>
        <time>2019-03-25T14:32:30Z</time>
      </trkpt>
      <trkpt lat="45.86009" lon="4.08175">
        <ele>403.329</ele>
        <time>2019-03-25T14:32:36Z</time>
      </trkpt>
      <trkpt lat="45.86014" lon="4.0817">
        <ele>403.065</ele>
        <time>2019-03-25T14:32:41Z</time>
      </trkpt>
      <trkpt lat="45.86022" lon="4.08168">
        <ele>403.661</ele>
        <time>2019-03-25T14:32:47Z</time>
      </trkpt>
      <trkpt lat="45.8603" lon="4.08168">
        <ele>404.014</ele>
        <time>2019-03-25T14:32:52Z</time>
      </trkpt>
      <trkpt lat="45.86037" lon="4.08166">
        <ele>404.352</ele>
        <time>2019-03-25T14:32:58Z</time>
      </trkpt>
      <trkpt lat="45.86039" lon="4.08161">
        <ele>404.438</ele>
        <time>2019-03-25T14:33:04Z</time>
      </trkpt>
      <trkpt lat="45.86044" lon="4.08158">
        <ele>404.713</ele>
        <time>2019-03-25T14:33:09Z</time>
      </trkpt>
      <trkpt lat="45.86052" lon="4.08159">
        <ele>405.191</ele>
        <time>2019-03-25T14:33:15Z</time>
      </trkpt>
      <trkpt lat="45.86057" lon="4.08159">
        <ele>405.385</ele>
        <time>2019-03-25T14:33:20Z</time>
      </trkpt>
      <trkpt lat="45.86066" lon="4.0816">
        <ele>405.31</ele>
        <time>2019-03-25T14:33:26Z</time>
      </trkpt>
      <trkpt lat="45.86072" lon="4.08161">
        <ele>405.488</ele>
        <time>2019-03-25T14:33:31Z</time>
      </trkpt>
      <trkpt lat="45.86076" lon="4.08163">
        <ele>405.345</ele>
        <time>2019-03-25T14:33:37Z</time>
      </trkpt>
      <trkpt lat="45.8608" lon="4.08162">
        <ele>405.397</ele>
        <time>2019-03-25T14:33:43Z</time>
      </trkpt>
      <trkpt lat="45.86083" lon="4.08154">
        <ele>404.785</ele>
        <time>2019-03-25T14:33:49Z</time>
      </trkpt>
      <trkpt lat="45.86085" lon="4.08143">
        <ele>404.396</ele>
        <time>2019-03-25T14:33:55Z</time>
      </trkpt>
      <trkpt lat="45.86085" lon="4.08137">
        <ele>403.909</ele>
        <time>2019-03-25T14:34:00Z</time>
      </trkpt>
      <trkpt lat="45.86085" lon="4.08127">
        <ele>403.299</ele>
        <time>2019-03-25T14:34:05Z</time>
      </trkpt>
      <trkpt lat="45.86085" lon="4.0812">
        <ele>402.764</ele>
        <time>2019-03-25T14:34:11Z</time>
      </trkpt>
      <trkpt lat="45.86084" lon="4.08115">
        <ele>402.407</ele>
        <time>2019-03-25T14:34:17Z</time>
      </trkpt>
      <trkpt lat="45.86085" lon="4.08111">
        <ele>402.019</ele>
        <time>2019-03-25T14:34:23Z</time>
      </trkpt>
      <trkpt lat="45.86083" lon="4.08111">
        <ele>402.132</ele>
        <time>2019-03-25T14:34:28Z</time>
      </trkpt>
      <trkpt lat="45.86082" lon="4.08111">
        <ele>402.092</ele>
        <time>2019-03-25T14:34:34Z</time>
      </trkpt>
      <trkpt lat="45.86081" lon="4.08114">
        <ele>402.175</ele>
        <time>2019-03-25T14:34:39Z</time>
      </trkpt>
      <trkpt lat="45.86081" lon="4.08114">
        <ele>402.521</ele>
        <time>2019-03-25T14:34:46Z</time>
      </trkpt>
      <trkpt lat="45.86085" lon="4.08113">
        <ele>402.438</ele>
        <time>2019-03-25T14:34:52Z</time>
      </trkpt>
      <trkpt lat="45.86087" lon="4.08113">
        <ele>402.338</ele>
        <time>2019-03-25T14:34:57Z</time>
      </trkpt>
      <trkpt lat="45.86086" lon="4.08112">
        <ele>402.047</ele>
        <time>2019-03-25T14:35:02Z</time>
      </trkpt>
      <trkpt lat="45.86085" lon="4.08114">
        <ele>402.21</ele>
        <time>2019-03-25T14:35:08Z</time>
      </trkpt>
      <trkpt lat="45.86084" lon="4.08112">
        <ele>402.072</ele>
        <time>2019-03-25T14:35:13Z</time>
      </trkpt>
      <trkpt lat="45.86084" lon="4.08112">
        <ele>402.168</ele>
        <time>2019-03-25T14:35:18Z</time>
      </trkpt>
      <trkpt lat="45.86085" lon="4.08112">
        <ele>402.05</ele>
        <time>2019-03-25T14:35:23Z</time>
      </trkpt>
      <trkpt lat="45.86085" lon="4.08113">
        <ele>400.891</ele>
        <time>2019-03-25T14:35:28Z</time>
      </trkpt>
      <trkpt lat="45.86086" lon="4.08115">
        <ele>400.426</ele>
        <time>2019-03-25T14:35:34Z</time>
      </trkpt>
      <trkpt lat="45.86086" lon="4.08113">
        <ele>400.751</ele>
        <time>2019-03-25T14:35:40Z</time>
      </trkpt>
      <trkpt lat="45.86086" lon="4.08113">
        <ele>400.904</ele>
        <time>2019-03-25T14:35:45Z</time>
      </trkpt>
      <trkpt lat="45.86085" lon="4.08113">
        <ele>400.954</ele>
        <time>2019-03-25T14:35:50Z</time>
      </trkpt>
      <trkpt lat="45.86085" lon="4.08112">
        <ele>401.025</ele>
        <time>2019-03-25T14:35:56Z</time>
      </trkpt>
      <trkpt lat="45.86085" lon="4.08112">
        <ele>400.556</ele>
        <time>2019-03-25T14:36:01Z</time>
      </trkpt>
      <trkpt lat="45.86086" lon="4.08113">
        <ele>400.291</ele>
        <time>2019-03-25T14:36:07Z</time>
      </trkpt>
      <trkpt lat="45.86086" lon="4.08112">
        <ele>400.267</ele>
        <time>2019-03-25T14:36:12Z</time>
      </trkpt>
      <trkpt lat="45.86085" lon="4.08111">
        <ele>400.475</ele>
        <time>2019-03-25T14:36:18Z</time>
      </trkpt>
      <trkpt lat="45.86085" lon="4.08111">
        <ele>400.645</ele>
        <time>2019-03-25T14:36:23Z</time>
      </trkpt>
      <trkpt lat="45.86085" lon="4.08111">
        <ele>401.082</ele>
        <time>2019-03-25T14:36:29Z</time>
      </trkpt>
      <trkpt lat="45.86085" lon="4.08111">
        <ele>401.599</ele>
        <time>2019-03-25T14:36:34Z</time>
      </trkpt>
      <trkpt lat="45.86085" lon="4.08111">
        <ele>401.69</ele>
        <time>2019-03-25T14:36:39Z</time>
      </trkpt>
      <trkpt lat="45.86085" lon="4.08111">
        <ele>401.785</ele>
        <time>2019-03-25T14:36:44Z</time>
      </trkpt>
      <trkpt lat="45.86085" lon="4.08111">
        <ele>401.952</ele>
        <time>2019-03-25T14:36:50Z</time>
      </trkpt>
      <trkpt lat="45.86085" lon="4.08111">
        <ele>402.363</ele>
        <time>2019-03-25T14:36:56Z</time>
      </trkpt>
      <trkpt lat="45.86085" lon="4.08108">
        <ele>402.929</ele>
        <time>2019-03-25T14:37:01Z</time>
      </trkpt>
      <trkpt lat="45.86085" lon="4.08104">
        <ele>403.569</ele>
        <time>2019-03-25T14:37:07Z</time>
      </trkpt>
      <trkpt lat="45.86087" lon="4.08094">
        <ele>404.138</ele>
        <time>2019-03-25T14:37:12Z</time>
      </trkpt>
      <trkpt lat="45.8609" lon="4.08082">
        <ele>404.398</ele>
        <time>2019-03-25T14:37:18Z</time>
      </trkpt>
      <trkpt lat="45.86091" lon="4.08076">
        <ele>404.414</ele>
        <time>2019-03-25T14:37:24Z</time>
      </trkpt>
      <trkpt lat="45.86091" lon="4.08076">
        <ele>404.261</ele>
        <time>2019-03-25T14:37:29Z</time>
      </trkpt>
      <trkpt lat="45.86091" lon="4.08076">
        <ele>404.188</ele>
        <time>2019-03-25T14:37:35Z</time>
      </trkpt>
      <trkpt lat="45.86091" lon="4.08076">
        <ele>404.201</ele>
        <time>2019-03-25T14:37:41Z</time>
      </trkpt>
      <trkpt lat="45.8609" lon="4.08075">
        <ele>404.187</ele>
        <time>2019-03-25T14:37:46Z</time>
      </trkpt>
      <trkpt lat="45.86087" lon="4.08067">
        <ele>404.537</ele>
        <time>2019-03-25T14:37:51Z</time>
      </trkpt>
      <trkpt lat="45.86086" lon="4.08055">
        <ele>404.997</ele>
        <time>2019-03-25T14:37:57Z</time>
      </trkpt>
      <trkpt lat="45.86086" lon="4.08049">
        <ele>404.952</ele>
        <time>2019-03-25T14:38:02Z</time>
      </trkpt>
      <trkpt lat="45.86088" lon="4.0804">
        <ele>404.871</ele>
        <time>2019-03-25T14:38:07Z</time>
      </trkpt>
      <trkpt lat="45.86088" lon="4.08032">
        <ele>405.697</ele>
        <time>2019-03-25T14:38:13Z</time>
      </trkpt>
      <trkpt lat="45.8609" lon="4.08023">
        <ele>406.338</ele>
        <time>2019-03-25T14:38:18Z</time>
      </trkpt>
      <trkpt lat="45.86093" lon="4.08014">
        <ele>407.565</ele>
        <time>2019-03-25T14:38:24Z</time>
      </trkpt>
      <trkpt lat="45.86094" lon="4.08005">
        <ele>408.265</ele>
        <time>2019-03-25T14:38:29Z</time>
      </trkpt>
      <trkpt lat="45.86094" lon="4.07991">
        <ele>409.344</ele>
        <time>2019-03-25T14:38:35Z</time>
      </trkpt>
      <trkpt lat="45.86095" lon="4.07984">
        <ele>409.368</ele>
        <time>2019-03-25T14:38:40Z</time>
      </trkpt>
      <trkpt lat="45.86093" lon="4.07974">
        <ele>408.99</ele>
        <time>2019-03-25T14:38:46Z</time>
      </trkpt>
      <trkpt lat="45.86092" lon="4.07966">
        <ele>408.441</ele>
        <time>2019-03-25T14:38:51Z</time>
      </trkpt>
      <trkpt lat="45.86091" lon="4.07957">
        <ele>407.769</ele>
        <time>2019-03-25T14:38:57Z</time>
      </trkpt>
      <trkpt lat="45.86092" lon="4.07949">
        <ele>407.048</ele>
        <time>2019-03-25T14:39:03Z</time>
      </trkpt>
      <trkpt lat="45.86093" lon="4.07937">
        <ele>406.581</ele>
        <time>2019-03-25T14:39:09Z</time>
      </trkpt>
      <trkpt lat="45.86091" lon="4.07927">
        <ele>405.819</ele>
        <time>2019-03-25T14:39:15Z</time>
      </trkpt>
      <trkpt lat="45.86091" lon="4.07919">
        <ele>405.477</ele>
        <time>2019-03-25T14:39:20Z</time>
      </trkpt>
      <trkpt lat="45.86091" lon="4.07912">
        <ele>405.477</ele>
        <time>2019-03-25T14:39:25Z</time>
      </trkpt>
      <trkpt lat="45.86091" lon="4.07902">
        <ele>405.503</ele>
        <time>2019-03-25T14:39:31Z</time>
      </trkpt>
      <trkpt lat="45.86091" lon="4.07895">
        <ele>405.496</ele>
        <time>2019-03-25T14:39:36Z</time>
      </trkpt>
      <trkpt lat="45.86091" lon="4.07882">
        <ele>405.344</ele>
        <time>2019-03-25T14:39:42Z</time>
      </trkpt>
      <trkpt lat="45.8609" lon="4.07873">
        <ele>405.081</ele>
        <time>2019-03-25T14:39:47Z</time>
      </trkpt>
      <trkpt lat="45.8609" lon="4.07865">
        <ele>404.823</ele>
        <time>2019-03-25T14:39:53Z</time>
      </trkpt>
      <trkpt lat="45.86092" lon="4.07855">
        <ele>404.452</ele>
        <time>2019-03-25T14:39:58Z</time>
      </trkpt>
      <trkpt lat="45.86091" lon="4.07846">
        <ele>403.841</ele>
        <time>2019-03-25T14:40:04Z</time>
      </trkpt>
      <trkpt lat="45.86093" lon="4.07842">
        <ele>403.577</ele>
        <time>2019-03-25T14:40:09Z</time>
      </trkpt>
      <trkpt lat="45.86091" lon="4.0783">
        <ele>403.809</ele>
        <time>2019-03-25T14:40:14Z</time>
      </trkpt>
      <trkpt lat="45.86094" lon="4.07821">
        <ele>404.545</ele>
        <time>2019-03-25T14:40:20Z</time>
      </trkpt>
      <trkpt lat="45.86096" lon="4.0781">
        <ele>405.38</ele>
        <time>2019-03-25T14:40:25Z</time>
      </trkpt>
      <trkpt lat="45.86095" lon="4.078">
        <ele>406.253</ele>
        <time>2019-03-25T14:40:30Z</time>
      </trkpt>
      <trkpt lat="45.86097" lon="4.07791">
        <ele>406.573</ele>
        <time>2019-03-25T14:40:36Z</time>
      </trkpt>
      <trkpt lat="45.86097" lon="4.07783">
        <ele>406.819</ele>
        <time>2019-03-25T14:40:41Z</time>
      </trkpt>
      <trkpt lat="45.86097" lon="4.07773">
        <ele>407.019</ele>
        <time>2019-03-25T14:40:47Z</time>
      </trkpt>
      <trkpt lat="45.86098" lon="4.07762">
        <ele>407.403</ele>
        <time>2019-03-25T14:40:53Z</time>
      </trkpt>
      <trkpt lat="45.86098" lon="4.07753">
        <ele>407.584</ele>
        <time>2019-03-25T14:40:58Z</time>
      </trkpt>
      <trkpt lat="45.86098" lon="4.07744">
        <ele>407.737</ele>
        <time>2019-03-25T14:41:04Z</time>
      </trkpt>
      <trkpt lat="45.86101" lon="4.07736">
        <ele>407.956</ele>
        <time>2019-03-25T14:41:10Z</time>
      </trkpt>
      <trkpt lat="45.86103" lon="4.07725">
        <ele>408.13</ele>
        <time>2019-03-25T14:41:16Z</time>
      </trkpt>
      <trkpt lat="45.86103" lon="4.07714">
        <ele>408.187</ele>
        <time>2019-03-25T14:41:22Z</time>
      </trkpt>
      <trkpt lat="45.86102" lon="4.07706">
        <ele>408.683</ele>
        <time>2019-03-25T14:41:27Z</time>
      </trkpt>
      <trkpt lat="45.86104" lon="4.07692">
        <ele>409.297</ele>
        <time>2019-03-25T14:41:33Z</time>
      </trkpt>
      <trkpt lat="45.86102" lon="4.07681">
        <ele>409.299</ele>
        <time>2019-03-25T14:41:38Z</time>
      </trkpt>
      <trkpt lat="45.86101" lon="4.07675">
        <ele>409.31</ele>
        <time>2019-03-25T14:41:43Z</time>
      </trkpt>
      <trkpt lat="45.86099" lon="4.07665">
        <ele>409.437</ele>
        <time>2019-03-25T14:41:49Z</time>
      </trkpt>
      <trkpt lat="45.861" lon="4.07655">
        <ele>409.507</ele>
        <time>2019-03-25T14:41:55Z</time>
      </trkpt>
      <trkpt lat="45.86099" lon="4.07645">
        <ele>409.5</ele>
        <time>2019-03-25T14:42:00Z</time>
      </trkpt>
      <trkpt lat="45.86098" lon="4.07633">
        <ele>409.434</ele>
        <time>2019-03-25T14:42:06Z</time>
      </trkpt>
      <trkpt lat="45.86095" lon="4.07621">
        <ele>408.741</ele>
        <time>2019-03-25T14:42:12Z</time>
      </trkpt>
      <trkpt lat="45.86094" lon="4.07607">
        <ele>408.78</ele>
        <time>2019-03-25T14:42:18Z</time>
      </trkpt>
      <trkpt lat="45.86092" lon="4.07598">
        <ele>408.979</ele>
        <time>2019-03-25T14:42:24Z</time>
      </trkpt>
      <trkpt lat="45.86091" lon="4.07589">
        <ele>408.831</ele>
        <time>2019-03-25T14:42:29Z</time>
      </trkpt>
      <trkpt lat="45.8609" lon="4.07577">
        <ele>409.53</ele>
        <time>2019-03-25T14:42:35Z</time>
      </trkpt>
      <trkpt lat="45.86089" lon="4.07568">
        <ele>409.861</ele>
        <time>2019-03-25T14:42:40Z</time>
      </trkpt>
      <trkpt lat="45.86086" lon="4.07556">
        <ele>410.105</ele>
        <time>2019-03-25T14:42:45Z</time>
      </trkpt>
      <trkpt lat="45.86086" lon="4.07546">
        <ele>410.398</ele>
        <time>2019-03-25T14:42:50Z</time>
      </trkpt>
      <trkpt lat="45.86086" lon="4.07536">
        <ele>410.196</ele>
        <time>2019-03-25T14:42:56Z</time>
      </trkpt>
      <trkpt lat="45.86086" lon="4.07526">
        <ele>410.132</ele>
        <time>2019-03-25T14:43:01Z</time>
      </trkpt>
      <trkpt lat="45.86083" lon="4.07513">
        <ele>409.996</ele>
        <time>2019-03-25T14:43:07Z</time>
      </trkpt>
      <trkpt lat="45.86081" lon="4.07505">
        <ele>410.235</ele>
        <time>2019-03-25T14:43:12Z</time>
      </trkpt>
      <trkpt lat="45.86079" lon="4.07494">
        <ele>410.577</ele>
        <time>2019-03-25T14:43:17Z</time>
      </trkpt>
      <trkpt lat="45.86077" lon="4.07485">
        <ele>411.335</ele>
        <time>2019-03-25T14:43:23Z</time>
      </trkpt>
      <trkpt lat="45.86074" lon="4.07471">
        <ele>412.165</ele>
        <time>2019-03-25T14:43:29Z</time>
      </trkpt>
      <trkpt lat="45.86072" lon="4.07461">
        <ele>412.613</ele>
        <time>2019-03-25T14:43:35Z</time>
      </trkpt>
      <trkpt lat="45.86072" lon="4.07451">
        <ele>412.768</ele>
        <time>2019-03-25T14:43:40Z</time>
      </trkpt>
      <trkpt lat="45.86071" lon="4.07441">
        <ele>413.087</ele>
        <time>2019-03-25T14:43:46Z</time>
      </trkpt>
      <trkpt lat="45.86069" lon="4.07434">
        <ele>413.45</ele>
        <time>2019-03-25T14:43:51Z</time>
      </trkpt>
      <trkpt lat="45.86064" lon="4.07432">
        <ele>414.046</ele>
        <time>2019-03-25T14:43:57Z</time>
      </trkpt>
      <trkpt lat="45.86058" lon="4.07436">
        <ele>414.803</ele>
        <time>2019-03-25T14:44:03Z</time>
      </trkpt>
      <trkpt lat="45.86054" lon="4.07441">
        <ele>415.776</ele>
        <time>2019-03-25T14:44:09Z</time>
      </trkpt>
      <trkpt lat="45.86048" lon="4.07448">
        <ele>416.649</ele>
        <time>2019-03-25T14:44:14Z</time>
      </trkpt>
      <trkpt lat="45.86043" lon="4.07453">
        <ele>417.57</ele>
        <time>2019-03-25T14:44:20Z</time>
      </trkpt>
      <trkpt lat="45.8604" lon="4.07458">
        <ele>418.301</ele>
        <time>2019-03-25T14:44:25Z</time>
      </trkpt>
      <trkpt lat="45.86034" lon="4.07462">
        <ele>418.538</ele>
        <time>2019-03-25T14:44:31Z</time>
      </trkpt>
      <trkpt lat="45.86026" lon="4.07468">
        <ele>419.312</ele>
        <time>2019-03-25T14:44:37Z</time>
      </trkpt>
      <trkpt lat="45.86019" lon="4.07475">
        <ele>419.782</ele>
        <time>2019-03-25T14:44:42Z</time>
      </trkpt>
      <trkpt lat="45.86012" lon="4.07481">
        <ele>419.789</ele>
        <time>2019-03-25T14:44:48Z</time>
      </trkpt>
      <trkpt lat="45.86007" lon="4.07485">
        <ele>419.683</ele>
        <time>2019-03-25T14:44:53Z</time>
      </trkpt>
      <trkpt lat="45.86" lon="4.0749">
        <ele>419.596</ele>
        <time>2019-03-25T14:44:59Z</time>
      </trkpt>
      <trkpt lat="45.85994" lon="4.07495">
        <ele>419.362</ele>
        <time>2019-03-25T14:45:04Z</time>
      </trkpt>
      <trkpt lat="45.85987" lon="4.07503">
        <ele>418.999</ele>
        <time>2019-03-25T14:45:10Z</time>
      </trkpt>
      <trkpt lat="45.85982" lon="4.07508">
        <ele>418.821</ele>
        <time>2019-03-25T14:45:16Z</time>
      </trkpt>
      <trkpt lat="45.85975" lon="4.07514">
        <ele>418.198</ele>
        <time>2019-03-25T14:45:22Z</time>
      </trkpt>
      <trkpt lat="45.85968" lon="4.07521">
        <ele>417.828</ele>
        <time>2019-03-25T14:45:27Z</time>
      </trkpt>
      <trkpt lat="45.85963" lon="4.07528">
        <ele>417.734</ele>
        <time>2019-03-25T14:45:33Z</time>
      </trkpt>
      <trkpt lat="45.85959" lon="4.07535">
        <ele>417.959</ele>
        <time>2019-03-25T14:45:39Z</time>
      </trkpt>
      <trkpt lat="45.85954" lon="4.0754">
        <ele>418.098</ele>
        <time>2019-03-25T14:45:44Z</time>
      </trkpt>
      <trkpt lat="45.85949" lon="4.07549">
        <ele>417.913</ele>
        <time>2019-03-25T14:45:50Z</time>
      </trkpt>
      <trkpt lat="45.85941" lon="4.07557">
        <ele>417.418</ele>
        <time>2019-03-25T14:45:56Z</time>
      </trkpt>
      <trkpt lat="45.85936" lon="4.07561">
        <ele>417.079</ele>
        <time>2019-03-25T14:46:01Z</time>
      </trkpt>
      <trkpt lat="45.85931" lon="4.07565">
        <ele>417.01</ele>
        <time>2019-03-25T14:46:07Z</time>
      </trkpt>
      <trkpt lat="45.85925" lon="4.07569">
        <ele>416.79</ele>
        <time>2019-03-25T14:46:13Z</time>
      </trkpt>
      <trkpt lat="45.8592" lon="4.07572">
        <ele>416.645</ele>
        <time>2019-03-25T14:46:18Z</time>
      </trkpt>
      <trkpt lat="45.85912" lon="4.07577">
        <ele>416.686</ele>
        <time>2019-03-25T14:46:24Z</time>
      </trkpt>
      <trkpt lat="45.85906" lon="4.07579">
        <ele>416.435</ele>
        <time>2019-03-25T14:46:30Z</time>
      </trkpt>
      <trkpt lat="45.85902" lon="4.07578">
        <ele>416.596</ele>
        <time>2019-03-25T14:46:35Z</time>
      </trkpt>
      <trkpt lat="45.85895" lon="4.07571">
        <ele>416.204</ele>
        <time>2019-03-25T14:46:41Z</time>
      </trkpt>
      <trkpt lat="45.85893" lon="4.07571">
        <ele>415.837</ele>
        <time>2019-03-25T14:46:47Z</time>
      </trkpt>
      <trkpt lat="45.85888" lon="4.07573">
        <ele>415.508</ele>
        <time>2019-03-25T14:46:52Z</time>
      </trkpt>
      <trkpt lat="45.85881" lon="4.07577">
        <ele>415.565</ele>
        <time>2019-03-25T14:46:58Z</time>
      </trkpt>
      <trkpt lat="45.85878" lon="4.07579">
        <ele>415.735</ele>
        <time>2019-03-25T14:47:03Z</time>
      </trkpt>
      <trkpt lat="45.85873" lon="4.07583">
        <ele>416.294</ele>
        <time>2019-03-25T14:47:09Z</time>
      </trkpt>
      <trkpt lat="45.85868" lon="4.07587">
        <ele>416.22</ele>
        <time>2019-03-25T14:47:14Z</time>
      </trkpt>
      <trkpt lat="45.85867" lon="4.0759">
        <ele>416.121</ele>
        <time>2019-03-25T14:47:19Z</time>
      </trkpt>
      <trkpt lat="45.85862" lon="4.07595">
        <ele>416.082</ele>
        <time>2019-03-25T14:47:25Z</time>
      </trkpt>
      <trkpt lat="45.8586" lon="4.076">
        <ele>416.018</ele>
        <time>2019-03-25T14:47:30Z</time>
      </trkpt>
      <trkpt lat="45.85858" lon="4.07608">
        <ele>415.984</ele>
        <time>2019-03-25T14:47:36Z</time>
      </trkpt>
      <trkpt lat="45.85856" lon="4.07612">
        <ele>415.997</ele>
        <time>2019-03-25T14:47:41Z</time>
      </trkpt>
      <trkpt lat="45.85855" lon="4.07618">
        <ele>416.253</ele>
        <time>2019-03-25T14:47:46Z</time>
      </trkpt>
      <trkpt lat="45.85854" lon="4.07623">
        <ele>416.857</ele>
        <time>2019-03-25T14:47:52Z</time>
      </trkpt>
      <trkpt lat="45.85854" lon="4.07628">
        <ele>417.114</ele>
        <time>2019-03-25T14:47:58Z</time>
      </trkpt>
      <trkpt lat="45.85853" lon="4.07634">
        <ele>417.158</ele>
        <time>2019-03-25T14:48:03Z</time>
      </trkpt>
      <trkpt lat="45.85851" lon="4.07643">
        <ele>417.059</ele>
        <time>2019-03-25T14:48:09Z</time>
      </trkpt>
      <trkpt lat="45.8585" lon="4.07647">
        <ele>417.348</ele>
        <time>2019-03-25T14:48:14Z</time>
      </trkpt>
      <trkpt lat="45.85849" lon="4.07652">
        <ele>417.721</ele>
        <time>2019-03-25T14:48:20Z</time>
      </trkpt>
      <trkpt lat="45.85849" lon="4.07656">
        <ele>417.664</ele>
        <time>2019-03-25T14:48:25Z</time>
      </trkpt>
      <trkpt lat="45.85846" lon="4.07659">
        <ele>416.91</ele>
        <time>2019-03-25T14:48:31Z</time>
      </trkpt>
      <trkpt lat="45.85845" lon="4.0766">
        <ele>416.621</ele>
        <time>2019-03-25T14:48:37Z</time>
      </trkpt>
      <trkpt lat="45.85844" lon="4.07664">
        <ele>415.985</ele>
        <time>2019-03-25T14:48:43Z</time>
      </trkpt>
      <trkpt lat="45.85844" lon="4.07664">
        <ele>415.188</ele>
        <time>2019-03-25T14:48:49Z</time>
      </trkpt>
      <trkpt lat="45.85845" lon="4.07665">
        <ele>414.834</ele>
        <time>2019-03-25T14:48:55Z</time>
      </trkpt>
      <trkpt lat="45.85845" lon="4.07666">
        <ele>414.634</ele>
        <time>2019-03-25T14:49:00Z</time>
      </trkpt>
      <trkpt lat="45.85845" lon="4.07666">
        <ele>415.101</ele>
        <time>2019-03-25T14:49:06Z</time>
      </trkpt>
      <trkpt lat="45.85845" lon="4.07666">
        <ele>415.95</ele>
        <time>2019-03-25T14:49:11Z</time>
      </trkpt>
      <trkpt lat="45.85844" lon="4.07669">
        <ele>416.373</ele>
        <time>2019-03-25T14:49:17Z</time>
      </trkpt>
      <trkpt lat="45.85843" lon="4.07672">
        <ele>416.774</ele>
        <time>2019-03-25T14:49:22Z</time>
      </trkpt>
      <trkpt lat="45.85841" lon="4.07676">
        <ele>417.365</ele>
        <time>2019-03-25T14:49:27Z</time>
      </trkpt>
      <trkpt lat="45.8584" lon="4.0768">
        <ele>417.956</ele>
        <time>2019-03-25T14:49:33Z</time>
      </trkpt>
      <trkpt lat="45.85835" lon="4.07686">
        <ele>418.507</ele>
        <time>2019-03-25T14:49:39Z</time>
      </trkpt>
      <trkpt lat="45.8583" lon="4.07692">
        <ele>418.845</ele>
        <time>2019-03-25T14:49:44Z</time>
      </trkpt>
      <trkpt lat="45.85825" lon="4.07698">
        <ele>418.602</ele>
        <time>2019-03-25T14:49:50Z</time>
      </trkpt>
      <trkpt lat="45.8582" lon="4.07703">
        <ele>418.746</ele>
        <time>2019-03-25T14:49:56Z</time>
      </trkpt>
      <trkpt lat="45.85814" lon="4.07706">
        <ele>418.697</ele>
        <time>2019-03-25T14:50:01Z</time>
      </trkpt>
      <trkpt lat="45.85808" lon="4.0771">
        <ele>418.317</ele>
        <time>2019-03-25T14:50:06Z</time>
      </trkpt>
      <trkpt lat="45.85802" lon="4.07712">
        <ele>417.705</ele>
        <time>2019-03-25T14:50:12Z</time>
      </trkpt>
      <trkpt lat="45.85793" lon="4.07716">
        <ele>416.971</ele>
        <time>2019-03-25T14:50:18Z</time>
      </trkpt>
      <trkpt lat="45.85785" lon="4.07719">
        <ele>416.45</ele>
        <time>2019-03-25T14:50:24Z</time>
      </trkpt>
      <trkpt lat="45.85781" lon="4.07721">
        <ele>416.113</ele>
        <time>2019-03-25T14:50:29Z</time>
      </trkpt>
      <trkpt lat="45.85774" lon="4.07723">
        <ele>416.211</ele>
        <time>2019-03-25T14:50:35Z</time>
      </trkpt>
      <trkpt lat="45.85768" lon="4.07725">
        <ele>416.461</ele>
        <time>2019-03-25T14:50:41Z</time>
      </trkpt>
      <trkpt lat="45.85763" lon="4.07728">
        <ele>416.673</ele>
        <time>2019-03-25T14:50:46Z</time>
      </trkpt>
      <trkpt lat="45.85759" lon="4.07728">
        <ele>416.931</ele>
        <time>2019-03-25T14:50:51Z</time>
      </trkpt>
      <trkpt lat="45.85752" lon="4.07731">
        <ele>417.499</ele>
        <time>2019-03-25T14:50:57Z</time>
      </trkpt>
      <trkpt lat="45.85747" lon="4.07734">
        <ele>417.846</ele>
        <time>2019-03-25T14:51:02Z</time>
      </trkpt>
      <trkpt lat="45.85743" lon="4.07737">
        <ele>418.29</ele>
        <time>2019-03-25T14:51:07Z</time>
      </trkpt>
      <trkpt lat="45.85737" lon="4.0774">
        <ele>418.933</ele>
        <time>2019-03-25T14:51:13Z</time>
      </trkpt>
      <trkpt lat="45.85731" lon="4.07744">
        <ele>419.254</ele>
        <time>2019-03-25T14:51:18Z</time>
      </trkpt>
      <trkpt lat="45.85725" lon="4.07747">
        <ele>419.687</ele>
        <time>2019-03-25T14:51:24Z</time>
      </trkpt>
      <trkpt lat="45.85715" lon="4.0775">
        <ele>420.36</ele>
        <time>2019-03-25T14:51:30Z</time>
      </trkpt>
      <trkpt lat="45.85708" lon="4.07752">
        <ele>420.408</ele>
        <time>2019-03-25T14:51:35Z</time>
      </trkpt>
      <trkpt lat="45.85698" lon="4.07754">
        <ele>420.482</ele>
        <time>2019-03-25T14:51:41Z</time>
      </trkpt>
      <trkpt lat="45.85689" lon="4.07758">
        <ele>420.357</ele>
        <time>2019-03-25T14:51:47Z</time>
      </trkpt>
      <trkpt lat="45.85681" lon="4.07764">
        <ele>420.308</ele>
        <time>2019-03-25T14:51:52Z</time>
      </trkpt>
      <trkpt lat="45.85677" lon="4.07766">
        <ele>420.411</ele>
        <time>2019-03-25T14:51:58Z</time>
      </trkpt>
      <trkpt lat="45.85672" lon="4.0777">
        <ele>420.433</ele>
        <time>2019-03-25T14:52:03Z</time>
      </trkpt>
      <trkpt lat="45.85668" lon="4.07773">
        <ele>420.587</ele>
        <time>2019-03-25T14:52:08Z</time>
      </trkpt>
      <trkpt lat="45.85661" lon="4.0778">
        <ele>420.41</ele>
        <time>2019-03-25T14:52:14Z</time>
      </trkpt>
      <trkpt lat="45.85654" lon="4.07788">
        <ele>419.974</ele>
        <time>2019-03-25T14:52:20Z</time>
      </trkpt>
      <trkpt lat="45.85648" lon="4.07795">
        <ele>419.574</ele>
        <time>2019-03-25T14:52:26Z</time>
      </trkpt>
      <trkpt lat="45.85644" lon="4.07804">
        <ele>419.072</ele>
        <time>2019-03-25T14:52:31Z</time>
      </trkpt>
      <trkpt lat="45.8564" lon="4.07812">
        <ele>419.235</ele>
        <time>2019-03-25T14:52:37Z</time>
      </trkpt>
      <trkpt lat="45.85635" lon="4.07821">
        <ele>419.349</ele>
        <time>2019-03-25T14:52:43Z</time>
      </trkpt>
      <trkpt lat="45.8563" lon="4.07828">
        <ele>419.5</ele>
        <time>2019-03-25T14:52:48Z</time>
      </trkpt>
      <trkpt lat="45.85625" lon="4.07836">
        <ele>419.569</ele>
        <time>2019-03-25T14:52:54Z</time>
      </trkpt>
      <trkpt lat="45.8562" lon="4.07843">
        <ele>419.62</ele>
        <time>2019-03-25T14:53:00Z</time>
      </trkpt>
      <trkpt lat="45.85616" lon="4.07849">
        <ele>419.549</ele>
        <time>2019-03-25T14:53:05Z</time>
      </trkpt>
      <trkpt lat="45.85611" lon="4.07858">
        <ele>419.164</ele>
        <time>2019-03-25T14:53:11Z</time>
      </trkpt>
      <trkpt lat="45.85607" lon="4.07866">
        <ele>418.767</ele>
        <time>2019-03-25T14:53:17Z</time>
      </trkpt>
      <trkpt lat="45.85603" lon="4.07874">
        <ele>418.554</ele>
        <time>2019-03-25T14:53:22Z</time>
      </trkpt>
      <trkpt lat="45.85598" lon="4.07883">
        <ele>418.245</ele>
        <time>2019-03-25T14:53:28Z</time>
      </trkpt>
      <trkpt lat="45.85594" lon="4.0789">
        <ele>418.523</ele>
        <time>2019-03-25T14:53:33Z</time>
      </trkpt>
      <trkpt lat="45.85589" lon="4.07897">
        <ele>418.57</ele>
        <time>2019-03-25T14:53:38Z</time>
      </trkpt>
      <trkpt lat="45.85585" lon="4.07905">
        <ele>418.619</ele>
        <time>2019-03-25T14:53:44Z</time>
      </trkpt>
      <trkpt lat="45.85581" lon="4.07912">
        <ele>418.839</ele>
        <time>2019-03-25T14:53:49Z</time>
      </trkpt>
      <trkpt lat="45.85576" lon="4.0792">
        <ele>419.015</ele>
        <time>2019-03-25T14:53:55Z</time>
      </trkpt>
      <trkpt lat="45.8557" lon="4.07929">
        <ele>419.28</ele>
        <time>2019-03-25T14:54:01Z</time>
      </trkpt>
      <trkpt lat="45.85566" lon="4.07938">
        <ele>419.594</ele>
        <time>2019-03-25T14:54:07Z</time>
      </trkpt>
      <trkpt lat="45.8556" lon="4.07946">
        <ele>419.628</ele>
        <time>2019-03-25T14:54:13Z</time>
      </trkpt>
      <trkpt lat="45.85556" lon="4.07953">
        <ele>419.773</ele>
        <time>2019-03-25T14:54:18Z</time>
      </trkpt>
      <trkpt lat="45.85552" lon="4.0796">
        <ele>419.767</ele>
        <time>2019-03-25T14:54:24Z</time>
      </trkpt>
      <trkpt lat="45.85546" lon="4.07969">
        <ele>419.85</ele>
        <time>2019-03-25T14:54:29Z</time>
      </trkpt>
      <trkpt lat="45.85542" lon="4.0798">
        <ele>420.099</ele>
        <time>2019-03-25T14:54:35Z</time>
      </trkpt>
      <trkpt lat="45.85537" lon="4.07988">
        <ele>419.876</ele>
        <time>2019-03-25T14:54:41Z</time>
      </trkpt>
      <trkpt lat="45.85533" lon="4.07995">
        <ele>419.844</ele>
        <time>2019-03-25T14:54:46Z</time>
      </trkpt>
      <trkpt lat="45.85528" lon="4.08003">
        <ele>419.772</ele>
        <time>2019-03-25T14:54:51Z</time>
      </trkpt>
      <trkpt lat="45.85525" lon="4.08012">
        <ele>419.386</ele>
        <time>2019-03-25T14:54:57Z</time>
      </trkpt>
      <trkpt lat="45.8552" lon="4.08021">
        <ele>418.942</ele>
        <time>2019-03-25T14:55:03Z</time>
      </trkpt>
      <trkpt lat="45.85515" lon="4.08026">
        <ele>418.894</ele>
        <time>2019-03-25T14:55:08Z</time>
      </trkpt>
      <trkpt lat="45.85509" lon="4.0803">
        <ele>419.111</ele>
        <time>2019-03-25T14:55:14Z</time>
      </trkpt>
      <trkpt lat="45.85501" lon="4.08034">
        <ele>419.248</ele>
        <time>2019-03-25T14:55:20Z</time>
      </trkpt>
      <trkpt lat="45.85495" lon="4.0804">
        <ele>419.212</ele>
        <time>2019-03-25T14:55:25Z</time>
      </trkpt>
      <trkpt lat="45.85489" lon="4.08046">
        <ele>419.274</ele>
        <time>2019-03-25T14:55:30Z</time>
      </trkpt>
      <trkpt lat="45.85485" lon="4.08054">
        <ele>419.375</ele>
        <time>2019-03-25T14:55:36Z</time>
      </trkpt>
      <trkpt lat="45.85483" lon="4.08062">
        <ele>419.35</ele>
        <time>2019-03-25T14:55:41Z</time>
      </trkpt>
      <trkpt lat="45.85483" lon="4.08072">
        <ele>419.127</ele>
        <time>2019-03-25T14:55:47Z</time>
      </trkpt>
      <trkpt lat="45.85484" lon="4.08084">
        <ele>419.152</ele>
        <time>2019-03-25T14:55:53Z</time>
      </trkpt>
      <trkpt lat="45.85484" lon="4.08095">
        <ele>419.218</ele>
        <time>2019-03-25T14:55:58Z</time>
      </trkpt>
      <trkpt lat="45.85484" lon="4.0811">
        <ele>419.309</ele>
        <time>2019-03-25T14:56:04Z</time>
      </trkpt>
      <trkpt lat="45.85484" lon="4.0812">
        <ele>419.223</ele>
        <time>2019-03-25T14:56:09Z</time>
      </trkpt>
      <trkpt lat="45.85484" lon="4.08133">
        <ele>418.853</ele>
        <time>2019-03-25T14:56:15Z</time>
      </trkpt>
      <trkpt lat="45.85484" lon="4.08144">
        <ele>418.423</ele>
        <time>2019-03-25T14:56:20Z</time>
      </trkpt>
      <trkpt lat="45.85484" lon="4.08156">
        <ele>418.128</ele>
        <time>2019-03-25T14:56:26Z</time>
      </trkpt>
      <trkpt lat="45.85484" lon="4.08168">
        <ele>417.991</ele>
        <time>2019-03-25T14:56:31Z</time>
      </trkpt>
      <trkpt lat="45.85484" lon="4.08178">
        <ele>417.969</ele>
        <time>2019-03-25T14:56:37Z</time>
      </trkpt>
      <trkpt lat="45.85482" lon="4.0819">
        <ele>418.024</ele>
        <time>2019-03-25T14:56:43Z</time>
      </trkpt>
      <trkpt lat="45.85482" lon="4.08201">
        <ele>418.024</ele>
        <time>2019-03-25T14:56:48Z</time>
      </trkpt>
      <trkpt lat="45.85481" lon="4.08213">
        <ele>417.953</ele>
        <time>2019-03-25T14:56:54Z</time>
      </trkpt>
      <trkpt lat="45.85479" lon="4.08224">
        <ele>417.853</ele>
        <time>2019-03-25T14:57:00Z</time>
      </trkpt>
      <trkpt lat="45.85478" lon="4.08233">
        <ele>418.142</ele>
        <time>2019-03-25T14:57:05Z</time>
      </trkpt>
      <trkpt lat="45.85477" lon="4.08243">
        <ele>418.129</ele>
        <time>2019-03-25T14:57:11Z</time>
      </trkpt>
      <trkpt lat="45.85476" lon="4.08257">
        <ele>418.051</ele>
        <time>2019-03-25T14:57:17Z</time>
      </trkpt>
      <trkpt lat="45.85475" lon="4.08266">
        <ele>418.011</ele>
        <time>2019-03-25T14:57:23Z</time>
      </trkpt>
      <trkpt lat="45.85474" lon="4.08277">
        <ele>417.884</ele>
        <time>2019-03-25T14:57:29Z</time>
      </trkpt>
      <trkpt lat="45.85473" lon="4.08289">
        <ele>417.855</ele>
        <time>2019-03-25T14:57:35Z</time>
      </trkpt>
      <trkpt lat="45.85471" lon="4.08299">
        <ele>417.8</ele>
        <time>2019-03-25T14:57:41Z</time>
      </trkpt>
      <trkpt lat="45.85469" lon="4.08309">
        <ele>417.886</ele>
        <time>2019-03-25T14:57:46Z</time>
      </trkpt>
      <trkpt lat="45.85468" lon="4.08319">
        <ele>418.191</ele>
        <time>2019-03-25T14:57:52Z</time>
      </trkpt>
      <trkpt lat="45.85466" lon="4.0833">
        <ele>418.244</ele>
        <time>2019-03-25T14:57:57Z</time>
      </trkpt>
      <trkpt lat="45.85466" lon="4.08336">
        <ele>418.415</ele>
        <time>2019-03-25T14:58:02Z</time>
      </trkpt>
      <trkpt lat="45.85464" lon="4.08347">
        <ele>418.576</ele>
        <time>2019-03-25T14:58:08Z</time>
      </trkpt>
      <trkpt lat="45.85462" lon="4.08358">
        <ele>418.886</ele>
        <time>2019-03-25T14:58:14Z</time>
      </trkpt>
      <trkpt lat="45.8546" lon="4.08369">
        <ele>419.255</ele>
        <time>2019-03-25T14:58:19Z</time>
      </trkpt>
      <trkpt lat="45.85458" lon="4.08379">
        <ele>419.628</ele>
        <time>2019-03-25T14:58:25Z</time>
      </trkpt>
      <trkpt lat="45.85457" lon="4.08388">
        <ele>419.706</ele>
        <time>2019-03-25T14:58:30Z</time>
      </trkpt>
      <trkpt lat="45.85455" lon="4.084">
        <ele>419.795</ele>
        <time>2019-03-25T14:58:36Z</time>
      </trkpt>
      <trkpt lat="45.85456" lon="4.08408">
        <ele>419.454</ele>
        <time>2019-03-25T14:58:42Z</time>
      </trkpt>
      <trkpt lat="45.85462" lon="4.08418">
        <ele>418.936</ele>
        <time>2019-03-25T14:58:48Z</time>
      </trkpt>
      <trkpt lat="45.85467" lon="4.08426">
        <ele>418.51</ele>
        <time>2019-03-25T14:58:54Z</time>
      </trkpt>
      <trkpt lat="45.85471" lon="4.08434">
        <ele>418.081</ele>
        <time>2019-03-25T14:59:00Z</time>
      </trkpt>
      <trkpt lat="45.85474" lon="4.0844">
        <ele>418.243</ele>
        <time>2019-03-25T14:59:06Z</time>
      </trkpt>
      <trkpt lat="45.85479" lon="4.08446">
        <ele>418.371</ele>
        <time>2019-03-25T14:59:11Z</time>
      </trkpt>
      <trkpt lat="45.85481" lon="4.0845">
        <ele>419.033</ele>
        <time>2019-03-25T14:59:17Z</time>
      </trkpt>
      <trkpt lat="45.85482" lon="4.08455">
        <ele>419.477</ele>
        <time>2019-03-25T14:59:22Z</time>
      </trkpt>
      <trkpt lat="45.85486" lon="4.08466">
        <ele>419.766</ele>
        <time>2019-03-25T14:59:28Z</time>
      </trkpt>
      <trkpt lat="45.85491" lon="4.08473">
        <ele>419.982</ele>
        <time>2019-03-25T14:59:34Z</time>
      </trkpt>
      <trkpt lat="45.85497" lon="4.08482">
        <ele>420.436</ele>
        <time>2019-03-25T14:59:40Z</time>
      </trkpt>
      <trkpt lat="45.85501" lon="4.08493">
        <ele>420.575</ele>
        <time>2019-03-25T14:59:46Z</time>
      </trkpt>
      <trkpt lat="45.85504" lon="4.08501">
        <ele>420.54</ele>
        <time>2019-03-25T14:59:52Z</time>
      </trkpt>
      <trkpt lat="45.85507" lon="4.08509">
        <ele>420.519</ele>
        <time>2019-03-25T14:59:57Z</time>
      </trkpt>
      <trkpt lat="45.8551" lon="4.08518">
        <ele>420.65</ele>
        <time>2019-03-25T15:00:02Z</time>
      </trkpt>
      <trkpt lat="45.85513" lon="4.08526">
        <ele>420.698</ele>
        <time>2019-03-25T15:00:08Z</time>
      </trkpt>
      <trkpt lat="45.85514" lon="4.08534">
        <ele>420.555</ele>
        <time>2019-03-25T15:00:13Z</time>
      </trkpt>
      <trkpt lat="45.85515" lon="4.08543">
        <ele>420.255</ele>
        <time>2019-03-25T15:00:19Z</time>
      </trkpt>
      <trkpt lat="45.85518" lon="4.08551">
        <ele>419.962</ele>
        <time>2019-03-25T15:00:25Z</time>
      </trkpt>
      <trkpt lat="45.85519" lon="4.0855">
        <ele>419.363</ele>
        <time>2019-03-25T15:00:30Z</time>
      </trkpt>
      <trkpt lat="45.8552" lon="4.08553">
        <ele>419.398</ele>
        <time>2019-03-25T15:00:36Z</time>
      </trkpt>
      <trkpt lat="45.85519" lon="4.08553">
        <ele>419.47</ele>
        <time>2019-03-25T15:00:42Z</time>
      </trkpt>
      <trkpt lat="45.85518" lon="4.08553">
        <ele>418.988</ele>
        <time>2019-03-25T15:00:48Z</time>
      </trkpt>
      <trkpt lat="45.85518" lon="4.08553">
        <ele>418.196</ele>
        <time>2019-03-25T15:00:54Z</time>
      </trkpt>
      <trkpt lat="45.85517" lon="4.08553">
        <ele>417.952</ele>
        <time>2019-03-25T15:00:59Z</time>
      </trkpt>
      <trkpt lat="45.85518" lon="4.08553">
        <ele>418.545</ele>
        <time>2019-03-25T15:01:05Z</time>
      </trkpt>
      <trkpt lat="45.85519" lon="4.08553">
        <ele>418.898</ele>
        <time>2019-03-25T15:01:11Z</time>
      </trkpt>
      <trkpt lat="45.85519" lon="4.08553">
        <ele>419.099</ele>
        <time>2019-03-25T15:01:16Z</time>
      </trkpt>
      <trkpt lat="45.85519" lon="4.08554">
        <ele>419.101</ele>
        <time>2019-03-25T15:01:21Z</time>
      </trkpt>
      <trkpt lat="45.85519" lon="4.08555">
        <ele>419.508</ele>
        <time>2019-03-25T15:01:27Z</time>
      </trkpt>
      <trkpt lat="45.8552" lon="4.08555">
        <ele>419.913</ele>
        <time>2019-03-25T15:01:33Z</time>
      </trkpt>
      <trkpt lat="45.8552" lon="4.08556">
        <ele>420.46</ele>
        <time>2019-03-25T15:01:39Z</time>
      </trkpt>
      <trkpt lat="45.85518" lon="4.08561">
        <ele>420.417</ele>
        <time>2019-03-25T15:01:45Z</time>
      </trkpt>
      <trkpt lat="45.85517" lon="4.08561">
        <ele>420.57</ele>
        <time>2019-03-25T15:01:51Z</time>
      </trkpt>
      <trkpt lat="45.85517" lon="4.0856">
        <ele>420.957</ele>
        <time>2019-03-25T15:01:56Z</time>
      </trkpt>
      <trkpt lat="45.85518" lon="4.08558">
        <ele>421.178</ele>
        <time>2019-03-25T15:02:02Z</time>
      </trkpt>
      <trkpt lat="45.85518" lon="4.08554">
        <ele>421.07</ele>
        <time>2019-03-25T15:02:07Z</time>
      </trkpt>
      <trkpt lat="45.85519" lon="4.08554">
        <ele>420.741</ele>
        <time>2019-03-25T15:02:12Z</time>
      </trkpt>
      <trkpt lat="45.85519" lon="4.08554">
        <ele>420.449</ele>
        <time>2019-03-25T15:02:18Z</time>
      </trkpt>
      <trkpt lat="45.85519" lon="4.08552">
        <ele>420.424</ele>
        <time>2019-03-25T15:02:23Z</time>
      </trkpt>
      <trkpt lat="45.8552" lon="4.0855">
        <ele>420.432</ele>
        <time>2019-03-25T15:02:29Z</time>
      </trkpt>
      <trkpt lat="45.85521" lon="4.0855">
        <ele>420.189</ele>
        <time>2019-03-25T15:02:35Z</time>
      </trkpt>
      <trkpt lat="45.85521" lon="4.0855">
        <ele>419.967</ele>
        <time>2019-03-25T15:02:41Z</time>
      </trkpt>
      <trkpt lat="45.8552" lon="4.08548">
        <ele>420.245</ele>
        <time>2019-03-25T15:02:46Z</time>
      </trkpt>
      <trkpt lat="45.8552" lon="4.08549">
        <ele>420.41</ele>
        <time>2019-03-25T15:02:52Z</time>
      </trkpt>
      <trkpt lat="45.8552" lon="4.08549">
        <ele>420.501</ele>
        <time>2019-03-25T15:02:58Z</time>
      </trkpt>
      <trkpt lat="45.8552" lon="4.08551">
        <ele>420.123</ele>
        <time>2019-03-25T15:03:04Z</time>
      </trkpt>
      <trkpt lat="45.8552" lon="4.08552">
        <ele>420.078</ele>
        <time>2019-03-25T15:03:09Z</time>
      </trkpt>
      <trkpt lat="45.8552" lon="4.08553">
        <ele>420.128</ele>
        <time>2019-03-25T15:03:15Z</time>
      </trkpt>
      <trkpt lat="45.8552" lon="4.0855">
        <ele>420.007</ele>
        <time>2019-03-25T15:03:21Z</time>
      </trkpt>
      <trkpt lat="45.85519" lon="4.0855">
        <ele>420.083</ele>
        <time>2019-03-25T15:03:27Z</time>
      </trkpt>
      <trkpt lat="45.85519" lon="4.08552">
        <ele>420.335</ele>
        <time>2019-03-25T15:03:32Z</time>
      </trkpt>
      <trkpt lat="45.85519" lon="4.08553">
        <ele>420.307</ele>
        <time>2019-03-25T15:03:38Z</time>
      </trkpt>
      <trkpt lat="45.85517" lon="4.08556">
        <ele>420.237</ele>
        <time>2019-03-25T15:03:43Z</time>
      </trkpt>
      <trkpt lat="45.85517" lon="4.08554">
        <ele>420.504</ele>
        <time>2019-03-25T15:03:49Z</time>
      </trkpt>
      <trkpt lat="45.85516" lon="4.08554">
        <ele>420.32</ele>
        <time>2019-03-25T15:03:55Z</time>
      </trkpt>
      <trkpt lat="45.85516" lon="4.08554">
        <ele>420.168</ele>
        <time>2019-03-25T15:04:00Z</time>
      </trkpt>
      <trkpt lat="45.85516" lon="4.08554">
        <ele>419.905</ele>
        <time>2019-03-25T15:04:06Z</time>
      </trkpt>
      <trkpt lat="45.85517" lon="4.08555">
        <ele>419.148</ele>
        <time>2019-03-25T15:04:12Z</time>
      </trkpt>
      <trkpt lat="45.85517" lon="4.08554">
        <ele>418.899</ele>
        <time>2019-03-25T15:04:17Z</time>
      </trkpt>
      <trkpt lat="45.85517" lon="4.08556">
        <ele>418.769</ele>
        <time>2019-03-25T15:04:22Z</time>
      </trkpt>
      <trkpt lat="45.85517" lon="4.08555">
        <ele>418.815</ele>
        <time>2019-03-25T15:04:28Z</time>
      </trkpt>
      <trkpt lat="45.85516" lon="4.08555">
        <ele>418.876</ele>
        <time>2019-03-25T15:04:34Z</time>
      </trkpt>
      <trkpt lat="45.85516" lon="4.08556">
        <ele>419.1</ele>
        <time>2019-03-25T15:04:39Z</time>
      </trkpt>
      <trkpt lat="45.85516" lon="4.08558">
        <ele>419.028</ele>
        <time>2019-03-25T15:04:45Z</time>
      </trkpt>
      <trkpt lat="45.85517" lon="4.08558">
        <ele>419</ele>
        <time>2019-03-25T15:04:50Z</time>
      </trkpt>
      <trkpt lat="45.85518" lon="4.08558">
        <ele>419.031</ele>
        <time>2019-03-25T15:04:56Z</time>
      </trkpt>
      <trkpt lat="45.85519" lon="4.08557">
        <ele>418.889</ele>
        <time>2019-03-25T15:05:01Z</time>
      </trkpt>
      <trkpt lat="45.8552" lon="4.08558">
        <ele>418.503</ele>
        <time>2019-03-25T15:05:06Z</time>
      </trkpt>
      <trkpt lat="45.85519" lon="4.08557">
        <ele>418.348</ele>
        <time>2019-03-25T15:05:12Z</time>
      </trkpt>
      <trkpt lat="45.85519" lon="4.08557">
        <ele>418.303</ele>
        <time>2019-03-25T15:05:18Z</time>
      </trkpt>
      <trkpt lat="45.85519" lon="4.0856">
        <ele>418.186</ele>
        <time>2019-03-25T15:05:23Z</time>
      </trkpt>
      <trkpt lat="45.85518" lon="4.08559">
        <ele>417.951</ele>
        <time>2019-03-25T15:05:28Z</time>
      </trkpt>
      <trkpt lat="45.85519" lon="4.08558">
        <ele>418.206</ele>
        <time>2019-03-25T15:05:34Z</time>
      </trkpt>
      <trkpt lat="45.85518" lon="4.0856">
        <ele>418.344</ele>
        <time>2019-03-25T15:05:39Z</time>
      </trkpt>
      <trkpt lat="45.85518" lon="4.08563">
        <ele>418.441</ele>
        <time>2019-03-25T15:05:45Z</time>
      </trkpt>
      <trkpt lat="45.85519" lon="4.08569">
        <ele>418.305</ele>
        <time>2019-03-25T15:05:51Z</time>
      </trkpt>
      <trkpt lat="45.85521" lon="4.08577">
        <ele>418.327</ele>
        <time>2019-03-25T15:05:56Z</time>
      </trkpt>
      <trkpt lat="45.85522" lon="4.08585">
        <ele>418.271</ele>
        <time>2019-03-25T15:06:01Z</time>
      </trkpt>
      <trkpt lat="45.85522" lon="4.08595">
        <ele>418.448</ele>
        <time>2019-03-25T15:06:07Z</time>
      </trkpt>
      <trkpt lat="45.85524" lon="4.08603">
        <ele>418.765</ele>
        <time>2019-03-25T15:06:12Z</time>
      </trkpt>
      <trkpt lat="45.85525" lon="4.08611">
        <ele>419.142</ele>
        <time>2019-03-25T15:06:18Z</time>
      </trkpt>
      <trkpt lat="45.85527" lon="4.08621">
        <ele>418.761</ele>
        <time>2019-03-25T15:06:24Z</time>
      </trkpt>
      <trkpt lat="45.85527" lon="4.08629">
        <ele>419.039</ele>
        <time>2019-03-25T15:06:30Z</time>
      </trkpt>
      <trkpt lat="45.85529" lon="4.08643">
        <ele>418.429</ele>
        <time>2019-03-25T15:06:36Z</time>
      </trkpt>
      <trkpt lat="45.85532" lon="4.08651">
        <ele>418.428</ele>
        <time>2019-03-25T15:06:42Z</time>
      </trkpt>
      <trkpt lat="45.85532" lon="4.0866">
        <ele>418.592</ele>
        <time>2019-03-25T15:06:48Z</time>
      </trkpt>
      <trkpt lat="45.85535" lon="4.08669">
        <ele>418.832</ele>
        <time>2019-03-25T15:06:54Z</time>
      </trkpt>
      <trkpt lat="45.85538" lon="4.08678">
        <ele>418.37</ele>
        <time>2019-03-25T15:06:59Z</time>
      </trkpt>
      <trkpt lat="45.85538" lon="4.08686">
        <ele>418.012</ele>
        <time>2019-03-25T15:07:04Z</time>
      </trkpt>
      <trkpt lat="45.85539" lon="4.08695">
        <ele>417.86</ele>
        <time>2019-03-25T15:07:10Z</time>
      </trkpt>
      <trkpt lat="45.8554" lon="4.08704">
        <ele>417.686</ele>
        <time>2019-03-25T15:07:15Z</time>
      </trkpt>
      <trkpt lat="45.85542" lon="4.08713">
        <ele>417.618</ele>
        <time>2019-03-25T15:07:21Z</time>
      </trkpt>
      <trkpt lat="45.85543" lon="4.08721">
        <ele>417.567</ele>
        <time>2019-03-25T15:07:26Z</time>
      </trkpt>
      <trkpt lat="45.85546" lon="4.0873">
        <ele>417.4</ele>
        <time>2019-03-25T15:07:32Z</time>
      </trkpt>
      <trkpt lat="45.85548" lon="4.08738">
        <ele>417.247</ele>
        <time>2019-03-25T15:07:38Z</time>
      </trkpt>
      <trkpt lat="45.85551" lon="4.08748">
        <ele>417.543</ele>
        <time>2019-03-25T15:07:44Z</time>
      </trkpt>
      <trkpt lat="45.85554" lon="4.08755">
        <ele>417.718</ele>
        <time>2019-03-25T15:07:50Z</time>
      </trkpt>
      <trkpt lat="45.85556" lon="4.08764">
        <ele>417.608</ele>
        <time>2019-03-25T15:07:55Z</time>
      </trkpt>
      <trkpt lat="45.85559" lon="4.08769">
        <ele>417.541</ele>
        <time>2019-03-25T15:08:00Z</time>
      </trkpt>
      <trkpt lat="45.85561" lon="4.08776">
        <ele>417.63</ele>
        <time>2019-03-25T15:08:06Z</time>
      </trkpt>
      <trkpt lat="45.85565" lon="4.08785">
        <ele>417.727</ele>
        <time>2019-03-25T15:08:12Z</time>
      </trkpt>
      <trkpt lat="45.85568" lon="4.0879">
        <ele>417.938</ele>
        <time>2019-03-25T15:08:17Z</time>
      </trkpt>
      <trkpt lat="45.85571" lon="4.08799">
        <ele>418.064</ele>
        <time>2019-03-25T15:08:23Z</time>
      </trkpt>
      <trkpt lat="45.85574" lon="4.08805">
        <ele>418.298</ele>
        <time>2019-03-25T15:08:28Z</time>
      </trkpt>
      <trkpt lat="45.85578" lon="4.08816">
        <ele>418.649</ele>
        <time>2019-03-25T15:08:34Z</time>
      </trkpt>
      <trkpt lat="45.85581" lon="4.08826">
        <ele>418.732</ele>
        <time>2019-03-25T15:08:40Z</time>
      </trkpt>
      <trkpt lat="45.85585" lon="4.08835">
        <ele>418.406</ele>
        <time>2019-03-25T15:08:46Z</time>
      </trkpt>
      <trkpt lat="45.8559" lon="4.08843">
        <ele>418.377</ele>
        <time>2019-03-25T15:08:52Z</time>
      </trkpt>
      <trkpt lat="45.85594" lon="4.08851">
        <ele>418.497</ele>
        <time>2019-03-25T15:08:57Z</time>
      </trkpt>
      <trkpt lat="45.85598" lon="4.08859">
        <ele>418.474</ele>
        <time>2019-03-25T15:09:03Z</time>
      </trkpt>
      <trkpt lat="45.85602" lon="4.08869">
        <ele>418.755</ele>
        <time>2019-03-25T15:09:09Z</time>
      </trkpt>
      <trkpt lat="45.85606" lon="4.08879">
        <ele>418.672</ele>
        <time>2019-03-25T15:09:15Z</time>
      </trkpt>
      <trkpt lat="45.85609" lon="4.0889">
        <ele>418.301</ele>
        <time>2019-03-25T15:09:21Z</time>
      </trkpt>
      <trkpt lat="45.85612" lon="4.08897">
        <ele>418.029</ele>
        <time>2019-03-25T15:09:26Z</time>
      </trkpt>
      <trkpt lat="45.85613" lon="4.08907">
        <ele>417.667</ele>
        <time>2019-03-25T15:09:31Z</time>
      </trkpt>
      <trkpt lat="45.85615" lon="4.08915">
        <ele>417.817</ele>
        <time>2019-03-25T15:09:37Z</time>
      </trkpt>
      <trkpt lat="45.85618" lon="4.08925">
        <ele>418.097</ele>
        <time>2019-03-25T15:09:42Z</time>
      </trkpt>
      <trkpt lat="45.8562" lon="4.08933">
        <ele>417.977</ele>
        <time>2019-03-25T15:09:48Z</time>
      </trkpt>
      <trkpt lat="45.85622" lon="4.08943">
        <ele>418.319</ele>
        <time>2019-03-25T15:09:54Z</time>
      </trkpt>
      <trkpt lat="45.85624" lon="4.08952">
        <ele>418.504</ele>
        <time>2019-03-25T15:09:59Z</time>
      </trkpt>
      <trkpt lat="45.85625" lon="4.08962">
        <ele>418.816</ele>
        <time>2019-03-25T15:10:04Z</time>
      </trkpt>
      <trkpt lat="45.85628" lon="4.08973">
        <ele>418.787</ele>
        <time>2019-03-25T15:10:10Z</time>
      </trkpt>
      <trkpt lat="45.85631" lon="4.08981">
        <ele>418.772</ele>
        <time>2019-03-25T15:10:15Z</time>
      </trkpt>
      <trkpt lat="45.85633" lon="4.08991">
        <ele>419.085</ele>
        <time>2019-03-25T15:10:21Z</time>
      </trkpt>
      <trkpt lat="45.85635" lon="4.08998">
        <ele>419.391</ele>
        <time>2019-03-25T15:10:27Z</time>
      </trkpt>
      <trkpt lat="45.85641" lon="4.09009">
        <ele>419.659</ele>
        <time>2019-03-25T15:10:33Z</time>
      </trkpt>
      <trkpt lat="45.85646" lon="4.09017">
        <ele>419.423</ele>
        <time>2019-03-25T15:10:38Z</time>
      </trkpt>
      <trkpt lat="45.8565" lon="4.09026">
        <ele>419.456</ele>
        <time>2019-03-25T15:10:44Z</time>
      </trkpt>
      <trkpt lat="45.85653" lon="4.09034">
        <ele>419.689</ele>
        <time>2019-03-25T15:10:49Z</time>
      </trkpt>
      <trkpt lat="45.85654" lon="4.09043">
        <ele>419.872</ele>
        <time>2019-03-25T15:10:55Z</time>
      </trkpt>
      <trkpt lat="45.85659" lon="4.09053">
        <ele>419.695</ele>
        <time>2019-03-25T15:11:01Z</time>
      </trkpt>
      <trkpt lat="45.85662" lon="4.09062">
        <ele>419.64</ele>
        <time>2019-03-25T15:11:07Z</time>
      </trkpt>
      <trkpt lat="45.85665" lon="4.09071">
        <ele>419.819</ele>
        <time>2019-03-25T15:11:13Z</time>
      </trkpt>
      <trkpt lat="45.85667" lon="4.09079">
        <ele>420.102</ele>
        <time>2019-03-25T15:11:18Z</time>
      </trkpt>
      <trkpt lat="45.85671" lon="4.09089">
        <ele>420.049</ele>
        <time>2019-03-25T15:11:24Z</time>
      </trkpt>
      <trkpt lat="45.85674" lon="4.09098">
        <ele>420.011</ele>
        <time>2019-03-25T15:11:30Z</time>
      </trkpt>
      <trkpt lat="45.85677" lon="4.09106">
        <ele>420.272</ele>
        <time>2019-03-25T15:11:35Z</time>
      </trkpt>
      <trkpt lat="45.8568" lon="4.09114">
        <ele>420.474</ele>
        <time>2019-03-25T15:11:40Z</time>
      </trkpt>
      <trkpt lat="45.85684" lon="4.09125">
        <ele>420.301</ele>
        <time>2019-03-25T15:11:46Z</time>
      </trkpt>
      <trkpt lat="45.85688" lon="4.09132">
        <ele>420.635</ele>
        <time>2019-03-25T15:11:51Z</time>
      </trkpt>
      <trkpt lat="45.85692" lon="4.09141">
        <ele>420.696</ele>
        <time>2019-03-25T15:11:57Z</time>
      </trkpt>
      <trkpt lat="45.85696" lon="4.09148">
        <ele>420.665</ele>
        <time>2019-03-25T15:12:03Z</time>
      </trkpt>
      <trkpt lat="45.857" lon="4.09158">
        <ele>420.857</ele>
        <time>2019-03-25T15:12:09Z</time>
      </trkpt>
      <trkpt lat="45.85701" lon="4.09167">
        <ele>420.955</ele>
        <time>2019-03-25T15:12:14Z</time>
      </trkpt>
      <trkpt lat="45.85704" lon="4.09175">
        <ele>421.168</ele>
        <time>2019-03-25T15:12:19Z</time>
      </trkpt>
      <trkpt lat="45.85708" lon="4.09182">
        <ele>421.208</ele>
        <time>2019-03-25T15:12:25Z</time>
      </trkpt>
      <trkpt lat="45.85714" lon="4.09191">
        <ele>421.647</ele>
        <time>2019-03-25T15:12:31Z</time>
      </trkpt>
      <trkpt lat="45.8572" lon="4.092">
        <ele>421.602</ele>
        <time>2019-03-25T15:12:37Z</time>
      </trkpt>
      <trkpt lat="45.85725" lon="4.09208">
        <ele>421.967</ele>
        <time>2019-03-25T15:12:43Z</time>
      </trkpt>
      <trkpt lat="45.85727" lon="4.09215">
        <ele>422.33</ele>
        <time>2019-03-25T15:12:48Z</time>
      </trkpt>
      <trkpt lat="45.85731" lon="4.09222">
        <ele>422.27</ele>
        <time>2019-03-25T15:12:54Z</time>
      </trkpt>
      <trkpt lat="45.85735" lon="4.09228">
        <ele>422.501</ele>
        <time>2019-03-25T15:13:00Z</time>
      </trkpt>
      <trkpt lat="45.85739" lon="4.09237">
        <ele>422.639</ele>
        <time>2019-03-25T15:13:05Z</time>
      </trkpt>
      <trkpt lat="45.85743" lon="4.09243">
        <ele>422.885</ele>
        <time>2019-03-25T15:13:10Z</time>
      </trkpt>
      <trkpt lat="45.85749" lon="4.09249">
        <ele>423.222</ele>
        <time>2019-03-25T15:13:16Z</time>
      </trkpt>
      <trkpt lat="45.85755" lon="4.09258">
        <ele>423.586</ele>
        <time>2019-03-25T15:13:22Z</time>
      </trkpt>
      <trkpt lat="45.8576" lon="4.09266">
        <ele>423.428</ele>
        <time>2019-03-25T15:13:28Z</time>
      </trkpt>
      <trkpt lat="45.85763" lon="4.09272">
        <ele>423.457</ele>
        <time>2019-03-25T15:13:33Z</time>
      </trkpt>
      <trkpt lat="45.85769" lon="4.0928">
        <ele>423.783</ele>
        <time>2019-03-25T15:13:39Z</time>
      </trkpt>
      <trkpt lat="45.85773" lon="4.09287">
        <ele>423.775</ele>
        <time>2019-03-25T15:13:44Z</time>
      </trkpt>
      <trkpt lat="45.85778" lon="4.09295">
        <ele>423.659</ele>
        <time>2019-03-25T15:13:50Z</time>
      </trkpt>
      <trkpt lat="45.85783" lon="4.09303">
        <ele>423.596</ele>
        <time>2019-03-25T15:13:56Z</time>
      </trkpt>
      <trkpt lat="45.85788" lon="4.09309">
        <ele>423.447</ele>
        <time>2019-03-25T15:14:01Z</time>
      </trkpt>
      <trkpt lat="45.85793" lon="4.09318">
        <ele>423.321</ele>
        <time>2019-03-25T15:14:07Z</time>
      </trkpt>
      <trkpt lat="45.85797" lon="4.09323">
        <ele>423.287</ele>
        <time>2019-03-25T15:14:12Z</time>
      </trkpt>
      <trkpt lat="45.85801" lon="4.09333">
        <ele>423.293</ele>
        <time>2019-03-25T15:14:18Z</time>
      </trkpt>
      <trkpt lat="45.85804" lon="4.09339">
        <ele>422.887</ele>
        <time>2019-03-25T15:14:24Z</time>
      </trkpt>
      <trkpt lat="45.8581" lon="4.0935">
        <ele>423.094</ele>
        <time>2019-03-25T15:14:30Z</time>
      </trkpt>
      <trkpt lat="45.85815" lon="4.09358">
        <ele>423.439</ele>
        <time>2019-03-25T15:14:35Z</time>
      </trkpt>
      <trkpt lat="45.8582" lon="4.09367">
        <ele>423.598</ele>
        <time>2019-03-25T15:14:41Z</time>
      </trkpt>
      <trkpt lat="45.85823" lon="4.09373">
        <ele>423.577</ele>
        <time>2019-03-25T15:14:46Z</time>
      </trkpt>
      <trkpt lat="45.85828" lon="4.09383">
        <ele>424.157</ele>
        <time>2019-03-25T15:14:52Z</time>
      </trkpt>
      <trkpt lat="45.85831" lon="4.09388">
        <ele>424.424</ele>
        <time>2019-03-25T15:14:57Z</time>
      </trkpt>
      <trkpt lat="45.85836" lon="4.09396">
        <ele>424.758</ele>
        <time>2019-03-25T15:15:03Z</time>
      </trkpt>
      <trkpt lat="45.85836" lon="4.09403">
        <ele>425.232</ele>
        <time>2019-03-25T15:15:09Z</time>
      </trkpt>
      <trkpt lat="45.85833" lon="4.09409">
        <ele>425.864</ele>
        <time>2019-03-25T15:15:15Z</time>
      </trkpt>
      <trkpt lat="45.85828" lon="4.09415">
        <ele>426.477</ele>
        <time>2019-03-25T15:15:21Z</time>
      </trkpt>
      <trkpt lat="45.85826" lon="4.09419">
        <ele>427.101</ele>
        <time>2019-03-25T15:15:27Z</time>
      </trkpt>
      <trkpt lat="45.8582" lon="4.09424">
        <ele>427.26</ele>
        <time>2019-03-25T15:15:32Z</time>
      </trkpt>
      <trkpt lat="45.85812" lon="4.09429">
        <ele>427.711</ele>
        <time>2019-03-25T15:15:38Z</time>
      </trkpt>
      <trkpt lat="45.85806" lon="4.09435">
        <ele>428.324</ele>
        <time>2019-03-25T15:15:44Z</time>
      </trkpt>
      <trkpt lat="45.85803" lon="4.0944">
        <ele>428.649</ele>
        <time>2019-03-25T15:15:49Z</time>
      </trkpt>
      <trkpt lat="45.85797" lon="4.09449">
        <ele>428.883</ele>
        <time>2019-03-25T15:15:55Z</time>
      </trkpt>
      <trkpt lat="45.85791" lon="4.09456">
        <ele>429.178</ele>
        <time>2019-03-25T15:16:01Z</time>
      </trkpt>
      <trkpt lat="45.85786" lon="4.09463">
        <ele>429.685</ele>
        <time>2019-03-25T15:16:07Z</time>
      </trkpt>
      <trkpt lat="45.85781" lon="4.09469">
        <ele>430.252</ele>
        <time>2019-03-25T15:16:13Z</time>
      </trkpt>
      <trkpt lat="45.85777" lon="4.09474">
        <ele>430.523</ele>
        <time>2019-03-25T15:16:18Z</time>
      </trkpt>
      <trkpt lat="45.85774" lon="4.09481">
        <ele>431.086</ele>
        <time>2019-03-25T15:16:23Z</time>
      </trkpt>
      <trkpt lat="45.85771" lon="4.09487">
        <ele>431.502</ele>
        <time>2019-03-25T15:16:29Z</time>
      </trkpt>
      <trkpt lat="45.85766" lon="4.09495">
        <ele>431.742</ele>
        <time>2019-03-25T15:16:35Z</time>
      </trkpt>
      <trkpt lat="45.85763" lon="4.09501">
        <ele>431.785</ele>
        <time>2019-03-25T15:16:40Z</time>
      </trkpt>
      <trkpt lat="45.8576" lon="4.09507">
        <ele>431.656</ele>
        <time>2019-03-25T15:16:45Z</time>
      </trkpt>
      <trkpt lat="45.85756" lon="4.09514">
        <ele>432.066</ele>
        <time>2019-03-25T15:16:51Z</time>
      </trkpt>
      <trkpt lat="45.85754" lon="4.09521">
        <ele>432.44</ele>
        <time>2019-03-25T15:16:56Z</time>
      </trkpt>
      <trkpt lat="45.8575" lon="4.09529">
        <ele>433.004</ele>
        <time>2019-03-25T15:17:02Z</time>
      </trkpt>
      <trkpt lat="45.85746" lon="4.09535">
        <ele>433.505</ele>
        <time>2019-03-25T15:17:07Z</time>
      </trkpt>
      <trkpt lat="45.85741" lon="4.09546">
        <ele>434.003</ele>
        <time>2019-03-25T15:17:13Z</time>
      </trkpt>
      <trkpt lat="45.85737" lon="4.09553">
        <ele>434.204</ele>
        <time>2019-03-25T15:17:19Z</time>
      </trkpt>
      <trkpt lat="45.85736" lon="4.0956">
        <ele>434.195</ele>
        <time>2019-03-25T15:17:24Z</time>
      </trkpt>
      <trkpt lat="45.8573" lon="4.09568">
        <ele>434.375</ele>
        <time>2019-03-25T15:17:30Z</time>
      </trkpt>
      <trkpt lat="45.85726" lon="4.09576">
        <ele>434.76</ele>
        <time>2019-03-25T15:17:35Z</time>
      </trkpt>
      <trkpt lat="45.85723" lon="4.09584">
        <ele>435.227</ele>
        <time>2019-03-25T15:17:41Z</time>
      </trkpt>
      <trkpt lat="45.85718" lon="4.09593">
        <ele>435.488</ele>
        <time>2019-03-25T15:17:47Z</time>
      </trkpt>
      <trkpt lat="45.85713" lon="4.09601">
        <ele>436.073</ele>
        <time>2019-03-25T15:17:53Z</time>
      </trkpt>
      <trkpt lat="45.85709" lon="4.09609">
        <ele>436.657</ele>
        <time>2019-03-25T15:17:59Z</time>
      </trkpt>
      <trkpt lat="45.85704" lon="4.09619">
        <ele>437.082</ele>
        <time>2019-03-25T15:18:05Z</time>
      </trkpt>
      <trkpt lat="45.85702" lon="4.09624">
        <ele>438.37</ele>
        <time>2019-03-25T15:18:11Z</time>
      </trkpt>
      <trkpt lat="45.85699" lon="4.09631">
        <ele>438.747</ele>
        <time>2019-03-25T15:18:16Z</time>
      </trkpt>
      <trkpt lat="45.85695" lon="4.0964">
        <ele>438.997</ele>
        <time>2019-03-25T15:18:22Z</time>
      </trkpt>
      <trkpt lat="45.85693" lon="4.09647">
        <ele>439.593</ele>
        <time>2019-03-25T15:18:27Z</time>
      </trkpt>
      <trkpt lat="45.85687" lon="4.09658">
        <ele>440.451</ele>
        <time>2019-03-25T15:18:33Z</time>
      </trkpt>
      <trkpt lat="45.85681" lon="4.09667">
        <ele>441.306</ele>
        <time>2019-03-25T15:18:38Z</time>
      </trkpt>
      <trkpt lat="45.8568" lon="4.09674">
        <ele>442.084</ele>
        <time>2019-03-25T15:18:44Z</time>
      </trkpt>
      <trkpt lat="45.85676" lon="4.09683">
        <ele>442.204</ele>
        <time>2019-03-25T15:18:49Z</time>
      </trkpt>
      <trkpt lat="45.85671" lon="4.09691">
        <ele>442.645</ele>
        <time>2019-03-25T15:18:55Z</time>
      </trkpt>
      <trkpt lat="45.85668" lon="4.09696">
        <ele>442.852</ele>
        <time>2019-03-25T15:19:01Z</time>
      </trkpt>
      <trkpt lat="45.85662" lon="4.09711">
        <ele>443.055</ele>
        <time>2019-03-25T15:19:07Z</time>
      </trkpt>
      <trkpt lat="45.8566" lon="4.09718">
        <ele>443.499</ele>
        <time>2019-03-25T15:19:12Z</time>
      </trkpt>
      <trkpt lat="45.85657" lon="4.09726">
        <ele>443.538</ele>
        <time>2019-03-25T15:19:18Z</time>
      </trkpt>
      <trkpt lat="45.85652" lon="4.09733">
        <ele>442.8</ele>
        <time>2019-03-25T15:19:24Z</time>
      </trkpt>
      <trkpt lat="45.85649" lon="4.0974">
        <ele>442.128</ele>
        <time>2019-03-25T15:19:30Z</time>
      </trkpt>
      <trkpt lat="45.85645" lon="4.09749">
        <ele>441.669</ele>
        <time>2019-03-25T15:19:36Z</time>
      </trkpt>
      <trkpt lat="45.85642" lon="4.0976">
        <ele>441.775</ele>
        <time>2019-03-25T15:19:41Z</time>
      </trkpt>
      <trkpt lat="45.85638" lon="4.09764">
        <ele>441.861</ele>
        <time>2019-03-25T15:19:47Z</time>
      </trkpt>
      <trkpt lat="45.85633" lon="4.09773">
        <ele>441.803</ele>
        <time>2019-03-25T15:19:53Z</time>
      </trkpt>
      <trkpt lat="45.85629" lon="4.09779">
        <ele>442.126</ele>
        <time>2019-03-25T15:19:58Z</time>
      </trkpt>
      <trkpt lat="45.85624" lon="4.09787">
        <ele>442.263</ele>
        <time>2019-03-25T15:20:04Z</time>
      </trkpt>
      <trkpt lat="45.85618" lon="4.09796">
        <ele>441.888</ele>
        <time>2019-03-25T15:20:10Z</time>
      </trkpt>
      <trkpt lat="45.85613" lon="4.09803">
        <ele>441.409</ele>
        <time>2019-03-25T15:20:16Z</time>
      </trkpt>
      <trkpt lat="45.85608" lon="4.09809">
        <ele>441.179</ele>
        <time>2019-03-25T15:20:21Z</time>
      </trkpt>
      <trkpt lat="45.85601" lon="4.09816">
        <ele>441.068</ele>
        <time>2019-03-25T15:20:27Z</time>
      </trkpt>
      <trkpt lat="45.85596" lon="4.09824">
        <ele>441.081</ele>
        <time>2019-03-25T15:20:33Z</time>
      </trkpt>
      <trkpt lat="45.85594" lon="4.0983">
        <ele>441.062</ele>
        <time>2019-03-25T15:20:39Z</time>
      </trkpt>
      <trkpt lat="45.85591" lon="4.09835">
        <ele>440.886</ele>
        <time>2019-03-25T15:20:44Z</time>
      </trkpt>
      <trkpt lat="45.85584" lon="4.09845">
        <ele>441.111</ele>
        <time>2019-03-25T15:20:50Z</time>
      </trkpt>
      <trkpt lat="45.85579" lon="4.09853">
        <ele>440.974</ele>
        <time>2019-03-25T15:20:55Z</time>
      </trkpt>
      <trkpt lat="45.85576" lon="4.09858">
        <ele>440.371</ele>
        <time>2019-03-25T15:21:01Z</time>
      </trkpt>
      <trkpt lat="45.85571" lon="4.09866">
        <ele>440.11</ele>
        <time>2019-03-25T15:21:06Z</time>
      </trkpt>
      <trkpt lat="45.85565" lon="4.09875">
        <ele>439.752</ele>
        <time>2019-03-25T15:21:12Z</time>
      </trkpt>
      <trkpt lat="45.85562" lon="4.09884">
        <ele>439.06</ele>
        <time>2019-03-25T15:21:17Z</time>
      </trkpt>
      <trkpt lat="45.85559" lon="4.09888">
        <ele>438.388</ele>
        <time>2019-03-25T15:21:22Z</time>
      </trkpt>
      <trkpt lat="45.85552" lon="4.09897">
        <ele>437.896</ele>
        <time>2019-03-25T15:21:28Z</time>
      </trkpt>
      <trkpt lat="45.8555" lon="4.09904">
        <ele>437.852</ele>
        <time>2019-03-25T15:21:33Z</time>
      </trkpt>
      <trkpt lat="45.85547" lon="4.09913">
        <ele>437.762</ele>
        <time>2019-03-25T15:21:39Z</time>
      </trkpt>
      <trkpt lat="45.85545" lon="4.09923">
        <ele>437.656</ele>
        <time>2019-03-25T15:21:45Z</time>
      </trkpt>
      <trkpt lat="45.8554" lon="4.09929">
        <ele>437.556</ele>
        <time>2019-03-25T15:21:50Z</time>
      </trkpt>
      <trkpt lat="45.85533" lon="4.09941">
        <ele>436.922</ele>
        <time>2019-03-25T15:21:56Z</time>
      </trkpt>
      <trkpt lat="45.85529" lon="4.09946">
        <ele>436.878</ele>
        <time>2019-03-25T15:22:02Z</time>
      </trkpt>
      <trkpt lat="45.85525" lon="4.0995">
        <ele>436.832</ele>
        <time>2019-03-25T15:22:07Z</time>
      </trkpt>
      <trkpt lat="45.85518" lon="4.09956">
        <ele>436.403</ele>
        <time>2019-03-25T15:22:13Z</time>
      </trkpt>
      <trkpt lat="45.85513" lon="4.09965">
        <ele>436.704</ele>
        <time>2019-03-25T15:22:18Z</time>
      </trkpt>
      <trkpt lat="45.85509" lon="4.09969">
        <ele>437.259</ele>
        <time>2019-03-25T15:22:24Z</time>
      </trkpt>
      <trkpt lat="45.85501" lon="4.09977">
        <ele>437.419</ele>
        <time>2019-03-25T15:22:29Z</time>
      </trkpt>
      <trkpt lat="45.85496" lon="4.09988">
        <ele>437.374</ele>
        <time>2019-03-25T15:22:35Z</time>
      </trkpt>
      <trkpt lat="45.85492" lon="4.09995">
        <ele>437.087</ele>
        <time>2019-03-25T15:22:40Z</time>
      </trkpt>
      <trkpt lat="45.85486" lon="4.10006">
        <ele>436.897</ele>
        <time>2019-03-25T15:22:46Z</time>
      </trkpt>
      <trkpt lat="45.85485" lon="4.10013">
        <ele>436.612</ele>
        <time>2019-03-25T15:22:51Z</time>
      </trkpt>
      <trkpt lat="45.8548" lon="4.10021">
        <ele>436.548</ele>
        <time>2019-03-25T15:22:57Z</time>
      </trkpt>
      <trkpt lat="45.85477" lon="4.10028">
        <ele>436.231</ele>
        <time>2019-03-25T15:23:03Z</time>
      </trkpt>
      <trkpt lat="45.85466" lon="4.10035">
        <ele>436.377</ele>
        <time>2019-03-25T15:23:09Z</time>
      </trkpt>
      <trkpt lat="45.85461" lon="4.10041">
        <ele>436.465</ele>
        <time>2019-03-25T15:23:14Z</time>
      </trkpt>
      <trkpt lat="45.85455" lon="4.10046">
        <ele>436.456</ele>
        <time>2019-03-25T15:23:20Z</time>
      </trkpt>
      <trkpt lat="45.85448" lon="4.1005">
        <ele>436.639</ele>
        <time>2019-03-25T15:23:26Z</time>
      </trkpt>
      <trkpt lat="45.85443" lon="4.10052">
        <ele>436.849</ele>
        <time>2019-03-25T15:23:31Z</time>
      </trkpt>
      <trkpt lat="45.85436" lon="4.10058">
        <ele>436.581</ele>
        <time>2019-03-25T15:23:37Z</time>
      </trkpt>
      <trkpt lat="45.8543" lon="4.10062">
        <ele>436.137</ele>
        <time>2019-03-25T15:23:43Z</time>
      </trkpt>
      <trkpt lat="45.85422" lon="4.10071">
        <ele>435.704</ele>
        <time>2019-03-25T15:23:48Z</time>
      </trkpt>
      <trkpt lat="45.85416" lon="4.1008">
        <ele>435.995</ele>
        <time>2019-03-25T15:23:54Z</time>
      </trkpt>
      <trkpt lat="45.85413" lon="4.10086">
        <ele>436.207</ele>
        <time>2019-03-25T15:23:59Z</time>
      </trkpt>
      <trkpt lat="45.85409" lon="4.10097">
        <ele>436.28</ele>
        <time>2019-03-25T15:24:05Z</time>
      </trkpt>
      <trkpt lat="45.85405" lon="4.10106">
        <ele>436.123</ele>
        <time>2019-03-25T15:24:11Z</time>
      </trkpt>
      <trkpt lat="45.85398" lon="4.10113">
        <ele>435.938</ele>
        <time>2019-03-25T15:24:17Z</time>
      </trkpt>
      <trkpt lat="45.8539" lon="4.1012">
        <ele>435.735</ele>
        <time>2019-03-25T15:24:23Z</time>
      </trkpt>
      <trkpt lat="45.85383" lon="4.10126">
        <ele>435.912</ele>
        <time>2019-03-25T15:24:29Z</time>
      </trkpt>
      <trkpt lat="45.85377" lon="4.10131">
        <ele>435.884</ele>
        <time>2019-03-25T15:24:34Z</time>
      </trkpt>
      <trkpt lat="45.85372" lon="4.10139">
        <ele>435.997</ele>
        <time>2019-03-25T15:24:40Z</time>
      </trkpt>
      <trkpt lat="45.85367" lon="4.1015">
        <ele>436.018</ele>
        <time>2019-03-25T15:24:45Z</time>
      </trkpt>
      <trkpt lat="45.85361" lon="4.10159">
        <ele>435.921</ele>
        <time>2019-03-25T15:24:51Z</time>
      </trkpt>
      <trkpt lat="45.85358" lon="4.10164">
        <ele>435.719</ele>
        <time>2019-03-25T15:24:56Z</time>
      </trkpt>
      <trkpt lat="45.85358" lon="4.10172">
        <ele>435.807</ele>
        <time>2019-03-25T15:25:01Z</time>
      </trkpt>
      <trkpt lat="45.85356" lon="4.10181">
        <ele>434.943</ele>
        <time>2019-03-25T15:25:07Z</time>
      </trkpt>
      <trkpt lat="45.85356" lon="4.10192">
        <ele>434.193</ele>
        <time>2019-03-25T15:25:13Z</time>
      </trkpt>
      <trkpt lat="45.85352" lon="4.10204">
        <ele>433.585</ele>
        <time>2019-03-25T15:25:18Z</time>
      </trkpt>
      <trkpt lat="45.85345" lon="4.10215">
        <ele>433.354</ele>
        <time>2019-03-25T15:25:24Z</time>
      </trkpt>
      <trkpt lat="45.85342" lon="4.10221">
        <ele>433.501</ele>
        <time>2019-03-25T15:25:29Z</time>
      </trkpt>
      <trkpt lat="45.85336" lon="4.10229">
        <ele>433.548</ele>
        <time>2019-03-25T15:25:35Z</time>
      </trkpt>
      <trkpt lat="45.85327" lon="4.10235">
        <ele>433.579</ele>
        <time>2019-03-25T15:25:41Z</time>
      </trkpt>
      <trkpt lat="45.8532" lon="4.10242">
        <ele>433.172</ele>
        <time>2019-03-25T15:25:46Z</time>
      </trkpt>
      <trkpt lat="45.85315" lon="4.10253">
        <ele>432.46</ele>
        <time>2019-03-25T15:25:52Z</time>
      </trkpt>
      <trkpt lat="45.85312" lon="4.10258">
        <ele>431.883</ele>
        <time>2019-03-25T15:25:57Z</time>
      </trkpt>
      <trkpt lat="45.85309" lon="4.10264">
        <ele>431.355</ele>
        <time>2019-03-25T15:26:02Z</time>
      </trkpt>
      <trkpt lat="45.85305" lon="4.10274">
        <ele>430.821</ele>
        <time>2019-03-25T15:26:07Z</time>
      </trkpt>
      <trkpt lat="45.85301" lon="4.10281">
        <ele>430.557</ele>
        <time>2019-03-25T15:26:13Z</time>
      </trkpt>
      <trkpt lat="45.85298" lon="4.10289">
        <ele>429.935</ele>
        <time>2019-03-25T15:26:18Z</time>
      </trkpt>
      <trkpt lat="45.85293" lon="4.10298">
        <ele>429.955</ele>
        <time>2019-03-25T15:26:24Z</time>
      </trkpt>
      <trkpt lat="45.85289" lon="4.10308">
        <ele>430.005</ele>
        <time>2019-03-25T15:26:29Z</time>
      </trkpt>
      <trkpt lat="45.85285" lon="4.10317">
        <ele>429.842</ele>
        <time>2019-03-25T15:26:35Z</time>
      </trkpt>
      <trkpt lat="45.85282" lon="4.10327">
        <ele>430.015</ele>
        <time>2019-03-25T15:26:40Z</time>
      </trkpt>
      <trkpt lat="45.8528" lon="4.10336">
        <ele>430.042</ele>
        <time>2019-03-25T15:26:46Z</time>
      </trkpt>
      <trkpt lat="45.85278" lon="4.10346">
        <ele>429.994</ele>
        <time>2019-03-25T15:26:52Z</time>
      </trkpt>
      <trkpt lat="45.85275" lon="4.10355">
        <ele>429.766</ele>
        <time>2019-03-25T15:26:57Z</time>
      </trkpt>
      <trkpt lat="45.85273" lon="4.10365">
        <ele>430.28</ele>
        <time>2019-03-25T15:27:03Z</time>
      </trkpt>
      <trkpt lat="45.85272" lon="4.10374">
        <ele>430.683</ele>
        <time>2019-03-25T15:27:09Z</time>
      </trkpt>
      <trkpt lat="45.85269" lon="4.10384">
        <ele>430.911</ele>
        <time>2019-03-25T15:27:14Z</time>
      </trkpt>
      <trkpt lat="45.85266" lon="4.10393">
        <ele>431.052</ele>
        <time>2019-03-25T15:27:19Z</time>
      </trkpt>
      <trkpt lat="45.85261" lon="4.10406">
        <ele>430.864</ele>
        <time>2019-03-25T15:27:25Z</time>
      </trkpt>
      <trkpt lat="45.85259" lon="4.10414">
        <ele>430.988</ele>
        <time>2019-03-25T15:27:30Z</time>
      </trkpt>
      <trkpt lat="45.85257" lon="4.10424">
        <ele>431.026</ele>
        <time>2019-03-25T15:27:36Z</time>
      </trkpt>
      <trkpt lat="45.85255" lon="4.10433">
        <ele>431.253</ele>
        <time>2019-03-25T15:27:41Z</time>
      </trkpt>
      <trkpt lat="45.85254" lon="4.10443">
        <ele>431.435</ele>
        <time>2019-03-25T15:27:47Z</time>
      </trkpt>
      <trkpt lat="45.8525" lon="4.10454">
        <ele>431.421</ele>
        <time>2019-03-25T15:27:53Z</time>
      </trkpt>
      <trkpt lat="45.85247" lon="4.10461">
        <ele>431.424</ele>
        <time>2019-03-25T15:27:58Z</time>
      </trkpt>
      <trkpt lat="45.85243" lon="4.10472">
        <ele>431.571</ele>
        <time>2019-03-25T15:28:04Z</time>
      </trkpt>
      <trkpt lat="45.85238" lon="4.10485">
        <ele>431.088</ele>
        <time>2019-03-25T15:28:10Z</time>
      </trkpt>
      <trkpt lat="45.85235" lon="4.10493">
        <ele>430.281</ele>
        <time>2019-03-25T15:28:16Z</time>
      </trkpt>
      <trkpt lat="45.85232" lon="4.10507">
        <ele>430.294</ele>
        <time>2019-03-25T15:28:21Z</time>
      </trkpt>
      <trkpt lat="45.85231" lon="4.10517">
        <ele>430.318</ele>
        <time>2019-03-25T15:28:27Z</time>
      </trkpt>
      <trkpt lat="45.8523" lon="4.10522">
        <ele>430.387</ele>
        <time>2019-03-25T15:28:32Z</time>
      </trkpt>
      <trkpt lat="45.85229" lon="4.10531">
        <ele>430.625</ele>
        <time>2019-03-25T15:28:38Z</time>
      </trkpt>
      <trkpt lat="45.85227" lon="4.10543">
        <ele>430.694</ele>
        <time>2019-03-25T15:28:43Z</time>
      </trkpt>
      <trkpt lat="45.85226" lon="4.10554">
        <ele>430.924</ele>
        <time>2019-03-25T15:28:49Z</time>
      </trkpt>
      <trkpt lat="45.85223" lon="4.10563">
        <ele>431.048</ele>
        <time>2019-03-25T15:28:54Z</time>
      </trkpt>
      <trkpt lat="45.85219" lon="4.10575">
        <ele>431.275</ele>
        <time>2019-03-25T15:29:00Z</time>
      </trkpt>
      <trkpt lat="45.85216" lon="4.1058">
        <ele>431.364</ele>
        <time>2019-03-25T15:29:05Z</time>
      </trkpt>
      <trkpt lat="45.85211" lon="4.10593">
        <ele>431.011</ele>
        <time>2019-03-25T15:29:11Z</time>
      </trkpt>
      <trkpt lat="45.85209" lon="4.10599">
        <ele>431.052</ele>
        <time>2019-03-25T15:29:17Z</time>
      </trkpt>
      <trkpt lat="45.85204" lon="4.10611">
        <ele>431.359</ele>
        <time>2019-03-25T15:29:23Z</time>
      </trkpt>
      <trkpt lat="45.85201" lon="4.10619">
        <ele>431.635</ele>
        <time>2019-03-25T15:29:29Z</time>
      </trkpt>
      <trkpt lat="45.85197" lon="4.10627">
        <ele>431.9</ele>
        <time>2019-03-25T15:29:35Z</time>
      </trkpt>
      <trkpt lat="45.85192" lon="4.10636">
        <ele>432.164</ele>
        <time>2019-03-25T15:29:41Z</time>
      </trkpt>
      <trkpt lat="45.85186" lon="4.10643">
        <ele>432.657</ele>
        <time>2019-03-25T15:29:46Z</time>
      </trkpt>
      <trkpt lat="45.85178" lon="4.10652">
        <ele>433.162</ele>
        <time>2019-03-25T15:29:52Z</time>
      </trkpt>
      <trkpt lat="45.85174" lon="4.10657">
        <ele>434.011</ele>
        <time>2019-03-25T15:29:57Z</time>
      </trkpt>
      <trkpt lat="45.85169" lon="4.1066">
        <ele>434.653</ele>
        <time>2019-03-25T15:30:03Z</time>
      </trkpt>
      <trkpt lat="45.85165" lon="4.10661">
        <ele>435.117</ele>
        <time>2019-03-25T15:30:09Z</time>
      </trkpt>
      <trkpt lat="45.85162" lon="4.10658">
        <ele>435.014</ele>
        <time>2019-03-25T15:30:15Z</time>
      </trkpt>
      <trkpt lat="45.8516" lon="4.10651">
        <ele>435.266</ele>
        <time>2019-03-25T15:30:21Z</time>
      </trkpt>
      <trkpt lat="45.85161" lon="4.10654">
        <ele>435.403</ele>
        <time>2019-03-25T15:30:27Z</time>
      </trkpt>
      <trkpt lat="45.85163" lon="4.10656">
        <ele>435.188</ele>
        <time>2019-03-25T15:30:32Z</time>
      </trkpt>
      <trkpt lat="45.85163" lon="4.1066">
        <ele>435.226</ele>
        <time>2019-03-25T15:30:38Z</time>
      </trkpt>
      <trkpt lat="45.85164" lon="4.10662">
        <ele>435.181</ele>
        <time>2019-03-25T15:30:43Z</time>
      </trkpt>
      <trkpt lat="45.85164" lon="4.10664">
        <ele>435.73</ele>
        <time>2019-03-25T15:30:49Z</time>
      </trkpt>
      <trkpt lat="45.85164" lon="4.10664">
        <ele>436.152</ele>
        <time>2019-03-25T15:30:55Z</time>
      </trkpt>
      <trkpt lat="45.85164" lon="4.10667">
        <ele>436.137</ele>
        <time>2019-03-25T15:31:01Z</time>
      </trkpt>
      <trkpt lat="45.85164" lon="4.10666">
        <ele>436.05</ele>
        <time>2019-03-25T15:31:06Z</time>
      </trkpt>
      <trkpt lat="45.85165" lon="4.10665">
        <ele>436.439</ele>
        <time>2019-03-25T15:31:11Z</time>
      </trkpt>
      <trkpt lat="45.85164" lon="4.10663">
        <ele>437.1</ele>
        <time>2019-03-25T15:31:17Z</time>
      </trkpt>
      <trkpt lat="45.85163" lon="4.10663">
        <ele>437.801</ele>
        <time>2019-03-25T15:31:23Z</time>
      </trkpt>
      <trkpt lat="45.85161" lon="4.10666">
        <ele>437.549</ele>
        <time>2019-03-25T15:31:29Z</time>
      </trkpt>
      <trkpt lat="45.85161" lon="4.10667">
        <ele>437.17</ele>
        <time>2019-03-25T15:31:35Z</time>
      </trkpt>
      <trkpt lat="45.85162" lon="4.10665">
        <ele>437.201</ele>
        <time>2019-03-25T15:31:40Z</time>
      </trkpt>
      <trkpt lat="45.85163" lon="4.10665">
        <ele>437.29</ele>
        <time>2019-03-25T15:31:45Z</time>
      </trkpt>
      <trkpt lat="45.85166" lon="4.10664">
        <ele>437.487</ele>
        <time>2019-03-25T15:31:51Z</time>
      </trkpt>
      <trkpt lat="45.8517" lon="4.10664">
        <ele>437.684</ele>
        <time>2019-03-25T15:31:56Z</time>
      </trkpt>
      <trkpt lat="45.85173" lon="4.10665">
        <ele>438.396</ele>
        <time>2019-03-25T15:32:02Z</time>
      </trkpt>
      <trkpt lat="45.85173" lon="4.10667">
        <ele>440.55</ele>
        <time>2019-03-25T15:32:08Z</time>
      </trkpt>
      <trkpt lat="45.85174" lon="4.10667">
        <ele>441.939</ele>
        <time>2019-03-25T15:32:13Z</time>
      </trkpt>
      <trkpt lat="45.85174" lon="4.10668">
        <ele>441.968</ele>
        <time>2019-03-25T15:32:18Z</time>
      </trkpt>
      <trkpt lat="45.85175" lon="4.1067">
        <ele>442.039</ele>
        <time>2019-03-25T15:32:23Z</time>
      </trkpt>
      <trkpt lat="45.85174" lon="4.10672">
        <ele>442.001</ele>
        <time>2019-03-25T15:32:28Z</time>
      </trkpt>
      <trkpt lat="45.85174" lon="4.10672">
        <ele>441.876</ele>
        <time>2019-03-25T15:32:34Z</time>
      </trkpt>
      <trkpt lat="45.85175" lon="4.10672">
        <ele>441.726</ele>
        <time>2019-03-25T15:32:39Z</time>
      </trkpt>
      <trkpt lat="45.85175" lon="4.10672">
        <ele>441.7</ele>
        <time>2019-03-25T15:32:45Z</time>
      </trkpt>
      <trkpt lat="45.85175" lon="4.10672">
        <ele>441.766</ele>
        <time>2019-03-25T15:32:51Z</time>
      </trkpt>
      <trkpt lat="45.85175" lon="4.10672">
        <ele>441.848</ele>
        <time>2019-03-25T15:32:56Z</time>
      </trkpt>
      <trkpt lat="45.85175" lon="4.10672">
        <ele>442.065</ele>
        <time>2019-03-25T15:33:02Z</time>
      </trkpt>
      <trkpt lat="45.85175" lon="4.10672">
        <ele>442.131</ele>
        <time>2019-03-25T15:33:07Z</time>
      </trkpt>
      <trkpt lat="45.85175" lon="4.10672">
        <ele>442.156</ele>
        <time>2019-03-25T15:33:13Z</time>
      </trkpt>
      <trkpt lat="45.85175" lon="4.10672">
        <ele>442.153</ele>
        <time>2019-03-25T15:33:18Z</time>
      </trkpt>
      <trkpt lat="45.85175" lon="4.10672">
        <ele>442.216</ele>
        <time>2019-03-25T15:33:24Z</time>
      </trkpt>
      <trkpt lat="45.85175" lon="4.10672">
        <ele>442.307</ele>
        <time>2019-03-25T15:33:29Z</time>
      </trkpt>
      <trkpt lat="45.85175" lon="4.10673">
        <ele>441.906</ele>
        <time>2019-03-25T15:33:35Z</time>
      </trkpt>
      <trkpt lat="45.85175" lon="4.10674">
        <ele>441.845</ele>
        <time>2019-03-25T15:33:41Z</time>
      </trkpt>
      <trkpt lat="45.85175" lon="4.10674">
        <ele>441.531</ele>
        <time>2019-03-25T15:33:47Z</time>
      </trkpt>
      <trkpt lat="45.85175" lon="4.10674">
        <ele>441.249</ele>
        <time>2019-03-25T15:33:53Z</time>
      </trkpt>
      <trkpt lat="45.85175" lon="4.10674">
        <ele>441.225</ele>
        <time>2019-03-25T15:33:58Z</time>
      </trkpt>
      <trkpt lat="45.85175" lon="4.10674">
        <ele>441.227</ele>
        <time>2019-03-25T15:34:04Z</time>
      </trkpt>
      <trkpt lat="45.85175" lon="4.10674">
        <ele>441.171</ele>
        <time>2019-03-25T15:34:09Z</time>
      </trkpt>
      <trkpt lat="45.85175" lon="4.10673">
        <ele>441.017</ele>
        <time>2019-03-25T15:34:15Z</time>
      </trkpt>
      <trkpt lat="45.85176" lon="4.10673">
        <ele>440.799</ele>
        <time>2019-03-25T15:34:21Z</time>
      </trkpt>
      <trkpt lat="45.85176" lon="4.10673">
        <ele>440.809</ele>
        <time>2019-03-25T15:34:26Z</time>
      </trkpt>
      <trkpt lat="45.85176" lon="4.10673">
        <ele>441.531</ele>
        <time>2019-03-25T15:34:31Z</time>
      </trkpt>
      <trkpt lat="45.85176" lon="4.10673">
        <ele>441.783</ele>
        <time>2019-03-25T15:34:37Z</time>
      </trkpt>
      <trkpt lat="45.85176" lon="4.10673">
        <ele>441.731</ele>
        <time>2019-03-25T15:34:42Z</time>
      </trkpt>
      <trkpt lat="45.85176" lon="4.10673">
        <ele>441.654</ele>
        <time>2019-03-25T15:34:48Z</time>
      </trkpt>
      <trkpt lat="45.85176" lon="4.10673">
        <ele>441.624</ele>
        <time>2019-03-25T15:34:53Z</time>
      </trkpt>
      <trkpt lat="45.85176" lon="4.10673">
        <ele>441.533</ele>
        <time>2019-03-25T15:34:59Z</time>
      </trkpt>
      <trkpt lat="45.85175" lon="4.10672">
        <ele>441.417</ele>
        <time>2019-03-25T15:35:04Z</time>
      </trkpt>
      <trkpt lat="45.85175" lon="4.10672">
        <ele>441.401</ele>
        <time>2019-03-25T15:35:10Z</time>
      </trkpt>
      <trkpt lat="45.85175" lon="4.10672">
        <ele>441.559</ele>
        <time>2019-03-25T15:35:16Z</time>
      </trkpt>
      <trkpt lat="45.85175" lon="4.10672">
        <ele>441.616</ele>
        <time>2019-03-25T15:35:21Z</time>
      </trkpt>
      <trkpt lat="45.85175" lon="4.10672">
        <ele>441.615</ele>
        <time>2019-03-25T15:35:27Z</time>
      </trkpt>
      <trkpt lat="45.85175" lon="4.10672">
        <ele>441.564</ele>
        <time>2019-03-25T15:35:32Z</time>
      </trkpt>
      <trkpt lat="45.85175" lon="4.10672">
        <ele>441.534</ele>
        <time>2019-03-25T15:35:38Z</time>
      </trkpt>
      <trkpt lat="45.85175" lon="4.10672">
        <ele>441.541</ele>
        <time>2019-03-25T15:35:43Z</time>
      </trkpt>
      <trkpt lat="45.85175" lon="4.10672">
        <ele>441.627</ele>
        <time>2019-03-25T15:35:49Z</time>
      </trkpt>
      <trkpt lat="45.85175" lon="4.10672">
        <ele>441.671</ele>
        <time>2019-03-25T15:35:54Z</time>
      </trkpt>
      <trkpt lat="45.85175" lon="4.10672">
        <ele>441.747</ele>
        <time>2019-03-25T15:36:00Z</time>
      </trkpt>
      <trkpt lat="45.85175" lon="4.10672">
        <ele>441.92</ele>
        <time>2019-03-25T15:36:05Z</time>
      </trkpt>
      <trkpt lat="45.85175" lon="4.10672">
        <ele>441.993</ele>
        <time>2019-03-25T15:36:11Z</time>
      </trkpt>
      <trkpt lat="45.85175" lon="4.10672">
        <ele>442.112</ele>
        <time>2019-03-25T15:36:17Z</time>
      </trkpt>
      <trkpt lat="45.85175" lon="4.10672">
        <ele>442.164</ele>
        <time>2019-03-25T15:36:22Z</time>
      </trkpt>
      <trkpt lat="45.85175" lon="4.10672">
        <ele>442.199</ele>
        <time>2019-03-25T15:36:28Z</time>
      </trkpt>
      <trkpt lat="45.85175" lon="4.10672">
        <ele>442.147</ele>
        <time>2019-03-25T15:36:34Z</time>
      </trkpt>
      <trkpt lat="45.85175" lon="4.10672">
        <ele>441.98</ele>
        <time>2019-03-25T15:36:40Z</time>
      </trkpt>
      <trkpt lat="45.85175" lon="4.10672">
        <ele>441.929</ele>
        <time>2019-03-25T15:36:45Z</time>
      </trkpt>
      <trkpt lat="45.85175" lon="4.10672">
        <ele>441.911</ele>
        <time>2019-03-25T15:36:51Z</time>
      </trkpt>
      <trkpt lat="45.85175" lon="4.10672">
        <ele>441.927</ele>
        <time>2019-03-25T15:36:56Z</time>
      </trkpt>
      <trkpt lat="45.85175" lon="4.10672">
        <ele>441.926</ele>
        <time>2019-03-25T15:37:02Z</time>
      </trkpt>
      <trkpt lat="45.85175" lon="4.10672">
        <ele>441.908</ele>
        <time>2019-03-25T15:37:07Z</time>
      </trkpt>
      <trkpt lat="45.85175" lon="4.10672">
        <ele>441.901</ele>
        <time>2019-03-25T15:37:12Z</time>
      </trkpt>
      <trkpt lat="45.85175" lon="4.10672">
        <ele>442.146</ele>
        <time>2019-03-25T15:37:18Z</time>
      </trkpt>
      <trkpt lat="45.85175" lon="4.10672">
        <ele>442.14</ele>
        <time>2019-03-25T15:37:23Z</time>
      </trkpt>
      <trkpt lat="45.85175" lon="4.10672">
        <ele>442.109</ele>
        <time>2019-03-25T15:37:29Z</time>
      </trkpt>
      <trkpt lat="45.85175" lon="4.10672">
        <ele>442.112</ele>
        <time>2019-03-25T15:37:34Z</time>
      </trkpt>
      <trkpt lat="45.85175" lon="4.10672">
        <ele>442.194</ele>
        <time>2019-03-25T15:37:39Z</time>
      </trkpt>
      <trkpt lat="45.85175" lon="4.10672">
        <ele>442.268</ele>
        <time>2019-03-25T15:37:45Z</time>
      </trkpt>
      <trkpt lat="45.85173" lon="4.10674">
        <ele>442.331</ele>
        <time>2019-03-25T15:37:51Z</time>
      </trkpt>
      <trkpt lat="45.85168" lon="4.10682">
        <ele>442.269</ele>
        <time>2019-03-25T15:37:57Z</time>
      </trkpt>
      <trkpt lat="45.85162" lon="4.1069">
        <ele>442.044</ele>
        <time>2019-03-25T15:38:02Z</time>
      </trkpt>
      <trkpt lat="45.8516" lon="4.10694">
        <ele>441.664</ele>
        <time>2019-03-25T15:38:07Z</time>
      </trkpt>
      <trkpt lat="45.85156" lon="4.10703">
        <ele>441.308</ele>
        <time>2019-03-25T15:38:12Z</time>
      </trkpt>
      <trkpt lat="45.85154" lon="4.10714">
        <ele>441.13</ele>
        <time>2019-03-25T15:38:18Z</time>
      </trkpt>
      <trkpt lat="45.85154" lon="4.10723">
        <ele>440.696</ele>
        <time>2019-03-25T15:38:24Z</time>
      </trkpt>
      <trkpt lat="45.85152" lon="4.10732">
        <ele>440.27</ele>
        <time>2019-03-25T15:38:30Z</time>
      </trkpt>
      <trkpt lat="45.85151" lon="4.1074">
        <ele>440.096</ele>
        <time>2019-03-25T15:38:35Z</time>
      </trkpt>
      <trkpt lat="45.8515" lon="4.10748">
        <ele>440.183</ele>
        <time>2019-03-25T15:38:41Z</time>
      </trkpt>
      <trkpt lat="45.8515" lon="4.10759">
        <ele>440.259</ele>
        <time>2019-03-25T15:38:46Z</time>
      </trkpt>
      <trkpt lat="45.85149" lon="4.10768">
        <ele>440.188</ele>
        <time>2019-03-25T15:38:52Z</time>
      </trkpt>
      <trkpt lat="45.85148" lon="4.10776">
        <ele>440.185</ele>
        <time>2019-03-25T15:38:58Z</time>
      </trkpt>
      <trkpt lat="45.85146" lon="4.10788">
        <ele>440.084</ele>
        <time>2019-03-25T15:39:04Z</time>
      </trkpt>
      <trkpt lat="45.85143" lon="4.10796">
        <ele>439.77</ele>
        <time>2019-03-25T15:39:10Z</time>
      </trkpt>
      <trkpt lat="45.8514" lon="4.10807">
        <ele>439.142</ele>
        <time>2019-03-25T15:39:16Z</time>
      </trkpt>
      <trkpt lat="45.85137" lon="4.10812">
        <ele>438.879</ele>
        <time>2019-03-25T15:39:21Z</time>
      </trkpt>
      <trkpt lat="45.85135" lon="4.10822">
        <ele>438.665</ele>
        <time>2019-03-25T15:39:27Z</time>
      </trkpt>
      <trkpt lat="45.85132" lon="4.10832">
        <ele>438.567</ele>
        <time>2019-03-25T15:39:33Z</time>
      </trkpt>
      <trkpt lat="45.85129" lon="4.1084">
        <ele>438.526</ele>
        <time>2019-03-25T15:39:38Z</time>
      </trkpt>
      <trkpt lat="45.85125" lon="4.1085">
        <ele>438.189</ele>
        <time>2019-03-25T15:39:44Z</time>
      </trkpt>
      <trkpt lat="45.85123" lon="4.10858">
        <ele>437.812</ele>
        <time>2019-03-25T15:39:50Z</time>
      </trkpt>
      <trkpt lat="45.85121" lon="4.10864">
        <ele>437.586</ele>
        <time>2019-03-25T15:39:55Z</time>
      </trkpt>
      <trkpt lat="45.85118" lon="4.10873">
        <ele>437.388</ele>
        <time>2019-03-25T15:40:01Z</time>
      </trkpt>
      <trkpt lat="45.85114" lon="4.10885">
        <ele>437.107</ele>
        <time>2019-03-25T15:40:07Z</time>
      </trkpt>
      <trkpt lat="45.85112" lon="4.10892">
        <ele>437.114</ele>
        <time>2019-03-25T15:40:12Z</time>
      </trkpt>
      <trkpt lat="45.85112" lon="4.10899">
        <ele>437.183</ele>
        <time>2019-03-25T15:40:17Z</time>
      </trkpt>
      <trkpt lat="45.8511" lon="4.10908">
        <ele>437.286</ele>
        <time>2019-03-25T15:40:23Z</time>
      </trkpt>
      <trkpt lat="45.85109" lon="4.1092">
        <ele>437.404</ele>
        <time>2019-03-25T15:40:29Z</time>
      </trkpt>
      <trkpt lat="45.85109" lon="4.10928">
        <ele>437.577</ele>
        <time>2019-03-25T15:40:34Z</time>
      </trkpt>
      <trkpt lat="45.85108" lon="4.10937">
        <ele>437.792</ele>
        <time>2019-03-25T15:40:40Z</time>
      </trkpt>
      <trkpt lat="45.85107" lon="4.10945">
        <ele>437.697</ele>
        <time>2019-03-25T15:40:45Z</time>
      </trkpt>
      <trkpt lat="45.85106" lon="4.10952">
        <ele>437.592</ele>
        <time>2019-03-25T15:40:50Z</time>
      </trkpt>
      <trkpt lat="45.85106" lon="4.10956">
        <ele>437.805</ele>
        <time>2019-03-25T15:40:56Z</time>
      </trkpt>
      <trkpt lat="45.85106" lon="4.10956">
        <ele>437.309</ele>
        <time>2019-03-25T15:41:02Z</time>
      </trkpt>
      <trkpt lat="45.85105" lon="4.10968">
        <ele>437.48</ele>
        <time>2019-03-25T15:41:08Z</time>
      </trkpt>
      <trkpt lat="45.85105" lon="4.10977">
        <ele>437.495</ele>
        <time>2019-03-25T15:41:14Z</time>
      </trkpt>
      <trkpt lat="45.85105" lon="4.10984">
        <ele>437.572</ele>
        <time>2019-03-25T15:41:19Z</time>
      </trkpt>
      <trkpt lat="45.85104" lon="4.10997">
        <ele>437.588</ele>
        <time>2019-03-25T15:41:25Z</time>
      </trkpt>
      <trkpt lat="45.85104" lon="4.11005">
        <ele>437.714</ele>
        <time>2019-03-25T15:41:31Z</time>
      </trkpt>
      <trkpt lat="45.85105" lon="4.11011">
        <ele>437.618</ele>
        <time>2019-03-25T15:41:37Z</time>
      </trkpt>
      <trkpt lat="45.85106" lon="4.1102">
        <ele>437.495</ele>
        <time>2019-03-25T15:41:43Z</time>
      </trkpt>
      <trkpt lat="45.85108" lon="4.1103">
        <ele>437.488</ele>
        <time>2019-03-25T15:41:48Z</time>
      </trkpt>
      <trkpt lat="45.85109" lon="4.11041">
        <ele>437.118</ele>
        <time>2019-03-25T15:41:54Z</time>
      </trkpt>
      <trkpt lat="45.8511" lon="4.11047">
        <ele>437.018</ele>
        <time>2019-03-25T15:41:59Z</time>
      </trkpt>
      <trkpt lat="45.85112" lon="4.11055">
        <ele>437.065</ele>
        <time>2019-03-25T15:42:05Z</time>
      </trkpt>
      <trkpt lat="45.85116" lon="4.11063">
        <ele>437.013</ele>
        <time>2019-03-25T15:42:11Z</time>
      </trkpt>
      <trkpt lat="45.85119" lon="4.11073">
        <ele>436.845</ele>
        <time>2019-03-25T15:42:16Z</time>
      </trkpt>
      <trkpt lat="45.85121" lon="4.11082">
        <ele>436.604</ele>
        <time>2019-03-25T15:42:22Z</time>
      </trkpt>
      <trkpt lat="45.85124" lon="4.1109">
        <ele>436.955</ele>
        <time>2019-03-25T15:42:28Z</time>
      </trkpt>
      <trkpt lat="45.85127" lon="4.11099">
        <ele>436.983</ele>
        <time>2019-03-25T15:42:33Z</time>
      </trkpt>
      <trkpt lat="45.85129" lon="4.11108">
        <ele>436.686</ele>
        <time>2019-03-25T15:42:38Z</time>
      </trkpt>
      <trkpt lat="45.8513" lon="4.11116">
        <ele>436.866</ele>
        <time>2019-03-25T15:42:44Z</time>
      </trkpt>
      <trkpt lat="45.85132" lon="4.11124">
        <ele>436.933</ele>
        <time>2019-03-25T15:42:50Z</time>
      </trkpt>
      <trkpt lat="45.85137" lon="4.11134">
        <ele>436.844</ele>
        <time>2019-03-25T15:42:56Z</time>
      </trkpt>
      <trkpt lat="45.85139" lon="4.11143">
        <ele>436.39</ele>
        <time>2019-03-25T15:43:02Z</time>
      </trkpt>
      <trkpt lat="45.85141" lon="4.11152">
        <ele>436.502</ele>
        <time>2019-03-25T15:43:08Z</time>
      </trkpt>
      <trkpt lat="45.85143" lon="4.11163">
        <ele>436.742</ele>
        <time>2019-03-25T15:43:14Z</time>
      </trkpt>
      <trkpt lat="45.85145" lon="4.11172">
        <ele>437.063</ele>
        <time>2019-03-25T15:43:19Z</time>
      </trkpt>
      <trkpt lat="45.85148" lon="4.11181">
        <ele>437.45</ele>
        <time>2019-03-25T15:43:25Z</time>
      </trkpt>
      <trkpt lat="45.85149" lon="4.11191">
        <ele>437.496</ele>
        <time>2019-03-25T15:43:30Z</time>
      </trkpt>
      <trkpt lat="45.85152" lon="4.112">
        <ele>437.161</ele>
        <time>2019-03-25T15:43:36Z</time>
      </trkpt>
      <trkpt lat="45.85155" lon="4.11209">
        <ele>436.885</ele>
        <time>2019-03-25T15:43:42Z</time>
      </trkpt>
      <trkpt lat="45.85157" lon="4.11216">
        <ele>437.019</ele>
        <time>2019-03-25T15:43:47Z</time>
      </trkpt>
      <trkpt lat="45.8516" lon="4.11225">
        <ele>437.043</ele>
        <time>2019-03-25T15:43:53Z</time>
      </trkpt>
      <trkpt lat="45.85162" lon="4.11233">
        <ele>437.03</ele>
        <time>2019-03-25T15:43:58Z</time>
      </trkpt>
      <trkpt lat="45.85166" lon="4.11244">
        <ele>437.281</ele>
        <time>2019-03-25T15:44:04Z</time>
      </trkpt>
      <trkpt lat="45.85169" lon="4.11253">
        <ele>437.5</ele>
        <time>2019-03-25T15:44:10Z</time>
      </trkpt>
      <trkpt lat="45.85172" lon="4.11262">
        <ele>437.612</ele>
        <time>2019-03-25T15:44:15Z</time>
      </trkpt>
      <trkpt lat="45.85174" lon="4.1127">
        <ele>437.631</ele>
        <time>2019-03-25T15:44:21Z</time>
      </trkpt>
      <trkpt lat="45.85174" lon="4.11277">
        <ele>437.828</ele>
        <time>2019-03-25T15:44:26Z</time>
      </trkpt>
      <trkpt lat="45.85176" lon="4.11286">
        <ele>437.737</ele>
        <time>2019-03-25T15:44:31Z</time>
      </trkpt>
      <trkpt lat="45.85176" lon="4.11295">
        <ele>437.693</ele>
        <time>2019-03-25T15:44:37Z</time>
      </trkpt>
      <trkpt lat="45.85179" lon="4.11307">
        <ele>437.664</ele>
        <time>2019-03-25T15:44:43Z</time>
      </trkpt>
      <trkpt lat="45.85179" lon="4.11316">
        <ele>437.589</ele>
        <time>2019-03-25T15:44:48Z</time>
      </trkpt>
      <trkpt lat="45.8518" lon="4.11323">
        <ele>437.814</ele>
        <time>2019-03-25T15:44:53Z</time>
      </trkpt>
      <trkpt lat="45.85184" lon="4.11333">
        <ele>437.883</ele>
        <time>2019-03-25T15:44:59Z</time>
      </trkpt>
      <trkpt lat="45.85186" lon="4.11341">
        <ele>437.929</ele>
        <time>2019-03-25T15:45:05Z</time>
      </trkpt>
      <trkpt lat="45.85187" lon="4.11349">
        <ele>438.082</ele>
        <time>2019-03-25T15:45:10Z</time>
      </trkpt>
      <trkpt lat="45.8519" lon="4.11357">
        <ele>438.588</ele>
        <time>2019-03-25T15:45:15Z</time>
      </trkpt>
      <trkpt lat="45.85193" lon="4.11369">
        <ele>438.967</ele>
        <time>2019-03-25T15:45:21Z</time>
      </trkpt>
      <trkpt lat="45.85194" lon="4.11379">
        <ele>439.232</ele>
        <time>2019-03-25T15:45:27Z</time>
      </trkpt>
      <trkpt lat="45.85196" lon="4.11389">
        <ele>439.375</ele>
        <time>2019-03-25T15:45:32Z</time>
      </trkpt>
      <trkpt lat="45.85197" lon="4.11399">
        <ele>439.86</ele>
        <time>2019-03-25T15:45:38Z</time>
      </trkpt>
      <trkpt lat="45.85199" lon="4.11409">
        <ele>439.867</ele>
        <time>2019-03-25T15:45:44Z</time>
      </trkpt>
      <trkpt lat="45.85198" lon="4.11417">
        <ele>440.039</ele>
        <time>2019-03-25T15:45:49Z</time>
      </trkpt>
      <trkpt lat="45.852" lon="4.11426">
        <ele>440.373</ele>
        <time>2019-03-25T15:45:55Z</time>
      </trkpt>
      <trkpt lat="45.85202" lon="4.11436">
        <ele>440.345</ele>
        <time>2019-03-25T15:46:01Z</time>
      </trkpt>
      <trkpt lat="45.85202" lon="4.11446">
        <ele>440.454</ele>
        <time>2019-03-25T15:46:07Z</time>
      </trkpt>
      <trkpt lat="45.85204" lon="4.11456">
        <ele>440.589</ele>
        <time>2019-03-25T15:46:13Z</time>
      </trkpt>
      <trkpt lat="45.85205" lon="4.11465">
        <ele>440.836</ele>
        <time>2019-03-25T15:46:18Z</time>
      </trkpt>
      <trkpt lat="45.85206" lon="4.11478">
        <ele>440.869</ele>
        <time>2019-03-25T15:46:24Z</time>
      </trkpt>
      <trkpt lat="45.85207" lon="4.11489">
        <ele>441.279</ele>
        <time>2019-03-25T15:46:30Z</time>
      </trkpt>
      <trkpt lat="45.85208" lon="4.115">
        <ele>441.833</ele>
        <time>2019-03-25T15:46:35Z</time>
      </trkpt>
      <trkpt lat="45.85208" lon="4.11508">
        <ele>442.338</ele>
        <time>2019-03-25T15:46:41Z</time>
      </trkpt>
      <trkpt lat="45.85209" lon="4.11516">
        <ele>442.566</ele>
        <time>2019-03-25T15:46:46Z</time>
      </trkpt>
      <trkpt lat="45.8521" lon="4.11524">
        <ele>442.573</ele>
        <time>2019-03-25T15:46:52Z</time>
      </trkpt>
      <trkpt lat="45.85212" lon="4.11536">
        <ele>442.73</ele>
        <time>2019-03-25T15:46:58Z</time>
      </trkpt>
      <trkpt lat="45.85212" lon="4.11547">
        <ele>442.972</ele>
        <time>2019-03-25T15:47:04Z</time>
      </trkpt>
      <trkpt lat="45.85209" lon="4.11559">
        <ele>442.992</ele>
        <time>2019-03-25T15:47:10Z</time>
      </trkpt>
      <trkpt lat="45.85209" lon="4.11567">
        <ele>443.063</ele>
        <time>2019-03-25T15:47:15Z</time>
      </trkpt>
      <trkpt lat="45.85211" lon="4.11575">
        <ele>443.271</ele>
        <time>2019-03-25T15:47:20Z</time>
      </trkpt>
      <trkpt lat="45.85212" lon="4.11588">
        <ele>443.409</ele>
        <time>2019-03-25T15:47:26Z</time>
      </trkpt>
      <trkpt lat="45.85214" lon="4.11597">
        <ele>443.492</ele>
        <time>2019-03-25T15:47:31Z</time>
      </trkpt>
      <trkpt lat="45.85214" lon="4.11607">
        <ele>443.292</ele>
        <time>2019-03-25T15:47:37Z</time>
      </trkpt>
      <trkpt lat="45.85214" lon="4.11618">
        <ele>443.275</ele>
        <time>2019-03-25T15:47:43Z</time>
      </trkpt>
      <trkpt lat="45.85215" lon="4.11628">
        <ele>443.468</ele>
        <time>2019-03-25T15:47:49Z</time>
      </trkpt>
      <trkpt lat="45.85215" lon="4.11639">
        <ele>443.593</ele>
        <time>2019-03-25T15:47:55Z</time>
      </trkpt>
      <trkpt lat="45.85217" lon="4.1165">
        <ele>443.858</ele>
        <time>2019-03-25T15:48:01Z</time>
      </trkpt>
      <trkpt lat="45.85219" lon="4.11659">
        <ele>444.137</ele>
        <time>2019-03-25T15:48:07Z</time>
      </trkpt>
      <trkpt lat="45.8522" lon="4.1167">
        <ele>444.22</ele>
        <time>2019-03-25T15:48:13Z</time>
      </trkpt>
      <trkpt lat="45.85221" lon="4.11682">
        <ele>444.311</ele>
        <time>2019-03-25T15:48:19Z</time>
      </trkpt>
      <trkpt lat="45.85222" lon="4.11693">
        <ele>444.332</ele>
        <time>2019-03-25T15:48:25Z</time>
      </trkpt>
      <trkpt lat="45.85224" lon="4.11702">
        <ele>444.772</ele>
        <time>2019-03-25T15:48:31Z</time>
      </trkpt>
      <trkpt lat="45.85226" lon="4.11712">
        <ele>445.352</ele>
        <time>2019-03-25T15:48:37Z</time>
      </trkpt>
      <trkpt lat="45.85227" lon="4.11721">
        <ele>445.666</ele>
        <time>2019-03-25T15:48:43Z</time>
      </trkpt>
      <trkpt lat="45.85229" lon="4.11732">
        <ele>445.939</ele>
        <time>2019-03-25T15:48:49Z</time>
      </trkpt>
      <trkpt lat="45.85229" lon="4.11738">
        <ele>446.155</ele>
        <time>2019-03-25T15:48:54Z</time>
      </trkpt>
      <trkpt lat="45.8523" lon="4.11748">
        <ele>446.221</ele>
        <time>2019-03-25T15:49:00Z</time>
      </trkpt>
      <trkpt lat="45.8523" lon="4.11756">
        <ele>446.167</ele>
        <time>2019-03-25T15:49:05Z</time>
      </trkpt>
      <trkpt lat="45.85232" lon="4.11767">
        <ele>446.418</ele>
        <time>2019-03-25T15:49:10Z</time>
      </trkpt>
      <trkpt lat="45.85233" lon="4.11775">
        <ele>446.635</ele>
        <time>2019-03-25T15:49:16Z</time>
      </trkpt>
      <trkpt lat="45.85235" lon="4.11782">
        <ele>446.682</ele>
        <time>2019-03-25T15:49:22Z</time>
      </trkpt>
      <trkpt lat="45.85237" lon="4.11793">
        <ele>446.529</ele>
        <time>2019-03-25T15:49:28Z</time>
      </trkpt>
      <trkpt lat="45.85239" lon="4.11803">
        <ele>446.599</ele>
        <time>2019-03-25T15:49:34Z</time>
      </trkpt>
      <trkpt lat="45.8524" lon="4.11812">
        <ele>446.703</ele>
        <time>2019-03-25T15:49:39Z</time>
      </trkpt>
      <trkpt lat="45.85241" lon="4.1182">
        <ele>446.622</ele>
        <time>2019-03-25T15:49:44Z</time>
      </trkpt>
      <trkpt lat="45.85241" lon="4.1183">
        <ele>446.839</ele>
        <time>2019-03-25T15:49:50Z</time>
      </trkpt>
      <trkpt lat="45.85242" lon="4.1184">
        <ele>446.698</ele>
        <time>2019-03-25T15:49:55Z</time>
      </trkpt>
      <trkpt lat="45.85244" lon="4.11849">
        <ele>446.709</ele>
        <time>2019-03-25T15:50:01Z</time>
      </trkpt>
      <trkpt lat="45.85244" lon="4.11858">
        <ele>446.907</ele>
        <time>2019-03-25T15:50:06Z</time>
      </trkpt>
      <trkpt lat="45.85246" lon="4.11867">
        <ele>447.112</ele>
        <time>2019-03-25T15:50:11Z</time>
      </trkpt>
      <trkpt lat="45.85247" lon="4.11876">
        <ele>447.389</ele>
        <time>2019-03-25T15:50:17Z</time>
      </trkpt>
      <trkpt lat="45.85247" lon="4.11885">
        <ele>448.023</ele>
        <time>2019-03-25T15:50:23Z</time>
      </trkpt>
      <trkpt lat="45.85246" lon="4.11897">
        <ele>448.075</ele>
        <time>2019-03-25T15:50:29Z</time>
      </trkpt>
      <trkpt lat="45.85247" lon="4.11907">
        <ele>448.175</ele>
        <time>2019-03-25T15:50:34Z</time>
      </trkpt>
      <trkpt lat="45.85249" lon="4.11915">
        <ele>448.266</ele>
        <time>2019-03-25T15:50:39Z</time>
      </trkpt>
      <trkpt lat="45.85249" lon="4.11927">
        <ele>448.444</ele>
        <time>2019-03-25T15:50:45Z</time>
      </trkpt>
      <trkpt lat="45.8525" lon="4.11937">
        <ele>448.485</ele>
        <time>2019-03-25T15:50:50Z</time>
      </trkpt>
      <trkpt lat="45.85251" lon="4.11949">
        <ele>448.718</ele>
        <time>2019-03-25T15:50:56Z</time>
      </trkpt>
      <trkpt lat="45.85251" lon="4.1196">
        <ele>449.168</ele>
        <time>2019-03-25T15:51:02Z</time>
      </trkpt>
      <trkpt lat="45.85252" lon="4.11968">
        <ele>449.351</ele>
        <time>2019-03-25T15:51:07Z</time>
      </trkpt>
      <trkpt lat="45.85254" lon="4.11982">
        <ele>449.841</ele>
        <time>2019-03-25T15:51:13Z</time>
      </trkpt>
      <trkpt lat="45.85254" lon="4.1199">
        <ele>450.194</ele>
        <time>2019-03-25T15:51:18Z</time>
      </trkpt>
      <trkpt lat="45.85258" lon="4.12001">
        <ele>450.698</ele>
        <time>2019-03-25T15:51:24Z</time>
      </trkpt>
      <trkpt lat="45.85256" lon="4.12008">
        <ele>451.094</ele>
        <time>2019-03-25T15:51:30Z</time>
      </trkpt>
      <trkpt lat="45.85251" lon="4.1201">
        <ele>451.142</ele>
        <time>2019-03-25T15:51:35Z</time>
      </trkpt>
      <trkpt lat="45.85244" lon="4.12009">
        <ele>451.184</ele>
        <time>2019-03-25T15:51:40Z</time>
      </trkpt>
      <trkpt lat="45.85237" lon="4.12004">
        <ele>451.322</ele>
        <time>2019-03-25T15:51:46Z</time>
      </trkpt>
      <trkpt lat="45.85232" lon="4.11999">
        <ele>451.468</ele>
        <time>2019-03-25T15:51:52Z</time>
      </trkpt>
      <trkpt lat="45.85224" lon="4.11994">
        <ele>451.413</ele>
        <time>2019-03-25T15:51:58Z</time>
      </trkpt>
      <trkpt lat="45.8522" lon="4.1199">
        <ele>451.569</ele>
        <time>2019-03-25T15:52:03Z</time>
      </trkpt>
      <trkpt lat="45.85211" lon="4.11985">
        <ele>451.485</ele>
        <time>2019-03-25T15:52:09Z</time>
      </trkpt>
      <trkpt lat="45.85206" lon="4.11981">
        <ele>451.359</ele>
        <time>2019-03-25T15:52:14Z</time>
      </trkpt>
      <trkpt lat="45.852" lon="4.11977">
        <ele>451.598</ele>
        <time>2019-03-25T15:52:20Z</time>
      </trkpt>
      <trkpt lat="45.85193" lon="4.11972">
        <ele>451.801</ele>
        <time>2019-03-25T15:52:26Z</time>
      </trkpt>
      <trkpt lat="45.85188" lon="4.11967">
        <ele>451.951</ele>
        <time>2019-03-25T15:52:31Z</time>
      </trkpt>
      <trkpt lat="45.85182" lon="4.1196">
        <ele>451.859</ele>
        <time>2019-03-25T15:52:37Z</time>
      </trkpt>
      <trkpt lat="45.85178" lon="4.11955">
        <ele>451.718</ele>
        <time>2019-03-25T15:52:42Z</time>
      </trkpt>
      <trkpt lat="45.85171" lon="4.11949">
        <ele>451.616</ele>
        <time>2019-03-25T15:52:47Z</time>
      </trkpt>
      <trkpt lat="45.85164" lon="4.11943">
        <ele>451.7</ele>
        <time>2019-03-25T15:52:53Z</time>
      </trkpt>
      <trkpt lat="45.85157" lon="4.11939">
        <ele>452.099</ele>
        <time>2019-03-25T15:52:59Z</time>
      </trkpt>
      <trkpt lat="45.85151" lon="4.11937">
        <ele>452.116</ele>
        <time>2019-03-25T15:53:04Z</time>
      </trkpt>
      <trkpt lat="45.85142" lon="4.11938">
        <ele>452.055</ele>
        <time>2019-03-25T15:53:10Z</time>
      </trkpt>
      <trkpt lat="45.85135" lon="4.11941">
        <ele>452.016</ele>
        <time>2019-03-25T15:53:16Z</time>
      </trkpt>
      <trkpt lat="45.85127" lon="4.11942">
        <ele>452.057</ele>
        <time>2019-03-25T15:53:22Z</time>
      </trkpt>
      <trkpt lat="45.8512" lon="4.11944">
        <ele>451.922</ele>
        <time>2019-03-25T15:53:28Z</time>
      </trkpt>
      <trkpt lat="45.85114" lon="4.11945">
        <ele>451.86</ele>
        <time>2019-03-25T15:53:33Z</time>
      </trkpt>
      <trkpt lat="45.85108" lon="4.11947">
        <ele>451.869</ele>
        <time>2019-03-25T15:53:38Z</time>
      </trkpt>
      <trkpt lat="45.85099" lon="4.1195">
        <ele>451.909</ele>
        <time>2019-03-25T15:53:44Z</time>
      </trkpt>
      <trkpt lat="45.85093" lon="4.11953">
        <ele>451.812</ele>
        <time>2019-03-25T15:53:49Z</time>
      </trkpt>
      <trkpt lat="45.85086" lon="4.11956">
        <ele>451.794</ele>
        <time>2019-03-25T15:53:55Z</time>
      </trkpt>
      <trkpt lat="45.85079" lon="4.11957">
        <ele>451.678</ele>
        <time>2019-03-25T15:54:00Z</time>
      </trkpt>
      <trkpt lat="45.85071" lon="4.1196">
        <ele>451.637</ele>
        <time>2019-03-25T15:54:06Z</time>
      </trkpt>
      <trkpt lat="45.85065" lon="4.11962">
        <ele>451.711</ele>
        <time>2019-03-25T15:54:11Z</time>
      </trkpt>
      <trkpt lat="45.85056" lon="4.11963">
        <ele>451.607</ele>
        <time>2019-03-25T15:54:17Z</time>
      </trkpt>
      <trkpt lat="45.85051" lon="4.11965">
        <ele>451.442</ele>
        <time>2019-03-25T15:54:22Z</time>
      </trkpt>
      <trkpt lat="45.85046" lon="4.11967">
        <ele>451.155</ele>
        <time>2019-03-25T15:54:27Z</time>
      </trkpt>
      <trkpt lat="45.85036" lon="4.11969">
        <ele>451.311</ele>
        <time>2019-03-25T15:54:33Z</time>
      </trkpt>
      <trkpt lat="45.85027" lon="4.11972">
        <ele>451.495</ele>
        <time>2019-03-25T15:54:39Z</time>
      </trkpt>
      <trkpt lat="45.8502" lon="4.11974">
        <ele>451.173</ele>
        <time>2019-03-25T15:54:45Z</time>
      </trkpt>
      <trkpt lat="45.85014" lon="4.11977">
        <ele>451.227</ele>
        <time>2019-03-25T15:54:50Z</time>
      </trkpt>
      <trkpt lat="45.85007" lon="4.11979">
        <ele>450.968</ele>
        <time>2019-03-25T15:54:56Z</time>
      </trkpt>
      <trkpt lat="45.84999" lon="4.11982">
        <ele>450.554</ele>
        <time>2019-03-25T15:55:02Z</time>
      </trkpt>
      <trkpt lat="45.84993" lon="4.11986">
        <ele>450.187</ele>
        <time>2019-03-25T15:55:07Z</time>
      </trkpt>
      <trkpt lat="45.84986" lon="4.1199">
        <ele>449.876</ele>
        <time>2019-03-25T15:55:13Z</time>
      </trkpt>
      <trkpt lat="45.84977" lon="4.11993">
        <ele>449.818</ele>
        <time>2019-03-25T15:55:18Z</time>
      </trkpt>
      <trkpt lat="45.84969" lon="4.11994">
        <ele>449.45</ele>
        <time>2019-03-25T15:55:23Z</time>
      </trkpt>
      <trkpt lat="45.84961" lon="4.11998">
        <ele>448.765</ele>
        <time>2019-03-25T15:55:29Z</time>
      </trkpt>
      <trkpt lat="45.84954" lon="4.12">
        <ele>448.437</ele>
        <time>2019-03-25T15:55:34Z</time>
      </trkpt>
      <trkpt lat="45.84946" lon="4.12004">
        <ele>448.188</ele>
        <time>2019-03-25T15:55:40Z</time>
      </trkpt>
      <trkpt lat="45.8494" lon="4.12006">
        <ele>448.127</ele>
        <time>2019-03-25T15:55:46Z</time>
      </trkpt>
      <trkpt lat="45.84935" lon="4.12013">
        <ele>448</ele>
        <time>2019-03-25T15:55:51Z</time>
      </trkpt>
      <trkpt lat="45.84934" lon="4.12024">
        <ele>447.938</ele>
        <time>2019-03-25T15:55:57Z</time>
      </trkpt>
      <trkpt lat="45.84938" lon="4.12035">
        <ele>447.973</ele>
        <time>2019-03-25T15:56:03Z</time>
      </trkpt>
      <trkpt lat="45.84942" lon="4.12045">
        <ele>447.729</ele>
        <time>2019-03-25T15:56:09Z</time>
      </trkpt>
      <trkpt lat="45.84946" lon="4.12054">
        <ele>447.578</ele>
        <time>2019-03-25T15:56:15Z</time>
      </trkpt>
      <trkpt lat="45.8495" lon="4.12062">
        <ele>447.552</ele>
        <time>2019-03-25T15:56:20Z</time>
      </trkpt>
      <trkpt lat="45.84953" lon="4.12071">
        <ele>447.585</ele>
        <time>2019-03-25T15:56:26Z</time>
      </trkpt>
      <trkpt lat="45.84955" lon="4.1208">
        <ele>447.595</ele>
        <time>2019-03-25T15:56:31Z</time>
      </trkpt>
      <trkpt lat="45.84958" lon="4.12091">
        <ele>447.656</ele>
        <time>2019-03-25T15:56:37Z</time>
      </trkpt>
      <trkpt lat="45.84961" lon="4.12102">
        <ele>447.793</ele>
        <time>2019-03-25T15:56:43Z</time>
      </trkpt>
      <trkpt lat="45.84963" lon="4.12111">
        <ele>447.897</ele>
        <time>2019-03-25T15:56:48Z</time>
      </trkpt>
      <trkpt lat="45.84964" lon="4.12122">
        <ele>448.048</ele>
        <time>2019-03-25T15:56:54Z</time>
      </trkpt>
      <trkpt lat="45.84965" lon="4.1213">
        <ele>448.075</ele>
        <time>2019-03-25T15:56:59Z</time>
      </trkpt>
      <trkpt lat="45.84966" lon="4.12141">
        <ele>447.811</ele>
        <time>2019-03-25T15:57:05Z</time>
      </trkpt>
      <trkpt lat="45.84966" lon="4.12151">
        <ele>447.806</ele>
        <time>2019-03-25T15:57:11Z</time>
      </trkpt>
      <trkpt lat="45.84967" lon="4.12164">
        <ele>447.78</ele>
        <time>2019-03-25T15:57:17Z</time>
      </trkpt>
      <trkpt lat="45.84968" lon="4.12176">
        <ele>447.821</ele>
        <time>2019-03-25T15:57:23Z</time>
      </trkpt>
      <trkpt lat="45.84968" lon="4.12186">
        <ele>447.787</ele>
        <time>2019-03-25T15:57:29Z</time>
      </trkpt>
      <trkpt lat="45.84969" lon="4.12196">
        <ele>447.687</ele>
        <time>2019-03-25T15:57:34Z</time>
      </trkpt>
      <trkpt lat="45.8497" lon="4.12206">
        <ele>447.798</ele>
        <time>2019-03-25T15:57:40Z</time>
      </trkpt>
      <trkpt lat="45.84971" lon="4.12218">
        <ele>447.66</ele>
        <time>2019-03-25T15:57:45Z</time>
      </trkpt>
      <trkpt lat="45.84973" lon="4.12228">
        <ele>447.605</ele>
        <time>2019-03-25T15:57:50Z</time>
      </trkpt>
      <trkpt lat="45.84974" lon="4.12239">
        <ele>447.476</ele>
        <time>2019-03-25T15:57:56Z</time>
      </trkpt>
      <trkpt lat="45.84976" lon="4.12248">
        <ele>447.264</ele>
        <time>2019-03-25T15:58:01Z</time>
      </trkpt>
      <trkpt lat="45.84977" lon="4.1226">
        <ele>446.968</ele>
        <time>2019-03-25T15:58:07Z</time>
      </trkpt>
      <trkpt lat="45.8498" lon="4.12268">
        <ele>447.037</ele>
        <time>2019-03-25T15:58:12Z</time>
      </trkpt>
      <trkpt lat="45.8498" lon="4.12277">
        <ele>447.004</ele>
        <time>2019-03-25T15:58:17Z</time>
      </trkpt>
      <trkpt lat="45.84982" lon="4.12286">
        <ele>447.013</ele>
        <time>2019-03-25T15:58:23Z</time>
      </trkpt>
      <trkpt lat="45.84983" lon="4.12295">
        <ele>446.875</ele>
        <time>2019-03-25T15:58:28Z</time>
      </trkpt>
      <trkpt lat="45.84983" lon="4.12307">
        <ele>446.663</ele>
        <time>2019-03-25T15:58:34Z</time>
      </trkpt>
      <trkpt lat="45.84985" lon="4.12314">
        <ele>446.795</ele>
        <time>2019-03-25T15:58:39Z</time>
      </trkpt>
      <trkpt lat="45.84986" lon="4.12323">
        <ele>446.801</ele>
        <time>2019-03-25T15:58:44Z</time>
      </trkpt>
      <trkpt lat="45.84986" lon="4.12334">
        <ele>446.922</ele>
        <time>2019-03-25T15:58:50Z</time>
      </trkpt>
      <trkpt lat="45.84986" lon="4.12341">
        <ele>446.708</ele>
        <time>2019-03-25T15:58:55Z</time>
      </trkpt>
      <trkpt lat="45.84988" lon="4.12349">
        <ele>446.59</ele>
        <time>2019-03-25T15:59:01Z</time>
      </trkpt>
      <trkpt lat="45.8499" lon="4.1236">
        <ele>446.292</ele>
        <time>2019-03-25T15:59:07Z</time>
      </trkpt>
      <trkpt lat="45.84991" lon="4.12371">
        <ele>446.085</ele>
        <time>2019-03-25T15:59:13Z</time>
      </trkpt>
      <trkpt lat="45.84991" lon="4.1238">
        <ele>446.044</ele>
        <time>2019-03-25T15:59:18Z</time>
      </trkpt>
      <trkpt lat="45.84991" lon="4.12389">
        <ele>445.888</ele>
        <time>2019-03-25T15:59:24Z</time>
      </trkpt>
      <trkpt lat="45.84991" lon="4.124">
        <ele>445.648</ele>
        <time>2019-03-25T15:59:29Z</time>
      </trkpt>
      <trkpt lat="45.84991" lon="4.12411">
        <ele>445.263</ele>
        <time>2019-03-25T15:59:35Z</time>
      </trkpt>
      <trkpt lat="45.84992" lon="4.12418">
        <ele>445.21</ele>
        <time>2019-03-25T15:59:40Z</time>
      </trkpt>
      <trkpt lat="45.84992" lon="4.12429">
        <ele>445.249</ele>
        <time>2019-03-25T15:59:46Z</time>
      </trkpt>
      <trkpt lat="45.84991" lon="4.12438">
        <ele>445.384</ele>
        <time>2019-03-25T15:59:52Z</time>
      </trkpt>
      <trkpt lat="45.84992" lon="4.12447">
        <ele>445.098</ele>
        <time>2019-03-25T15:59:57Z</time>
      </trkpt>
      <trkpt lat="45.8499" lon="4.12456">
        <ele>444.746</ele>
        <time>2019-03-25T16:00:03Z</time>
      </trkpt>
      <trkpt lat="45.84989" lon="4.12465">
        <ele>444.599</ele>
        <time>2019-03-25T16:00:08Z</time>
      </trkpt>
      <trkpt lat="45.84988" lon="4.12476">
        <ele>444.365</ele>
        <time>2019-03-25T16:00:14Z</time>
      </trkpt>
      <trkpt lat="45.84986" lon="4.12485">
        <ele>444.245</ele>
        <time>2019-03-25T16:00:19Z</time>
      </trkpt>
      <trkpt lat="45.84986" lon="4.12495">
        <ele>444.184</ele>
        <time>2019-03-25T16:00:25Z</time>
      </trkpt>
      <trkpt lat="45.84984" lon="4.12506">
        <ele>444.374</ele>
        <time>2019-03-25T16:00:31Z</time>
      </trkpt>
      <trkpt lat="45.84984" lon="4.12517">
        <ele>444.469</ele>
        <time>2019-03-25T16:00:36Z</time>
      </trkpt>
      <trkpt lat="45.84984" lon="4.12525">
        <ele>444.363</ele>
        <time>2019-03-25T16:00:42Z</time>
      </trkpt>
      <trkpt lat="45.84984" lon="4.12536">
        <ele>444.505</ele>
        <time>2019-03-25T16:00:48Z</time>
      </trkpt>
      <trkpt lat="45.84984" lon="4.12542">
        <ele>444.501</ele>
        <time>2019-03-25T16:00:53Z</time>
      </trkpt>
      <trkpt lat="45.84982" lon="4.12551">
        <ele>444.58</ele>
        <time>2019-03-25T16:00:59Z</time>
      </trkpt>
      <trkpt lat="45.84981" lon="4.12562">
        <ele>444.422</ele>
        <time>2019-03-25T16:01:05Z</time>
      </trkpt>
      <trkpt lat="45.84982" lon="4.12572">
        <ele>444.473</ele>
        <time>2019-03-25T16:01:11Z</time>
      </trkpt>
      <trkpt lat="45.84983" lon="4.12582">
        <ele>444.798</ele>
        <time>2019-03-25T16:01:17Z</time>
      </trkpt>
      <trkpt lat="45.84984" lon="4.12589">
        <ele>445.063</ele>
        <time>2019-03-25T16:01:22Z</time>
      </trkpt>
      <trkpt lat="45.84986" lon="4.12598">
        <ele>445.287</ele>
        <time>2019-03-25T16:01:28Z</time>
      </trkpt>
      <trkpt lat="45.84986" lon="4.12608">
        <ele>445.664</ele>
        <time>2019-03-25T16:01:34Z</time>
      </trkpt>
      <trkpt lat="45.84986" lon="4.12615">
        <ele>445.791</ele>
        <time>2019-03-25T16:01:39Z</time>
      </trkpt>
      <trkpt lat="45.84987" lon="4.12623">
        <ele>446.011</ele>
        <time>2019-03-25T16:01:44Z</time>
      </trkpt>
      <trkpt lat="45.84989" lon="4.12629">
        <ele>446.12</ele>
        <time>2019-03-25T16:01:49Z</time>
      </trkpt>
      <trkpt lat="45.8499" lon="4.12641">
        <ele>446.023</ele>
        <time>2019-03-25T16:01:55Z</time>
      </trkpt>
      <trkpt lat="45.84991" lon="4.12652">
        <ele>446.147</ele>
        <time>2019-03-25T16:02:01Z</time>
      </trkpt>
      <trkpt lat="45.8499" lon="4.12661">
        <ele>446.396</ele>
        <time>2019-03-25T16:02:07Z</time>
      </trkpt>
      <trkpt lat="45.84992" lon="4.1267">
        <ele>446.631</ele>
        <time>2019-03-25T16:02:13Z</time>
      </trkpt>
      <trkpt lat="45.84991" lon="4.12678">
        <ele>446.687</ele>
        <time>2019-03-25T16:02:18Z</time>
      </trkpt>
      <trkpt lat="45.84991" lon="4.12684">
        <ele>446.471</ele>
        <time>2019-03-25T16:02:24Z</time>
      </trkpt>
      <trkpt lat="45.84994" lon="4.12686">
        <ele>446.187</ele>
        <time>2019-03-25T16:02:30Z</time>
      </trkpt>
      <trkpt lat="45.84997" lon="4.12687">
        <ele>446.272</ele>
        <time>2019-03-25T16:02:36Z</time>
      </trkpt>
      <trkpt lat="45.84999" lon="4.12685">
        <ele>446.138</ele>
        <time>2019-03-25T16:02:42Z</time>
      </trkpt>
      <trkpt lat="45.84999" lon="4.12684">
        <ele>446.288</ele>
        <time>2019-03-25T16:02:48Z</time>
      </trkpt>
      <trkpt lat="45.85" lon="4.12685">
        <ele>445.967</ele>
        <time>2019-03-25T16:02:54Z</time>
      </trkpt>
      <trkpt lat="45.85001" lon="4.12686">
        <ele>445.914</ele>
        <time>2019-03-25T16:02:59Z</time>
      </trkpt>
      <trkpt lat="45.85001" lon="4.12686">
        <ele>445.987</ele>
        <time>2019-03-25T16:03:05Z</time>
      </trkpt>
      <trkpt lat="45.85" lon="4.12686">
        <ele>446.214</ele>
        <time>2019-03-25T16:03:11Z</time>
      </trkpt>
      <trkpt lat="45.84999" lon="4.12686">
        <ele>446.352</ele>
        <time>2019-03-25T16:03:17Z</time>
      </trkpt>
      <trkpt lat="45.85" lon="4.12685">
        <ele>446.354</ele>
        <time>2019-03-25T16:03:22Z</time>
      </trkpt>
      <trkpt lat="45.84999" lon="4.12684">
        <ele>446.603</ele>
        <time>2019-03-25T16:03:28Z</time>
      </trkpt>
      <trkpt lat="45.85" lon="4.12685">
        <ele>446.645</ele>
        <time>2019-03-25T16:03:33Z</time>
      </trkpt>
      <trkpt lat="45.85" lon="4.12684">
        <ele>446.794</ele>
        <time>2019-03-25T16:03:38Z</time>
      </trkpt>
      <trkpt lat="45.85" lon="4.12684">
        <ele>447.102</ele>
        <time>2019-03-25T16:03:43Z</time>
      </trkpt>
      <trkpt lat="45.85001" lon="4.12684">
        <ele>447.23</ele>
        <time>2019-03-25T16:03:49Z</time>
      </trkpt>
      <trkpt lat="45.85001" lon="4.12684">
        <ele>447.153</ele>
        <time>2019-03-25T16:03:54Z</time>
      </trkpt>
      <trkpt lat="45.85001" lon="4.12685">
        <ele>447.216</ele>
        <time>2019-03-25T16:03:59Z</time>
      </trkpt>
      <trkpt lat="45.85" lon="4.12685">
        <ele>447.19</ele>
        <time>2019-03-25T16:04:04Z</time>
      </trkpt>
      <trkpt lat="45.84999" lon="4.12687">
        <ele>446.665</ele>
        <time>2019-03-25T16:04:10Z</time>
      </trkpt>
    </trkseg>
  </trk>
</gpx>